[[[{"header":{"parameterUnit":"kt","parameterCategory":2,"dx":1,"dy":1,"la1":29.587661999999998,"la2":31.0,"lo1":-88.76705300000003,"lo2":-86.6583820000003,"nx":115,"ny":88,"refTime":"2022-10-12T18:00:00:Z","depth":0,"parameterNumber":1,"parameterNumberName":"U-component_of_WINDS"},"data":[-9.5035,-9.5035,-9.5035,-9.5035,-9.5035,-9.5035,-9.5035,-9.5035,-9.5035,-9.5035,-9.5035,-9.5035,-9.5035,-9.5035,-9.5035,-9.5035,-9.5035,-9.5035,-9.5035,-9.5035,-9.5035,-9.5035,-9.5035,-9.5035,-9.5035,-9.5035,-9.5035,-9.5035,-9.5035,-9.5035,-9.5035,-9.5068,-9.5068,-9.5264,-9.5297,-9.5582,-9.5824,-9.6057,-9.6289,-9.6337,-9.6918,-9.7488,-9.7999,-9.8108,-9.8273,-9.8211,-9.7454,-9.5091,-9.3842,-9.241,-9.04,-8.9057,-8.8629,-8.8612,-8.854,-8.8435,-8.8591,-8.883,-8.8893,-8.8833,-8.8774,-8.8781,-8.8781,-8.8811,-8.8854,-8.9014,-8.9014,-8.9028,-8.9041,-8.9041,-8.9041,-8.9041,-8.9041,-8.9041,-8.9041,-8.9041,-8.9041,-8.9041,-8.9041,-8.9041,-8.9041,-8.8958,-8.8819,-8.8848,-8.8906,-8.8944,-8.893,-8.8958,-8.9028,-8.9028,-8.9014,-8.9028,-8.9014,-8.9041,-8.9041,-8.9041,-8.9055,-8.9041,-8.9041,-8.9041,-8.9041,-8.9041,-8.9041,-8.9041,-8.874,-8.8015,-8.631,-8.4379,-8.2233,-8.036,-7.9636,-7.9362,-7.9347,-7.9369,-7.9376,-9.5035,-9.5035,-9.5035,-9.5035,-9.5035,-9.5035,-9.5035,-9.5035,-9.5035,-9.5035,-9.5035,-9.5035,-9.5035,-9.5035,-9.5035,-9.5035,-9.5035,-9.5035,-9.5035,-9.5035,-9.5035,-9.5035,-9.5035,-9.5035,-9.5035,-9.5035,-9.5035,-9.5035,-9.5169,-9.5297,-9.533,-9.5202,-9.5491,-9.5885,-9.6079,-9.6357,-9.6683,-9.683,-9.6906,-9.6933,-9.7385,-9.8006,-9.8238,-9.8037,-9.7594,-9.6784,-9.5733,-9.4028,-9.209,-9.0832,-8.9872,-8.8978,-8.8679,-8.8679,-8.8679,-8.8728,-8.8855,-8.8969,-8.9051,-8.9047,-8.9052,-8.9041,-8.9028,-8.9014,-8.9014,-8.9028,-8.9028,-8.9041,-8.9041,-8.9041,-8.9041,-8.9041,-8.9041,-8.9041,-8.9041,-8.9041,-8.9041,-8.9041,-8.9041,-8.9041,-8.9041,-8.9041,-8.9,-8.9,-8.9014,-8.9028,-8.9028,-8.9028,-8.9041,-8.9041,-8.9041,-8.9041,-8.9041,-8.9041,-8.9055,-8.9031,-8.9057,-8.9057,-8.9121,-8.9068,-8.9055,-8.9108,-8.9133,-8.9081,-8.8404,-8.7515,-8.5958,-8.4137,-8.2078,-7.9989,-7.9583,-7.9439,-7.9449,-7.9439,-7.9432,-9.5035,-9.5035,-9.5035,-9.5035,-9.5035,-9.5035,-9.5035,-9.5035,-9.5035,-9.5035,-9.5035,-9.5035,-9.5035,-9.5035,-9.5035,-9.5035,-9.5035,-9.5035,-9.5035,-9.5035,-9.5035,-9.5035,-9.5035,-9.5035,-9.5068,-9.5071,-9.5105,-9.5366,-9.5681,-9.583,-9.6087,-9.626,-9.6348,-9.6557,-9.6636,-9.6781,-9.7117,-9.7527,-9.7505,-9.7245,-9.6874,-9.694,-9.7229,-9.6268,-9.5555,-9.5186,-9.4134,-9.2962,-9.1602,-9.0827,-8.9617,-8.8927,-8.8855,-8.8808,-8.8771,-8.8864,-8.8946,-8.9042,-8.9047,-8.9038,-8.9028,-8.9041,-8.9041,-8.9041,-8.9041,-8.9041,-8.9041,-8.9041,-8.9041,-8.9041,-8.9041,-8.9041,-8.9041,-8.9041,-8.9041,-8.9041,-8.9041,-8.9041,-8.9041,-8.9041,-8.9041,-8.9041,-8.9041,-8.9041,-8.9041,-8.9041,-8.9041,-8.9041,-8.9041,-8.9041,-8.9041,-8.9041,-8.9041,-8.9041,-8.9083,-8.9121,-8.9084,-8.9158,-8.9232,-8.9232,-8.9244,-8.9244,-8.922,-8.9197,-8.8682,-8.7438,-8.5739,-8.3942,-8.1941,-8.0073,-7.9658,-7.9536,-7.9471,-7.949,-7.96,-9.5035,-9.5035,-9.5035,-9.5035,-9.5035,-9.5035,-9.5035,-9.5035,-9.5035,-9.5035,-9.5035,-9.5035,-9.5035,-9.5035,-9.5035,-9.5035,-9.5035,-9.5035,-9.5035,-9.5035,-9.5035,-9.5035,-9.5035,-9.5268,-9.5362,-9.5366,-9.5518,-9.5915,-9.6224,-9.6603,-9.6943,-9.6968,-9.7215,-9.7223,-9.7233,-9.7556,-9.7787,-9.8107,-9.7771,-9.7057,-9.6527,-9.6186,-9.5502,-9.4533,-9.3436,-9.3278,-9.2668,-9.1586,-9.0949,-9.0692,-8.9433,-8.9088,-8.9028,-8.8967,-8.893,-8.9,-8.901,-8.9024,-8.9052,-8.9028,-8.9041,-8.9041,-8.9041,-8.9041,-8.9041,-8.9041,-8.9041,-8.9041,-8.9041,-8.9041,-8.9041,-8.9041,-8.9041,-8.9041,-8.9041,-8.9041,-8.9041,-8.9041,-8.9041,-8.9041,-8.9041,-8.9041,-8.9041,-8.9041,-8.9041,-8.9041,-8.9041,-8.9055,-8.9055,-8.9133,-8.9146,-8.9184,-8.9146,-8.9146,-8.9195,-8.9242,-8.9242,-8.9302,-8.9438,-8.943,-8.943,-8.944,-8.943,-8.9351,-8.8879,-8.7282,-8.5682,-8.3661,-8.1868,-8.0352,-7.9658,-7.9682,-7.9658,-7.9628,-7.9764,-9.5035,-9.5035,-9.5035,-9.5035,-9.5035,-9.5035,-9.5035,-9.5035,-9.5035,-9.5035,-9.5035,-9.5035,-9.5035,-9.5035,-9.5035,-9.5035,-9.5035,-9.5071,-9.5071,-9.5105,-9.5169,-9.5297,-9.5427,-9.5618,-9.5945,-9.6195,-9.6412,-9.6567,-9.6858,-9.7189,-9.733,-9.7056,-9.7594,-9.7887,-9.7971,-9.8258,-9.8254,-9.8075,-9.7224,-9.6205,-9.5848,-9.5021,-9.3999,-9.3474,-9.2474,-9.1511,-9.1014,-9.0173,-8.9005,-8.9049,-8.8893,-8.8961,-8.8986,-8.9,-8.9,-8.9065,-8.9052,-8.9065,-8.9028,-8.9041,-8.9041,-8.9041,-8.9041,-8.9041,-8.9041,-8.9041,-8.9041,-8.9041,-8.9041,-8.9041,-8.9041,-8.9041,-8.9041,-8.9041,-8.9041,-8.9041,-8.9041,-8.9041,-8.9041,-8.9041,-8.9041,-8.9068,-8.9068,-8.9041,-8.9041,-8.9068,-8.9081,-8.9095,-8.9146,-8.9268,-8.9314,-8.932,-8.9362,-8.9415,-8.9433,-8.9417,-8.9379,-8.946,-8.9607,-8.9678,-8.959,-8.9607,-8.964,-8.959,-8.9451,-8.7623,-8.5106,-8.2579,-8.0551,-7.9809,-7.9809,-7.9836,-7.9862,-7.9837,-7.9909,-9.5035,-9.5035,-9.5035,-9.5035,-9.5035,-9.5035,-9.5035,-9.5035,-9.5035,-9.5035,-9.5035,-9.5035,-9.5035,-9.5068,-9.5102,-9.5102,-9.5102,-9.5202,-9.5366,-9.5523,-9.5649,-9.583,-9.6145,-9.6513,-9.6603,-9.6663,-9.6883,-9.7321,-9.7631,-9.7882,-9.8142,-9.8142,-9.8351,-9.8569,-9.8508,-9.8458,-9.8359,-9.7246,-9.6006,-9.4675,-9.3698,-9.2819,-9.1776,-9.0972,-9.0417,-8.996,-8.9757,-8.9471,-8.8939,-8.8954,-8.8969,-8.8981,-8.9,-8.9041,-8.9041,-8.9041,-8.9041,-8.9041,-8.9041,-8.9041,-8.9041,-8.9041,-8.9041,-8.9041,-8.9041,-8.9041,-8.9041,-8.9041,-8.9041,-8.9041,-8.9041,-8.9041,-8.9041,-8.9041,-8.9041,-8.9041,-8.9041,-8.9041,-8.9041,-8.9041,-8.9068,-8.9108,-8.9095,-8.9055,-8.9055,-8.9184,-8.9232,-8.9244,-8.9325,-8.941,-8.945,-8.9479,-8.9573,-8.9591,-8.9611,-8.9593,-8.963,-8.9661,-8.9776,-8.9776,-8.9769,-8.9724,-8.9724,-8.9762,-8.9762,-8.6998,-8.4145,-8.1566,-7.9918,-7.99,-7.9894,-7.9888,-7.9893,-7.9901,-7.991,-9.5035,-9.5035,-9.5035,-9.5035,-9.5035,-9.5035,-9.5035,-9.5035,-9.5035,-9.5035,-9.5035,-9.5235,-9.5398,-9.533,-9.5491,-9.5582,-9.5545,-9.5644,-9.5885,-9.6094,-9.6297,-9.6623,-9.6903,-9.7155,-9.7274,-9.7316,-9.7556,-9.7945,-9.8276,-9.8589,-9.8849,-9.8935,-9.8844,-9.8876,-9.8569,-9.796,-9.687,-9.5682,-9.4178,-9.3074,-9.2082,-9.1203,-9.0348,-8.9718,-8.9299,-8.9209,-8.9171,-8.8969,-8.8946,-8.899,-8.9019,-8.9047,-8.9041,-8.9041,-8.9041,-8.9041,-8.9041,-8.9041,-8.9041,-8.9041,-8.9041,-8.9041,-8.9041,-8.9041,-8.9041,-8.9041,-8.9041,-8.9041,-8.9041,-8.9041,-8.9041,-8.9041,-8.9041,-8.9041,-8.9041,-8.9041,-8.9055,-8.9068,-8.9096,-8.9109,-8.9183,-8.9207,-8.9268,-8.9244,-8.9268,-8.9331,-8.942,-8.945,-8.9489,-8.9563,-8.959,-8.9636,-8.9674,-8.9729,-8.9737,-8.972,-8.9777,-8.9814,-8.9828,-8.979,-8.9783,-8.9783,-8.9797,-8.9797,-8.9783,-8.7329,-8.363,-8.1673,-7.998,-7.9892,-7.9917,-7.9897,-7.9926,-7.9888,-7.9892,-9.5035,-9.5035,-9.5035,-9.5035,-9.5035,-9.5138,-9.5102,-9.5102,-9.5102,-9.5135,-9.5135,-9.5774,-9.5988,-9.6041,-9.6458,-9.6559,-9.6568,-9.6559,-9.672,-9.6888,-9.6966,-9.7093,-9.7321,-9.7712,-9.7887,-9.8144,-9.8351,-9.8534,-9.8822,-9.896,-9.896,-9.8975,-9.8675,-9.8299,-9.7284,-9.6058,-9.4554,-9.384,-9.2599,-9.157,-9.0955,-9.0062,-8.9446,-8.9192,-8.8976,-8.8923,-8.8923,-8.8938,-8.9005,-8.9033,-8.9024,-8.9052,-8.9041,-8.9041,-8.9041,-8.9041,-8.9041,-8.9041,-8.9041,-8.9041,-8.9041,-8.9041,-8.9041,-8.9041,-8.9041,-8.9041,-8.9041,-8.9041,-8.9041,-8.9041,-8.9041,-8.9041,-8.9041,-8.9068,-8.9068,-8.9095,-8.907,-8.9109,-8.9171,-8.923,-8.9298,-8.9331,-8.9389,-8.943,-8.944,-8.9498,-8.9525,-8.959,-8.9661,-8.9693,-8.9693,-8.9739,-8.9754,-8.9821,-8.9821,-8.9799,-8.9828,-8.9828,-8.9797,-8.9804,-8.9804,-8.9797,-8.9824,-8.9799,-8.9817,-8.7816,-8.3872,-8.1495,-8.0168,-7.9894,-7.9897,-7.9877,-7.9802,-7.9841,-7.9841,-9.5035,-9.5035,-9.5035,-9.5035,-9.5138,-9.5527,-9.5855,-9.6174,-9.6166,-9.6203,-9.6232,-9.6411,-9.655,-9.6605,-9.673,-9.681,-9.6836,-9.6877,-9.7067,-9.7525,-9.7593,-9.7819,-9.8142,-9.85,-9.8516,-9.8654,-9.886,-9.8907,-9.8787,-9.89,-9.875,-9.8412,-9.7885,-9.6998,-9.5457,-9.3953,-9.2411,-9.1998,-9.1133,-9.0104,-8.9851,-8.9512,-8.9047,-8.9019,-8.8981,-8.8921,-8.8958,-8.9024,-8.9038,-8.9038,-8.9052,-8.9028,-8.9041,-8.9041,-8.9041,-8.9041,-8.9041,-8.9041,-8.9041,-8.9041,-8.9041,-8.9041,-8.9041,-8.9041,-8.9041,-8.9041,-8.9041,-8.9041,-8.9041,-8.9041,-8.9041,-8.9041,-8.9081,-8.9184,-8.9196,-8.9256,-8.9242,-8.9314,-8.9358,-8.9324,-8.9365,-8.9432,-8.9498,-8.9572,-8.9607,-8.9623,-8.964,-8.9716,-8.9783,-8.9783,-8.9783,-8.9783,-8.9797,-8.9824,-8.9799,-8.9817,-8.9804,-8.9804,-8.9804,-8.9804,-8.9811,-8.9822,-8.9828,-8.9801,-8.9314,-8.7813,-8.4001,-8.148,-8.0356,-7.9897,-7.9879,-7.9821,-7.9746,-7.9724,-7.9746,-9.4565,-9.5035,-9.5035,-9.5264,-9.567,-9.6094,-9.6467,-9.6784,-9.681,-9.681,-9.6836,-9.7005,-9.7093,-9.7155,-9.7252,-9.7502,-9.7465,-9.7548,-9.7727,-9.8178,-9.8256,-9.8609,-9.8783,-9.8849,-9.8913,-9.896,-9.89,-9.8787,-9.8148,-9.7976,-9.7923,-9.7246,-9.5983,-9.4817,-9.3201,-9.1659,-9.0719,-9.0456,-8.978,-8.9052,-8.9061,-8.9089,-8.9052,-8.9047,-8.9052,-8.9028,-8.9028,-8.9014,-8.9028,-8.9028,-8.9028,-8.9041,-8.9041,-8.9041,-8.9041,-8.9041,-8.9041,-8.9041,-8.9041,-8.9041,-8.9041,-8.9041,-8.9041,-8.9041,-8.9041,-8.9041,-8.9041,-8.9041,-8.9041,-8.9041,-8.9068,-8.9081,-8.9146,-8.9244,-8.9276,-8.9368,-8.941,-8.944,-8.9489,-8.9479,-8.9514,-8.9623,-8.9632,-8.9701,-8.9709,-8.9724,-8.9742,-8.9811,-8.9834,-8.9822,-8.9796,-8.9796,-8.9812,-8.9817,-8.9828,-8.983,-8.9804,-8.9822,-8.9804,-8.9817,-8.9817,-8.9808,-8.9754,-8.9601,-8.883,-8.7875,-8.4618,-8.1815,-8.0638,-7.9804,-7.981,-7.977,-7.9713,-7.9682,-7.9666,-9.3627,-9.4927,-9.5032,-9.5763,-9.673,-9.6799,-9.6852,-9.7042,-9.6991,-9.7017,-9.7118,-9.7432,-9.7616,-9.7749,-9.81,-9.8293,-9.8314,-9.85,-9.8644,-9.8733,-9.875,-9.8865,-9.8945,-9.8847,-9.8772,-9.89,-9.8524,-9.7697,-9.6532,-9.6509,-9.5757,-9.4855,-9.3953,-9.29,-9.1485,-8.9869,-8.9154,-8.9116,-8.9192,-8.9028,-8.9065,-8.9028,-8.9041,-8.9052,-8.9028,-8.9041,-8.9041,-8.9041,-8.9041,-8.9041,-8.9041,-8.9041,-8.9041,-8.9041,-8.9041,-8.9041,-8.9041,-8.9041,-8.9041,-8.9041,-8.9041,-8.9041,-8.9041,-8.9041,-8.9041,-8.9041,-8.9041,-8.9041,-8.9041,-8.9041,-8.9121,-8.9234,-8.9294,-8.9325,-8.94,-8.945,-8.9498,-8.9534,-8.9586,-8.9618,-8.9731,-8.9797,-8.9797,-8.9797,-8.9804,-8.9799,-8.9822,-8.9813,-8.9829,-8.9799,-8.982,-8.9826,-8.9841,-8.9836,-8.9806,-8.9817,-8.9817,-8.9829,-8.9813,-8.9805,-8.9803,-8.9777,-8.9595,-8.9371,-8.8194,-8.6329,-8.4168,-8.2059,-8.0835,-7.9676,-7.9687,-7.9704,-7.9673,-7.966,-7.9633,-9.3233,-9.4075,-9.5275,-9.6382,-9.7313,-9.7361,-9.7608,-9.7968,-9.7968,-9.8031,-9.804,-9.814,-9.8295,-9.8426,-9.8626,-9.8698,-9.8716,-9.8821,-9.8871,-9.8919,-9.8951,-9.896,-9.8938,-9.875,-9.8186,-9.7397,-9.7133,-9.6434,-9.4893,-9.4855,-9.4291,-9.3238,-9.1847,-9.0795,-8.9756,-8.9267,-8.9079,-8.9041,-8.9041,-8.9041,-8.9041,-8.9041,-8.9041,-8.9041,-8.9041,-8.9041,-8.9041,-8.9041,-8.9041,-8.9041,-8.9041,-8.9041,-8.9041,-8.9041,-8.9041,-8.9041,-8.9041,-8.9041,-8.9041,-8.9041,-8.9041,-8.9041,-8.9041,-8.9068,-8.9041,-8.9041,-8.9081,-8.9068,-8.9068,-8.9121,-8.9336,-8.9362,-8.9412,-8.9479,-8.9531,-8.9572,-8.9603,-8.9632,-8.9697,-8.9716,-8.9766,-8.9811,-8.9817,-8.9817,-8.983,-8.9828,-8.9821,-8.9826,-8.9841,-8.9856,-8.9861,-8.9864,-8.9902,-8.9864,-8.9821,-8.9847,-8.9839,-8.9826,-8.9826,-8.9826,-8.9782,-8.9687,-8.9554,-8.8681,-8.6984,-8.4787,-8.2929,-8.1186,-8.0221,-7.9565,-7.9537,-7.9582,-7.959,-7.9576,-7.9598,-9.22,-9.3879,-9.5201,-9.6169,-9.7037,-9.7708,-9.8172,-9.8501,-9.8538,-9.8539,-9.852,-9.8538,-9.8574,-9.8646,-9.8698,-9.8733,-9.8716,-9.8871,-9.8919,-9.8935,-9.8794,-9.8524,-9.8073,-9.7697,-9.7224,-9.5945,-9.5569,-9.478,-9.3276,-9.3126,-9.29,-9.1899,-9.0207,-8.9229,-8.9041,-8.9116,-8.9041,-8.9041,-8.9041,-8.9041,-8.9041,-8.9041,-8.9041,-8.9041,-8.9041,-8.9041,-8.9041,-8.9041,-8.9041,-8.9041,-8.9041,-8.9041,-8.9041,-8.9041,-8.9041,-8.9041,-8.9041,-8.9041,-8.9041,-8.9041,-8.9041,-8.9055,-8.9134,-8.9242,-8.9276,-8.9287,-8.9223,-8.9171,-8.9195,-8.9347,-8.946,-8.951,-8.958,-8.9621,-8.9659,-8.9693,-8.9756,-8.9766,-8.9783,-8.9754,-8.9799,-8.9839,-8.9828,-8.9828,-8.9807,-8.9832,-8.9823,-8.9819,-8.9865,-8.9899,-8.9935,-8.9968,-8.9961,-8.993,-8.9933,-8.9898,-8.9863,-8.9854,-8.9801,-8.9823,-8.9799,-8.9666,-8.8881,-8.7607,-8.6168,-8.3818,-8.1814,-8.0249,-7.9591,-7.953,-7.9512,-7.948,-7.948,-7.9498,-7.9507,-9.0847,-9.4112,-9.4666,-9.5324,-9.622,-9.7697,-9.8407,-9.852,-9.852,-9.8538,-9.8538,-9.8557,-9.8576,-9.8631,-9.8719,-9.8716,-9.8591,-9.8828,-9.8913,-9.8929,-9.8719,-9.7885,-9.7148,-9.6397,-9.5569,-9.4141,-9.3878,-9.2975,-9.1772,-9.1359,-9.047,-8.9267,-8.9267,-8.9116,-8.9041,-8.9041,-8.9041,-8.9041,-8.9041,-8.9041,-8.9041,-8.9041,-8.9041,-8.9041,-8.9041,-8.9041,-8.9041,-8.9041,-8.9041,-8.9041,-8.9041,-8.9041,-8.9041,-8.9041,-8.9041,-8.9041,-8.9041,-8.9109,-8.9169,-8.9181,-8.9109,-8.9146,-8.9244,-8.9464,-8.9551,-8.96,-8.9456,-8.9243,-8.9496,-8.9618,-8.957,-8.9601,-8.9678,-8.9731,-8.9723,-8.9782,-8.9793,-8.9801,-8.9841,-8.9811,-8.9845,-8.9834,-8.9864,-8.9877,-8.9887,-8.9892,-8.9864,-8.9901,-8.9965,-8.9957,-8.9988,-8.998,-9.0006,-9.0003,-8.9971,-8.9968,-8.9902,-8.9848,-8.9766,-8.9758,-8.9647,-8.9002,-8.8354,-8.6923,-8.5016,-8.2699,-8.0616,-7.9974,-7.955,-7.9498,-7.948,-7.948,-7.948,-7.948,-7.948,-9.0281,-9.1921,-9.2092,-9.3698,-9.6015,-9.6463,-9.7379,-9.8407,-9.852,-9.852,-9.8538,-9.8557,-9.863,-9.8736,-9.8804,-9.8854,-9.8838,-9.8929,-9.896,-9.8471,-9.7848,-9.7021,-9.6096,-9.5005,-9.3802,-9.22,-9.2186,-9.1321,-9.0231,-8.9704,-8.9643,-8.9079,-8.9041,-8.9041,-8.9041,-8.9041,-8.9041,-8.9041,-8.9041,-8.9041,-8.9041,-8.9041,-8.9041,-8.9041,-8.9041,-8.9041,-8.9041,-8.9041,-8.9041,-8.9055,-8.9031,-8.9095,-8.9041,-8.9041,-8.9041,-8.9041,-8.9083,-8.9178,-8.9336,-8.9409,-8.9403,-8.9403,-8.9451,-8.9638,-8.9821,-8.9865,-8.9782,-8.9695,-8.9847,-8.9775,-8.9734,-8.975,-8.9816,-8.978,-8.9778,-8.9783,-8.9824,-8.9822,-8.986,-8.9865,-8.9863,-8.9903,-8.9903,-8.9937,-8.9932,-8.9925,-8.9955,-8.9986,-8.998,-8.9975,-9.0009,-9.0009,-8.9996,-8.9947,-8.9943,-8.9893,-8.9903,-8.9839,-8.9721,-8.9542,-8.9156,-8.8548,-8.7379,-8.5614,-8.3736,-8.1782,-8.0233,-7.9838,-7.948,-7.948,-7.948,-7.948,-7.948,-7.948,-7.948,-8.9457,-9.0144,-9.0837,-9.2276,-9.3996,-9.5454,-9.6575,-9.7491,-9.8202,-9.852,-9.8538,-9.8557,-9.8593,-9.8681,-9.8854,-9.8887,-9.8887,-9.8929,-9.8622,-9.7667,-9.6968,-9.5795,-9.4592,-9.3389,-9.2087,-9.0846,-9.032,-8.9793,-8.9455,-8.9116,-8.9041,-8.9041,-8.9041,-8.9041,-8.9041,-8.9041,-8.9041,-8.9041,-8.9041,-8.9041,-8.9041,-8.9041,-8.9041,-8.9041,-8.9041,-8.9041,-8.9068,-8.9121,-8.9171,-8.9044,-8.9238,-8.9215,-8.907,-8.9055,-8.9055,-8.9044,-8.9169,-8.9354,-8.9579,-8.9621,-8.9583,-8.9546,-8.9633,-8.976,-8.9902,-8.9965,-8.9983,-9.0003,-8.993,-8.9901,-8.9902,-8.9901,-8.9901,-8.9901,-8.9898,-8.9895,-8.9932,-8.99,-8.9901,-8.9921,-8.9934,-8.995,-8.9957,-8.9988,-8.995,-8.9983,-8.9977,-9.0012,-9.0006,-9.0003,-9.0003,-9.0,-8.9947,-8.9922,-8.9865,-8.9834,-8.9792,-8.9745,-8.9607,-8.9223,-8.8742,-8.7486,-8.5956,-8.4256,-8.2812,-8.1453,-7.9971,-7.948,-7.948,-7.948,-7.948,-7.948,-7.948,-7.948,-7.948,-8.8629,-8.8761,-9.0257,-9.1004,-9.1677,-9.4182,-9.5454,-9.5902,-9.7454,-9.8277,-9.8071,-9.8408,-9.8575,-9.8646,-9.88,-9.8854,-9.8758,-9.8575,-9.7795,-9.675,-9.5803,-9.4141,-9.2073,-9.1485,-9.0395,-8.9643,-8.9267,-8.9041,-8.9041,-8.9041,-8.9041,-8.9041,-8.9041,-8.9041,-8.9041,-8.9041,-8.9041,-8.9041,-8.9041,-8.9041,-8.9041,-8.9095,-8.9108,-8.9083,-8.9121,-8.9133,-8.9218,-8.9331,-8.9352,-8.9181,-8.9468,-8.9421,-8.9212,-8.9107,-8.9107,-8.9244,-8.9409,-8.9655,-8.9674,-8.9716,-8.9707,-8.9706,-8.9767,-8.9783,-8.99,-8.9955,-9.0006,-9.0003,-8.9968,-8.9977,-8.9983,-9.0009,-9.0006,-8.9975,-8.9945,-8.9977,-9.0009,-8.9959,-8.9955,-8.9965,-8.9965,-8.9965,-9.0003,-9.0003,-9.0003,-9.0003,-9.0003,-9.0003,-9.0003,-9.0003,-9.0003,-8.9951,-8.9935,-8.9834,-8.9792,-8.97,-8.9693,-8.9607,-8.9347,-8.8987,-8.8005,-8.6759,-8.4992,-8.3369,-8.2236,-8.0877,-7.9933,-7.948,-7.948,-7.948,-7.948,-7.948,-7.9471,-7.948,-7.9508,-8.8629,-8.8629,-8.9003,-8.992,-9.1154,-9.1939,-9.2911,-9.4182,-9.5828,-9.6593,-9.6872,-9.7845,-9.8441,-9.8623,-9.8654,-9.8742,-9.8828,-9.7464,-9.6833,-9.5841,-9.4066,-9.2487,-9.1185,-9.0357,-8.9455,-8.9041,-8.9041,-8.9041,-8.9041,-8.9041,-8.9041,-8.9041,-8.9041,-8.9041,-8.9041,-8.9041,-8.9041,-8.9041,-8.9041,-8.9041,-8.9095,-8.9195,-8.9347,-8.9358,-8.9403,-8.9493,-8.9476,-8.9542,-8.9526,-8.9526,-8.9549,-8.9644,-8.9775,-8.9827,-8.9827,-8.9834,-8.9885,-8.9933,-8.99,-8.9901,-8.9864,-8.9865,-8.9933,-8.9961,-8.9986,-8.998,-9.0003,-9.0003,-9.0003,-9.0003,-9.0003,-9.0003,-9.0003,-9.0003,-9.0003,-9.0003,-9.0003,-9.0003,-9.0003,-9.0003,-9.0003,-9.0003,-9.0003,-9.0003,-9.0003,-9.0003,-8.9981,-8.9981,-8.9935,-8.9939,-8.9935,-8.9926,-8.9845,-8.9759,-8.9656,-8.959,-8.9563,-8.9451,-8.911,-8.8277,-8.7107,-8.5823,-8.4162,-8.2387,-8.1292,-8.0537,-8.0046,-7.948,-7.948,-7.948,-7.948,-7.9461,-7.9423,-7.9423,-7.9471,-8.8629,-8.8629,-8.8629,-8.9189,-8.9995,-9.0817,-9.1677,-9.2575,-9.4144,-9.4945,-9.526,-9.5856,-9.6354,-9.6382,-9.6399,-9.6447,-9.6359,-9.563,-9.493,-9.4028,-9.2449,-9.1208,-9.0132,-8.953,-8.9116,-8.9041,-8.9041,-8.9041,-8.9041,-8.9041,-8.9041,-8.9041,-8.9041,-8.9041,-8.9041,-8.9041,-8.9041,-8.9081,-8.9171,-8.9244,-8.9218,-8.9384,-8.9514,-8.954,-8.9572,-8.9646,-8.9621,-8.9621,-8.9677,-8.9653,-8.9723,-8.9836,-8.9941,-8.9979,-8.9979,-8.9979,-8.9979,-8.9978,-9.001,-9.0003,-8.9995,-8.9991,-8.9983,-9.0009,-9.0003,-9.0003,-9.0003,-9.0003,-9.0003,-9.0003,-9.0003,-9.0003,-9.0003,-9.0003,-9.0003,-9.0003,-9.0003,-9.0003,-9.0003,-9.0003,-9.0003,-9.0003,-9.0003,-9.0003,-9.0003,-8.9985,-8.9922,-8.9903,-8.9888,-8.9883,-8.9872,-8.9805,-8.9693,-8.9607,-8.9507,-8.9479,-8.9498,-8.9214,-8.873,-8.7333,-8.6012,-8.4351,-8.2765,-8.1434,-8.0688,-7.9895,-7.9471,-7.948,-7.9499,-7.9508,-7.9433,-7.9394,-7.9374,-7.9401,-7.9422,-8.8629,-8.8629,-8.8629,-8.8629,-8.889,-9.0107,-9.0705,-9.1077,-9.2567,-9.3275,-9.3438,-9.3767,-9.4147,-9.4134,-9.3977,-9.4045,-9.4352,-9.3878,-9.305,-9.2073,-9.1133,-9.0419,-8.9455,-8.9116,-8.9079,-8.9041,-8.9041,-8.9041,-8.9041,-8.9041,-8.9041,-8.9041,-8.9041,-8.9041,-8.9041,-8.9041,-8.9055,-8.9171,-8.9302,-8.9383,-8.9441,-8.9526,-8.9601,-8.9653,-8.9698,-8.9709,-8.9718,-8.9757,-8.9803,-8.9747,-8.9923,-8.9979,-8.9979,-8.9979,-8.9979,-8.9979,-8.9979,-9.0007,-8.9995,-8.9986,-8.9986,-8.9983,-9.0012,-9.0003,-9.0003,-9.0003,-9.0003,-9.0003,-9.0003,-9.0003,-9.0003,-9.0003,-9.0003,-9.0003,-9.0003,-9.0003,-9.0003,-9.0003,-9.0003,-9.0003,-9.0003,-9.0003,-9.0003,-9.0003,-8.9981,-8.9908,-8.9877,-8.9855,-8.9759,-8.9686,-8.9693,-8.964,-8.9563,-8.947,-8.9383,-8.9383,-8.909,-8.8703,-8.7862,-8.6465,-8.4577,-8.2916,-8.1651,-8.0565,-7.9735,-7.9433,-7.9461,-7.9442,-7.9432,-7.9439,-7.9381,-7.9322,-7.9322,-7.936,-7.937,-8.8629,-8.8629,-8.8629,-8.8629,-8.8703,-8.8928,-8.9186,-8.9477,-9.0862,-9.1673,-9.2024,-9.3353,-9.3436,-9.3886,-9.3788,-9.3976,-9.3577,-9.2674,-9.1847,-9.1147,-9.0169,-8.9492,-8.9229,-8.9041,-8.9041,-8.9041,-8.9041,-8.9041,-8.9041,-8.9041,-8.9041,-8.9041,-8.9041,-8.9055,-8.9055,-8.9055,-8.9134,-8.932,-8.9412,-8.9497,-8.9572,-8.9621,-8.9693,-8.9754,-8.9827,-8.9903,-8.9903,-8.9903,-8.9941,-8.9936,-8.9978,-8.9979,-8.9979,-8.9979,-8.9979,-8.9979,-9.0003,-8.9986,-9.0012,-9.0009,-9.0006,-9.0006,-9.0003,-9.0003,-9.0003,-9.0003,-9.0003,-9.0003,-9.0003,-9.0003,-9.0003,-9.0003,-9.0003,-9.0003,-9.0003,-9.0003,-9.0003,-9.0003,-9.0003,-9.0003,-9.0003,-9.0003,-9.0003,-8.9926,-8.9898,-8.986,-8.983,-8.9776,-8.9581,-8.947,-8.9498,-8.946,-8.946,-8.943,-8.9307,-8.9269,-8.8401,-8.7787,-8.6994,-8.5181,-8.3142,-8.1991,-8.1056,-7.9884,-7.9364,-7.9353,-7.9343,-7.9381,-7.9376,-7.9335,-7.9335,-7.9321,-7.9305,-7.9316,-7.9343,-8.8629,-8.8629,-8.8629,-8.8683,-8.8733,-8.8733,-8.8782,-8.9012,-8.9718,-9.0132,-9.0379,-9.0888,-9.133,-9.1396,-9.1396,-9.1434,-9.1185,-9.0508,-9.0245,-9.0057,-8.9554,-8.9041,-8.9041,-8.9041,-8.9041,-8.9041,-8.9041,-8.9041,-8.9041,-8.9041,-8.9041,-8.9041,-8.9041,-8.9108,-8.9195,-8.9218,-8.9341,-8.9468,-8.958,-8.9647,-8.9714,-8.9757,-8.9836,-8.993,-8.9941,-8.9979,-8.9979,-8.9979,-8.9979,-8.9979,-8.9979,-8.9979,-8.9979,-8.9979,-8.9979,-9.0012,-8.9986,-9.0003,-9.0003,-9.0003,-9.0003,-9.0003,-9.0003,-9.0003,-9.0003,-9.0003,-9.0003,-9.0003,-9.0003,-9.0003,-9.0003,-9.0003,-9.0003,-9.0003,-9.0003,-9.0003,-9.0003,-9.0003,-9.0003,-9.0003,-8.9996,-8.9993,-8.988,-8.9742,-8.9678,-8.9656,-8.9615,-8.9598,-8.9383,-8.9383,-8.9383,-8.9383,-8.9383,-8.9307,-8.9231,-8.8542,-8.7673,-8.6729,-8.571,-8.3699,-8.2047,-8.1225,-8.045,-7.9939,-7.9343,-7.9311,-7.9305,-7.9305,-7.9321,-7.9301,-7.9265,-7.9289,-7.9301,-7.9251,-7.9213,-8.8629,-8.8629,-8.8683,-8.8733,-8.8798,-8.8814,-8.8862,-8.8879,-8.8976,-8.9155,-8.9108,-8.9089,-8.9178,-8.9192,-8.9328,-8.9041,-8.9304,-8.9267,-8.9041,-8.9041,-8.9041,-8.9041,-8.9041,-8.9041,-8.9041,-8.9041,-8.9041,-8.9041,-8.9041,-8.9041,-8.9041,-8.9055,-8.9121,-8.9195,-8.9362,-8.9412,-8.9502,-8.9647,-8.9732,-8.9806,-8.9834,-8.9896,-8.9979,-8.9979,-8.9979,-8.9979,-8.9979,-8.9979,-8.9979,-8.9979,-8.9979,-8.9979,-8.9979,-8.9979,-8.9979,-9.0006,-8.9983,-9.0003,-9.0003,-9.0003,-9.0003,-9.0003,-9.0003,-9.0003,-9.0003,-9.0003,-9.0003,-9.0003,-9.0003,-9.0003,-9.0003,-9.0003,-9.0003,-9.0003,-9.0003,-9.0003,-9.0003,-9.0003,-9.0003,-8.9955,-8.9931,-8.9865,-8.985,-8.9577,-8.9507,-8.944,-8.943,-8.942,-8.9383,-8.9383,-8.9383,-8.9383,-8.9307,-8.908,-8.8665,-8.7635,-8.6616,-8.5597,-8.3991,-8.2132,-8.1194,-8.035,-7.9952,-7.9602,-7.929,-7.9332,-7.9312,-7.9301,-7.9153,-7.9191,-7.9216,-7.9115,-7.9089,-7.9141,-7.909,-8.8629,-8.8629,-8.8749,-8.8782,-8.8814,-8.884,-8.8879,-8.8976,-8.9042,-8.9047,-8.9052,-8.9028,-8.9041,-8.9041,-8.9041,-8.9041,-8.9041,-8.9041,-8.9041,-8.9041,-8.9041,-8.9041,-8.9041,-8.9041,-8.9041,-8.9041,-8.9041,-8.9041,-8.9041,-8.9055,-8.9055,-8.9121,-8.9265,-8.94,-8.9469,-8.9534,-8.9659,-8.975,-8.9817,-8.9879,-8.9937,-8.9979,-8.9979,-8.9979,-8.9979,-8.9979,-8.9979,-8.9979,-8.9979,-8.9979,-8.9979,-8.9979,-8.9979,-8.9979,-8.9979,-9.0003,-8.998,-9.0003,-9.0003,-9.0003,-9.0003,-9.0003,-9.0003,-9.0003,-9.0003,-9.0003,-9.0003,-9.0003,-9.0003,-9.0003,-9.0003,-9.0003,-9.0003,-9.0003,-9.0003,-9.0003,-9.0003,-9.0003,-9.0003,-8.9996,-8.9655,-8.9488,-8.947,-8.944,-8.9383,-8.9383,-8.9383,-8.9383,-8.9383,-8.9383,-8.9383,-8.9383,-8.9194,-8.8892,-8.7711,-8.6541,-8.5295,-8.4265,-8.2509,-8.1215,-8.0275,-7.9908,-7.9486,-7.9239,-7.9165,-7.9166,-7.914,-7.9036,-7.8971,-7.893,-7.8822,-7.8815,-7.8801,-7.8793,-7.8793,-8.87,-8.8749,-8.8819,-8.8846,-8.8939,-8.8909,-8.899,-8.9024,-8.9024,-8.9052,-8.9028,-8.9041,-8.9041,-8.9041,-8.9041,-8.9041,-8.9041,-8.9041,-8.9041,-8.9041,-8.9041,-8.9041,-8.9041,-8.9041,-8.9041,-8.9041,-8.9041,-8.9041,-8.9068,-8.9171,-8.9268,-8.9276,-8.9422,-8.9557,-8.9628,-8.9704,-8.9799,-8.9903,-8.9932,-8.9935,-8.9979,-8.9979,-8.9979,-8.9979,-8.9979,-8.9979,-8.9979,-8.9979,-8.9979,-8.9979,-8.9979,-8.9979,-8.9979,-8.9979,-8.9979,-8.9986,-9.0009,-9.0003,-9.0003,-9.0003,-9.0003,-9.0003,-9.0003,-9.0003,-9.0003,-9.0003,-9.0003,-9.0003,-9.0003,-9.0003,-9.0003,-9.0003,-9.0003,-9.0,-9.0003,-8.9943,-8.9883,-8.9931,-8.9875,-8.9715,-8.9534,-8.9383,-8.942,-8.942,-8.9383,-8.9307,-8.908,-8.9118,-8.908,-8.9383,-8.9383,-8.9383,-8.9269,-8.7635,-8.6191,-8.4539,-8.3114,-8.2755,-8.1405,-8.0231,-7.9666,-7.9512,-7.9178,-7.8985,-7.8958,-7.8873,-7.8579,-7.8345,-7.8412,-7.8462,-7.8412,-7.8379,-7.8416,-7.8395,-7.8379,-8.8733,-8.8836,-8.8883,-8.8939,-8.9042,-8.9033,-8.9024,-8.9028,-8.9028,-8.9028,-8.9041,-8.9041,-8.9041,-8.9041,-8.9041,-8.9041,-8.9041,-8.9041,-8.9041,-8.9041,-8.9041,-8.9041,-8.9041,-8.9041,-8.9041,-8.9055,-8.9121,-8.9109,-8.9171,-8.9362,-8.9422,-8.9469,-8.9594,-8.9709,-8.9768,-8.9826,-8.9929,-8.9979,-8.9979,-8.9979,-8.9979,-8.9979,-8.9979,-8.9979,-8.9979,-8.9979,-8.9979,-8.9979,-8.9979,-8.9979,-8.9979,-8.9979,-8.9979,-8.9979,-9.0007,-8.9977,-9.0003,-9.0003,-9.0003,-9.0003,-9.0003,-9.0003,-9.0003,-9.0003,-9.0003,-9.0003,-9.0003,-9.0003,-9.0003,-9.0003,-9.0003,-9.0003,-9.0003,-9.0,-8.9977,-8.9898,-8.9843,-8.9817,-8.9754,-8.9489,-8.944,-8.9383,-8.9383,-8.9345,-8.8995,-8.8126,-8.7787,-8.7787,-8.7069,-8.7031,-8.605,-8.7004,-8.7145,-8.57,-8.4416,-8.2576,-8.1472,-8.1207,-8.0442,-7.9301,-7.909,-7.8998,-7.8822,-7.8673,-7.8627,-7.8499,-7.8134,-7.7852,-7.7832,-7.7966,-7.7929,-7.7986,-7.7986,-7.7986,-7.7967,-8.8798,-8.8852,-8.8969,-8.899,-8.9057,-8.9038,-8.9028,-8.9041,-8.9041,-8.9041,-8.9041,-8.9041,-8.9041,-8.9041,-8.9041,-8.9041,-8.9041,-8.9041,-8.9041,-8.9041,-8.9041,-8.9041,-8.9041,-8.9041,-8.9055,-8.9108,-8.9302,-8.9352,-8.9372,-8.9518,-8.9639,-8.9615,-8.9718,-8.981,-8.9826,-8.9896,-8.9979,-8.9979,-8.9979,-8.9979,-8.9979,-8.9979,-8.9979,-8.9979,-8.9979,-8.9979,-8.9979,-8.9979,-8.9979,-8.9979,-8.9979,-8.9979,-8.9979,-9.0011,-8.9997,-9.0006,-9.0003,-9.0003,-9.0003,-9.0003,-9.0003,-9.0003,-9.0003,-9.0003,-9.0003,-9.0003,-9.0003,-9.0003,-9.0003,-9.0003,-9.0003,-9.0003,-8.9996,-8.9993,-8.9883,-8.9824,-8.9752,-8.9598,-8.9205,-8.9176,-8.9307,-8.9383,-8.9383,-8.9156,-8.7787,-8.6125,-8.5322,-8.5171,-8.4653,-8.352,-8.2463,-8.2387,-8.2765,-8.2104,-8.2535,-8.0875,-8.0226,-7.9888,-7.9271,-7.8659,-7.8419,-7.8391,-7.8311,-7.8276,-7.8224,-7.8079,-7.785,-7.7648,-7.7544,-7.7523,-7.7544,-7.7549,-7.757,-7.757,-7.7507,-8.8899,-8.8954,-8.9013,-8.9033,-8.9038,-8.9028,-8.9041,-8.9041,-8.9041,-8.9041,-8.9041,-8.9041,-8.9041,-8.9041,-8.9041,-8.9041,-8.9041,-8.9041,-8.9041,-8.9041,-8.9041,-8.9041,-8.9041,-8.9041,-8.9121,-8.9302,-8.9441,-8.9564,-8.9534,-8.9665,-8.9761,-8.9741,-8.9877,-8.9903,-8.9934,-8.9979,-8.9979,-8.9979,-8.9979,-8.9979,-8.9979,-8.9979,-8.9979,-8.9979,-8.9979,-8.9979,-8.9979,-8.9979,-8.9979,-8.9979,-8.9979,-8.9979,-8.9979,-9.0011,-8.9993,-9.0009,-9.0003,-9.0003,-9.0003,-9.0003,-9.0003,-9.0003,-9.0003,-9.0003,-9.0003,-9.0003,-9.0003,-9.0003,-9.0003,-9.0003,-9.0003,-9.0,-8.9977,-8.9883,-8.9639,-8.964,-8.9572,-8.946,-8.8703,-8.6908,-8.6342,-8.7484,-8.8164,-8.8051,-8.5785,-8.502,-8.453,-8.4228,-8.167,-8.0292,-8.0339,-8.0301,-8.0103,-8.0206,-8.0306,-7.9784,-7.9077,-7.8663,-7.83,-7.8023,-7.7931,-7.793,-7.7967,-7.7929,-7.7832,-7.7689,-7.7495,-7.7321,-7.7254,-7.7186,-7.7163,-7.7209,-7.7276,-7.7254,-7.7254,-8.8939,-8.9042,-8.9033,-8.9038,-8.9028,-8.9041,-8.9041,-8.9041,-8.9041,-8.9041,-8.9041,-8.9041,-8.9041,-8.9041,-8.9041,-8.9041,-8.9041,-8.9041,-8.9041,-8.9041,-8.9041,-8.9041,-8.9041,-8.9041,-8.9146,-8.9393,-8.9587,-8.9671,-8.9693,-8.9772,-8.9839,-8.9881,-8.9976,-8.9979,-8.9979,-8.9979,-8.9979,-8.9979,-8.9979,-8.9979,-8.9979,-8.9979,-8.9979,-8.9979,-8.9979,-8.9979,-8.9979,-8.9979,-8.9979,-8.9979,-8.9979,-8.9979,-8.9979,-9.0011,-8.9993,-9.0006,-9.0003,-9.0003,-9.0003,-9.0003,-9.0003,-9.0003,-9.0003,-9.0003,-9.0003,-9.0003,-9.0003,-9.0003,-9.0003,-9.0003,-8.9996,-8.9981,-8.9309,-8.8308,-8.8085,-8.7713,-8.7136,-8.7494,-8.6596,-8.4421,-8.3236,-8.3775,-8.5041,-8.4718,-8.2867,-8.2558,-8.2514,-8.193,-7.9874,-7.9286,-7.9295,-7.9236,-7.9356,-7.9504,-7.9341,-7.8934,-7.8455,-7.8164,-7.7778,-7.7501,-7.7586,-7.7627,-7.7648,-7.7607,-7.7495,-7.7357,-7.7144,-7.7027,-7.7074,-7.7027,-7.705,-7.7027,-7.7016,-7.704,-7.7097,-8.9042,-8.9057,-8.9038,-8.9028,-8.9041,-8.9041,-8.9041,-8.9041,-8.9041,-8.9041,-8.9041,-8.9041,-8.9041,-8.9041,-8.9041,-8.9041,-8.9041,-8.9041,-8.9041,-8.9041,-8.9041,-8.9041,-8.9041,-8.9068,-8.9183,-8.946,-8.972,-8.9806,-8.9775,-8.9894,-8.9979,-8.9979,-8.9979,-8.9979,-8.9979,-8.9979,-8.9979,-8.9979,-8.9979,-8.9979,-8.9979,-8.9979,-8.9979,-8.9979,-8.9979,-8.9979,-8.9979,-8.9979,-8.9979,-8.9979,-8.9903,-8.9941,-8.9979,-9.0011,-8.9995,-9.0006,-8.9813,-8.9851,-8.9775,-8.962,-8.9434,-8.9434,-8.9734,-8.9434,-8.932,-8.943,-8.9468,-8.9468,-8.9734,-8.9996,-8.9985,-8.9574,-8.8233,-8.538,-8.5172,-8.47,-8.384,-8.3991,-8.4006,-8.2497,-8.0692,-7.9314,-7.9378,-7.9989,-8.0103,-7.9767,-7.9588,-7.9192,-7.8552,-7.8539,-7.8709,-7.8686,-7.8961,-7.9038,-7.8614,-7.813,-7.7893,-7.7693,-7.7343,-7.7131,-7.729,-7.7335,-7.738,-7.7357,-7.72,-7.7213,-7.7016,-7.6992,-7.6992,-7.6944,-7.6992,-7.7016,-7.6992,-7.6992,-7.6992,-8.9033,-8.9038,-8.9028,-8.9041,-8.9041,-8.9041,-8.9041,-8.9041,-8.9041,-8.9041,-8.9041,-8.9041,-8.9041,-8.9041,-8.9041,-8.9041,-8.9041,-8.9041,-8.9041,-8.9041,-8.9041,-8.9041,-8.9068,-8.9232,-8.9383,-8.955,-8.9756,-8.9872,-8.9934,-8.9978,-8.9979,-8.9979,-8.9979,-8.9979,-8.9979,-8.9979,-8.9979,-8.9979,-8.9979,-8.9979,-8.9979,-8.9979,-8.9979,-8.9979,-8.9979,-8.9979,-8.9979,-8.9979,-8.9979,-8.9827,-8.8915,-8.8802,-8.9827,-9.0011,-8.9995,-8.9741,-8.7884,-8.6594,-8.6588,-8.6585,-8.6588,-8.6588,-8.6588,-8.6588,-8.6585,-8.6588,-8.655,-8.7119,-8.8406,-8.9935,-8.9449,-8.7619,-8.5823,-8.4898,-8.453,-8.3989,-8.2755,-8.2578,-8.1828,-8.0506,-7.9227,-7.8754,-7.8822,-7.9027,-7.8976,-7.8724,-7.8501,-7.8275,-7.7894,-7.778,-7.7636,-7.8042,-7.871,-7.8693,-7.8261,-7.7696,-7.7387,-7.7321,-7.7074,-7.7027,-7.7074,-7.705,-7.7087,-7.704,-7.7016,-7.7016,-7.6992,-7.6992,-7.6944,-7.6871,-7.6871,-7.6919,-7.6968,-7.6992,-7.6944,-8.816,-8.8238,-8.8764,-8.9041,-8.9041,-8.9041,-8.9041,-8.9041,-8.9041,-8.9041,-8.9041,-8.9041,-8.9041,-8.9041,-8.9041,-8.9041,-8.9041,-8.9041,-8.9041,-8.9041,-8.9109,-8.9184,-8.9171,-8.9393,-8.9542,-8.9677,-8.975,-8.9879,-8.9979,-8.9979,-8.9979,-8.9979,-8.9979,-8.9979,-8.9979,-8.9979,-8.9979,-8.9979,-8.9979,-8.9979,-8.9979,-8.9979,-8.9979,-8.9979,-8.9409,-8.9105,-8.9067,-8.8498,-8.8194,-8.8194,-8.7169,-8.6562,-8.6486,-8.6445,-8.6892,-8.7744,-8.5575,-8.4279,-8.4767,-8.4384,-8.427,-8.4843,-8.4956,-8.507,-8.4805,-8.3818,-8.3135,-8.3401,-8.526,-8.6154,-8.568,-8.4131,-8.2765,-8.2717,-8.268,-8.2233,-8.1516,-8.098,-8.0367,-7.921,-7.868,-7.8442,-7.8503,-7.8579,-7.8558,-7.827,-7.8039,-7.7838,-7.7541,-7.7225,-7.7131,-7.7541,-7.8054,-7.8287,-7.7713,-7.7268,-7.6992,-7.6992,-7.6992,-7.6992,-7.6992,-7.6992,-7.6992,-7.6955,-7.6992,-7.6992,-7.6968,-7.6944,-7.6797,-7.6722,-7.6711,-7.6761,-7.681,-7.6761,-7.6761,-8.6584,-8.6796,-8.8163,-8.8614,-8.8778,-8.8665,-8.874,-8.8515,-8.8778,-8.8891,-8.8802,-8.8952,-8.8928,-8.8665,-8.8477,-8.874,-8.874,-8.859,-8.8552,-8.8542,-8.885,-8.9108,-8.9204,-8.9391,-8.9531,-8.9454,-8.9668,-8.9885,-8.9979,-8.9979,-8.9979,-8.9979,-8.9979,-8.9979,-8.9979,-8.9979,-8.9979,-8.9979,-8.9979,-8.9979,-8.9979,-8.9789,-8.9561,-8.9371,-8.8194,-8.7397,-8.7207,-8.584,-8.5043,-8.5005,-8.4929,-8.3448,-8.0677,-8.0411,-8.1814,-8.4196,-8.3228,-8.3021,-8.4084,-8.3132,-8.2904,-8.4232,-8.4308,-8.4577,-8.4084,-8.1883,-8.0441,-8.0062,-8.0631,-8.0528,-8.0347,-8.0338,-7.9971,-7.9857,-7.9697,-7.9686,-7.9373,-7.9502,-7.9089,-7.8651,-7.8515,-7.8402,-7.8096,-7.8134,-7.7982,-7.7746,-7.7559,-7.7437,-7.7239,-7.7071,-7.7003,-7.7087,-7.705,-7.7003,-7.704,-7.6992,-7.6992,-7.6992,-7.6992,-7.6955,-7.6992,-7.6992,-7.6955,-7.6955,-7.6955,-7.6968,-7.6907,-7.6785,-7.6611,-7.6647,-7.6611,-7.6611,-7.6661,-7.6622,-7.6647,-8.4892,-8.493,-8.5306,-8.5494,-8.5494,-8.5531,-8.5494,-8.5644,-8.681,-8.7298,-8.7449,-8.8552,-8.7749,-8.5719,-8.5494,-8.5494,-8.5494,-8.5531,-8.5494,-8.5532,-8.5671,-8.5765,-8.588,-8.7216,-8.7967,-8.8182,-8.9244,-8.9903,-8.9979,-8.9979,-8.9979,-8.9979,-8.9979,-8.9979,-8.9979,-8.9979,-8.9979,-8.9979,-8.9979,-8.9979,-8.9637,-8.7587,-8.6334,-8.6296,-8.5878,-8.565,-8.565,-8.5233,-8.4967,-8.4891,-8.3752,-8.2196,-8.0221,-8.007,-8.0487,-8.1245,-8.0894,-8.0803,-8.12,-8.0858,-8.0783,-8.12,-8.1276,-8.1276,-8.1124,-8.0441,-7.9948,-7.9907,-7.991,-7.9796,-7.964,-7.9558,-7.9489,-7.9508,-7.9401,-7.9272,-7.9053,-7.8827,-7.8636,-7.8422,-7.8425,-7.8356,-7.8153,-7.7722,-7.7424,-7.7321,-7.7186,-7.7121,-7.705,-7.7027,-7.6992,-7.6992,-7.6992,-7.6992,-7.6992,-7.6992,-7.6992,-7.6992,-7.6992,-7.6944,-7.6846,-7.6944,-7.6955,-7.6834,-7.6931,-7.6907,-7.6711,-7.6524,-7.6333,-7.6509,-7.656,-7.656,-7.6535,-7.6596,-7.6596,-8.3163,-8.3238,-8.3864,-8.4178,-8.4178,-8.4178,-8.4178,-8.4253,-8.5268,-8.5644,-8.5819,-8.6622,-8.602,-8.4215,-8.4178,-8.4178,-8.4178,-8.4178,-8.4178,-8.4203,-8.4341,-8.4422,-8.453,-8.5801,-8.6353,-8.6431,-8.7395,-8.7928,-8.7928,-8.7928,-8.7928,-8.7928,-8.7928,-8.7928,-8.7928,-8.7928,-8.7928,-8.7928,-8.7966,-8.7928,-8.7701,-8.5954,-8.4967,-8.4891,-8.4246,-8.3904,-8.3866,-8.3259,-8.2955,-8.2879,-8.2044,-8.1019,-8.0145,-8.007,-8.0031,-7.9992,-7.9911,-7.9899,-7.991,-7.9224,-7.9148,-7.9872,-7.9894,-7.9894,-7.9907,-7.9842,-7.9821,-7.9826,-7.9853,-7.9838,-7.9691,-7.9545,-7.949,-7.9422,-7.9338,-7.9165,-7.8799,-7.862,-7.8466,-7.8393,-7.8376,-7.8376,-7.8246,-7.7696,-7.7245,-7.7048,-7.7037,-7.704,-7.7016,-7.6992,-7.6992,-7.6992,-7.6992,-7.6992,-7.6992,-7.6992,-7.6992,-7.6955,-7.6907,-7.6834,-7.6675,-7.6638,-7.6625,-7.6711,-7.6736,-7.6686,-7.6458,-7.6229,-7.614,-7.6229,-7.6344,-7.6344,-7.6344,-7.6344,-7.6344,-8.0907,-8.1208,-8.2599,-8.3501,-8.3351,-8.3539,-8.3576,-8.3614,-8.3915,-8.3877,-8.3651,-8.3727,-8.3689,-8.3727,-8.3426,-8.3238,-8.3238,-8.3313,-8.3175,-8.3299,-8.3758,-8.3939,-8.3969,-8.4531,-8.4701,-8.4739,-8.5005,-8.5271,-8.5233,-8.5157,-8.5043,-8.4967,-8.4967,-8.5081,-8.5043,-8.5043,-8.5005,-8.4967,-8.4663,-8.4474,-8.4511,-8.4474,-8.4511,-8.4511,-8.2993,-8.2196,-8.2196,-8.0867,-8.0107,-8.0069,-7.9994,-7.9918,-7.9994,-7.9728,-7.9689,-7.991,-7.9905,-7.9707,-7.9344,-7.8013,-7.7782,-7.9262,-7.9455,-7.956,-7.9556,-7.9309,-7.9224,-7.9679,-7.9766,-7.9804,-7.9673,-7.928,-7.9036,-7.917,-7.9202,-7.904,-7.8651,-7.8526,-7.8449,-7.8375,-7.8376,-7.8376,-7.8302,-7.7844,-7.7387,-7.7037,-7.7016,-7.6992,-7.6992,-7.6992,-7.6992,-7.6992,-7.6992,-7.6992,-7.6992,-7.6992,-7.6992,-7.6955,-7.6737,-7.6613,-7.6487,-7.6297,-7.6113,-7.6498,-7.6549,-7.6421,-7.614,-7.6006,-7.6033,-7.6087,-7.606,-7.6033,-7.6006,-7.6033,-7.5672,-7.5895,-7.6083,-7.7749,-7.8475,-7.855,-7.9829,-8.043,-8.0506,-8.1696,-8.1508,-8.0493,-8.043,-8.0381,-8.023,-7.9002,-7.8475,-7.825,-7.7072,-7.7288,-7.849,-7.878,-7.959,-8.0915,-8.2339,-8.2993,-8.3107,-8.4322,-8.4967,-8.4967,-8.4967,-8.4967,-8.4967,-8.4967,-8.4967,-8.4967,-8.4967,-8.4967,-8.4815,-8.2461,-8.1208,-8.1171,-8.1171,-8.1171,-8.1171,-8.0791,-8.0601,-8.0639,-8.0297,-8.0031,-7.9878,-7.8777,-7.8662,-7.9721,-7.7558,-7.7333,-7.9689,-7.9938,-7.882,-7.6432,-7.5741,-7.5736,-7.6153,-7.7255,-7.7912,-7.7832,-7.6342,-7.6437,-7.9016,-7.9288,-7.9409,-7.921,-7.8025,-7.7489,-7.8827,-7.8864,-7.8479,-7.8505,-7.8419,-7.8374,-7.8375,-7.8376,-7.8264,-7.8284,-7.7864,-7.7372,-7.6964,-7.6992,-7.6992,-7.6992,-7.6992,-7.6992,-7.6992,-7.6992,-7.6882,-7.6992,-7.6992,-7.6992,-7.6992,-7.6773,-7.66,-7.6421,-7.6202,-7.6149,-7.6317,-7.6291,-7.6113,-7.6033,-7.5934,-7.5898,-7.597,-7.5826,-7.5862,-7.579,-7.5753,-7.5257,-7.4279,-7.4478,-7.6069,-7.6745,-7.6933,-7.8588,-7.9302,-7.934,-7.9415,-7.8926,-7.825,-7.9002,-7.9302,-7.9227,-7.8362,-7.7911,-7.7885,-7.7035,-7.7197,-7.8109,-7.8328,-7.8961,-7.9951,-8.0862,-8.1322,-8.1436,-8.2309,-8.2727,-8.2727,-8.2727,-8.2727,-8.2689,-8.2727,-8.2727,-8.2689,-8.2727,-8.2689,-8.2651,-8.0221,-7.8931,-7.8931,-7.8171,-7.7754,-7.7754,-7.7792,-7.745,-7.6653,-7.6615,-7.6197,-7.5397,-7.4524,-7.3723,-7.3063,-7.1355,-7.2613,-7.7365,-7.7687,-7.6232,-7.2936,-7.2703,-7.299,-7.3678,-7.4453,-7.4517,-7.3647,-7.0903,-7.0884,-7.4527,-7.4987,-7.5553,-7.7063,-7.641,-7.601,-7.6537,-7.6333,-7.616,-7.6064,-7.5891,-7.5762,-7.5744,-7.5855,-7.5892,-7.5781,-7.5497,-7.5571,-7.6795,-7.6189,-7.6189,-7.6846,-7.5751,-7.4947,-7.5605,-7.5203,-7.5349,-7.6736,-7.6992,-7.6992,-7.6992,-7.6761,-7.6585,-7.6483,-7.6212,-7.6123,-7.6149,-7.6087,-7.6006,-7.6006,-7.5284,-7.5212,-7.5428,-7.5339,-7.4528,-7.4383,-7.4032,-7.3167,-7.3865,-7.4053,-7.5993,-7.6633,-7.6557,-7.825,-7.8802,-7.8463,-7.7084,-7.6407,-7.6557,-7.7986,-7.8738,-7.8926,-7.8701,-7.8726,-7.8938,-7.8828,-7.8931,-7.9193,-7.9458,-7.9688,-7.9923,-8.0028,-8.007,-8.007,-8.0107,-8.007,-8.007,-8.0107,-8.007,-8.0145,-8.007,-8.0145,-8.007,-8.007,-7.9956,-7.9728,-7.8285,-7.7678,-7.7905,-7.6273,-7.5286,-7.5058,-7.483,-7.3919,-7.2249,-7.2173,-7.1451,-7.0082,-6.974,-6.7987,-6.4585,-6.4806,-6.7538,-7.3004,-7.3611,-7.2129,-6.8787,-6.8787,-6.9597,-7.1152,-7.1306,-6.9965,-6.7173,-6.4809,-6.5165,-6.8978,-6.9787,-7.0879,-7.3943,-7.441,-7.409,-7.3808,-7.3557,-7.3377,-7.3299,-7.3096,-7.2926,-7.2946,-7.2746,-7.2728,-7.2357,-7.2707,-7.4043,-7.5429,-7.4851,-7.4596,-7.5276,-7.3889,-7.288,-7.3574,-7.2917,-7.3378,-7.5312,-7.6517,-7.6627,-7.642,-7.5838,-7.542,-7.5166,-7.4791,-7.4805,-7.5392,-7.532,-7.5005,-7.4122,-7.3282,-7.303,-7.3304,-7.3609,-7.2862,-7.2564,-7.1112,-7.0109,-7.2185,-7.2485,-7.5505,-7.5956,-7.4842,-7.6482,-7.6407,-7.5155,-7.4805,0.0,0.0,-7.5004,-7.5907,-7.7121,-7.5756,-7.5907,-7.7107,-7.5896,-7.6142,-7.7584,-7.7748,-7.8606,-8.003,-8.0069,-8.007,-8.007,-8.007,-8.007,-8.007,-8.007,-8.007,-8.007,-8.007,-8.007,-8.007,-8.007,-7.9424,-7.8057,-7.7716,-7.8247,-7.9538,-7.7981,-7.6425,-7.5058,-7.3691,-7.2135,-7.0502,-7.0426,-7.0274,-6.9967,-6.8635,-6.5784,-6.1379,-6.3449,-6.5448,-6.6624,-6.67,-6.5221,-6.1958,-6.2947,-6.4839,-6.7445,-6.7804,-6.4735,-5.7224,-6.0926,-6.4973,-6.8312,-6.8911,-7.031,-7.3181,-7.148,-7.0854,-7.3147,-7.3238,-7.304,-7.3005,-7.2856,-7.2406,-7.2568,-7.1775,-7.0712,-6.9188,-7.1562,-7.3717,-7.3139,-7.283,-7.2721,-7.283,-7.2428,-7.1954,-7.2282,-7.199,-7.2136,-7.3232,-7.4984,-7.5727,-7.353,-7.2747,-7.2093,-7.1404,-7.1003,-7.1601,-7.32,-7.3443,-7.1896,-6.8897,-6.9358,-6.9631,-6.7873,-7.0241,-7.2524,-7.1293,-6.8401,-6.6133,-6.8001,-6.8226,-7.0729,-7.1293,0.0,-7.3173,-7.2335,-6.9317,-7.0154,-7.147,-7.3049,-7.3903,-7.4741,-7.5455,-7.4628,-7.4704,-7.5478,-7.4815,-7.5041,-7.5892,-7.6078,-7.6685,-7.7563,-7.7488,-7.7981,-7.8779,-7.7905,-7.7943,-7.874,-7.7943,-7.707,-7.6272,-7.7146,-7.7108,-7.6311,-7.707,-7.6273,-7.3729,-7.4564,-7.54,-7.6121,-7.4564,-7.3312,-7.2514,-7.1641,0.0,0.0,0.0,0.0,0.0,0.0,0.0,0.0,-5.833,-5.8088,-5.9757,-5.9909,-5.7666,-5.2901,-5.4592,-5.8093,-6.2752,-6.1584,-5.7703,-5.0962,-5.3918,-5.8192,-6.2983,-6.5191,-6.6836,-6.816,-6.6987,-6.6606,-6.7858,-6.7944,-6.791,-6.7911,-6.8423,-6.8653,-6.847,-6.8896,-6.8862,-6.7708,-6.9616,-7.096,-7.1926,-7.1494,-7.1202,-7.1808,-7.0749,-6.9691,-6.9654,-6.9654,-7.0158,-7.1709,-7.3577,-7.3733,-7.2381,-7.1658,-7.0643,-6.8568,-6.9086,-7.024,-7.1601,-7.0623,-6.9008,-6.6664,-6.7012,-6.7552,-6.6704,-6.7907,-6.9051,-6.8551,-6.6351,-6.444,-6.4806,-6.4994,-6.662,-6.7157,-6.7044,-6.9027,-6.755,-6.3979,-6.5643,-6.7899,-7.0407,-7.1798,-7.2549,-7.2861,-7.2861,-7.3,-7.3275,-7.3541,-7.3798,-7.4119,-7.4367,-7.467,-7.493,-7.4978,-7.5702,-7.6879,-7.5665,-7.5741,-7.7069,-7.5703,-7.4337,-7.3044,-7.4336,-7.4185,-7.2628,0.0,0.0,0.0,-7.1489,-7.2666,-7.2894,-7.1299,-7.0274,-6.9971,-6.9705,0.0,-6.6668,-6.6554,-6.5111,-6.2186,-6.245,0.0,-6.0056,0.0,0.0,0.0,0.0,0.0,0.0,0.0,0.0,0.0,-5.3597,-4.9373,-4.5783,-4.6446,-4.9811,-5.6237,-6.0383,-6.2894,-6.3488,-6.2648,-6.2137,-6.2454,-6.2449,-6.2342,-6.2489,-6.3692,-6.458,-6.4659,-6.5822,-6.6757,-6.7145,-6.743,-6.8553,-7.0574,-7.0107,-6.9888,-7.0924,-6.8896,-6.7312,-6.7297,-6.7494,-6.8247,-7.0469,-7.0852,-7.0865,-7.0785,-7.0631,-6.9436,-6.722,-6.799,-6.9397,-6.9959,-6.8083,-6.6305,-6.6073,-6.6073,-6.623,-6.6266,-6.6266,-6.5993,-6.5587,-6.465,-6.3893,-6.6555,-6.6706,-6.835,-6.8199,-6.6706,-6.4129,-6.2738,-6.225,-6.3941,-6.4919,-6.5294,-6.5482,-6.6422,-6.7786,-6.7834,-6.8554,-6.9837,-6.9994,-7.0796,-7.2083,-7.2379,-7.3284,-7.4643,-7.4807,-7.4988,-7.518,-7.5093,-7.5172,-7.5324,-7.5134,-7.4906,-7.4752,-7.4905,-7.4183,-7.2399,-6.8298,-6.6742,-6.7805,-7.092,-7.3235,-7.4672,-7.3045,-7.1489,-7.0007,-6.8566,-6.6364,-6.3403,-6.3213,-6.234,-6.0517,-6.0477,-6.0362,-6.0061,-5.9133,-5.6231,0.0,-4.7852,0.0,0.0,0.0,0.0,0.0,0.0,0.0,0.0,-4.0237,-4.3078,-4.9674,-5.5754,-6.0495,-6.3287,-5.955,-5.8012,-6.0569,-6.0849,-6.0858,-6.1076,-6.2061,-6.3757,-6.6514,-6.46,-6.4218,-6.6624,-6.7266,-6.7323,-6.7902,-6.7625,-6.7212,-6.7599,-6.7024,-6.6725,-6.726,-6.7154,-6.7191,-6.7662,-6.7503,-6.7386,-6.7267,-6.7293,-6.6715,-6.6208,-6.6399,-6.6625,-6.6632,-6.6381,-6.5962,-6.5819,-6.5932,-6.5962,-6.5858,-6.5722,-6.5175,-6.3814,-6.3058,-6.2986,-6.2758,-6.2833,-6.3575,-6.3462,-6.2645,-6.1169,-6.0492,-6.0633,-6.2212,-6.2926,-6.3001,-6.3941,-6.4796,-6.5462,-6.5462,-6.5817,-6.6493,-6.6629,-6.7102,-6.7722,-6.7858,-6.8333,-6.912,-6.918,-6.9751,-7.0684,-6.9818,-6.9895,-7.0729,-6.9895,-6.8945,-6.807,-6.8945,-6.8147,-6.564,-6.3359,-6.3057,-6.4769,-6.7083,-6.9586,-7.205,-7.1487,-7.0729,-6.9968,-6.8337,-6.6781,-6.5339,-6.439,-6.3137,-6.1542,-6.0593,-6.0099,-6.0024,-5.6479,-5.1366,0.0,0.0,0.0,0.0,0.0,0.0,0.0,0.0,0.0,0.0,0.0,-3.686,-3.7736,-4.7117,-5.4369,-5.7568,-5.4874,-5.3128,-5.3578,-5.3507,-5.401,-5.5436,-5.7207,-5.9211,-6.1676,-6.0559,-6.0212,-6.1822,-6.5054,-6.7281,-6.7245,-6.3896,-6.1714,-6.2435,-6.1548,-6.239,-6.6427,-6.7046,-6.6921,-6.6868,-6.665,-6.651,-6.645,-6.61,-6.5686,-6.5503,-6.5192,-6.5064,-6.5072,-6.5016,-6.4869,-6.4642,-6.4562,-6.4792,-6.5024,-6.3692,-6.1672,-6.0686,-6.0813,-6.1058,-5.9421,-5.9308,-5.8143,-5.7681,-5.7728,-5.7681,-5.7898,-5.8387,-5.9534,-6.006,-6.0069,-6.099,-6.1384,-6.1374,-6.0971,-6.1036,-6.1392,-6.1858,-6.2486,-6.3237,-6.3704,-6.4151,-6.4586,-6.4669,-6.5451,-6.6659,-6.5528,-6.5604,-6.6705,-6.5149,-6.3668,-6.2413,-6.2111,-6.0745,-5.8388,-5.8688,-5.9905,-6.1998,-6.3548,-6.5973,-6.9242,-6.9396,-6.9359,-6.9396,-6.7727,-6.6666,-6.625,-6.4997,-6.3402,-6.1504,-6.0555,-5.9302,-5.767,-4.9765,0.0,0.0,0.0,0.0,0.0,0.0,0.0,0.0,0.0,-2.7641,-2.6169,0.0,-2.9911,0.0,-4.0347,-4.9423,-5.179,-4.9727,0.0,0.0,-4.6872,-4.6949,-4.8004,-5.1103,-5.4297,-5.7224,-5.5405,-5.426,-5.524,-6.1562,-6.5754,-6.4838,-6.0038,-5.6366,-5.5835,-5.5494,-5.8332,-6.5292,-6.6877,-6.6221,-6.4579,-6.4478,-6.4567,-6.4987,-6.437,-6.3877,-6.3594,-6.3219,-6.3051,-6.3214,-6.3033,-6.2733,-6.2264,-6.2274,-6.2673,-6.3184,-6.0721,-5.8005,-5.8005,-5.8562,-5.9029,-5.9099,-5.8735,-5.4333,-5.2591,-5.2675,-5.2538,-5.3387,-5.4815,-5.496,-5.4998,-5.4928,-5.3536,-5.2897,-5.2806,-5.1378,0.0,-5.2928,-5.4391,-5.6678,-5.9606,-6.1283,-6.2819,-6.4202,-6.4498,-6.482,-6.4909,-6.4907,-6.4997,-6.4997,-6.3516,-6.2643,-6.2261,-5.6455,-5.3341,-5.3187,-5.4629,-5.7021,-6.0173,-6.1833,-6.4224,-6.7576,-6.7648,-6.7643,-6.7597,-6.6011,-6.4383,-6.2903,-6.2675,-6.1157,-5.8198,-5.9297,-5.7211,-5.0836,0.0,0.0,0.0,0.0,0.0,0.0,0.0,0.0,0.0,0.0,0.0,0.0,0.0,0.0,-2.4103,-3.8863,0.0,-4.8437,-4.4314,0.0,0.0,0.0,-4.1764,-3.9237,-4.4236,-5.0243,-5.646,0.0,0.0,-4.8088,-5.6673,-6.1467,-5.8344,-5.6883,-5.3622,-4.6957,-5.1351,-5.7864,-6.5298,-6.6551,-6.4216,-5.9078,-5.8861,-5.9948,-6.0867,-6.0378,-6.0005,-5.9844,-5.9765,-5.973,-5.9811,-5.9695,-5.9318,-5.8054,-5.8639,-5.9254,-5.8245,-5.7456,-5.6986,-5.6953,-5.7052,-5.7217,-5.3731,-4.9932,-4.8243,-4.7578,-4.752,-4.7461,-4.7845,-4.8439,-4.8453,-4.8453,-4.8356,-4.7754,-4.7454,-4.7394,-4.6793,0.0,0.0,0.0,-5.1093,-5.3312,-5.5035,-5.6746,-5.8409,-5.9627,-6.0253,-6.0377,-6.0439,-6.0479,-6.0403,-5.8809,-5.5468,-5.0494,0.0,-4.6963,-4.7988,-5.1632,-5.4632,-5.7024,-6.058,-6.3046,-6.4387,-6.5399,-6.592,-6.5886,-6.4295,-6.3085,-6.2408,-6.051,-5.7929,-5.4667,-5.4172,-4.9048,0.0,0.0,0.0,0.0,0.0,0.0,0.0,0.0,0.0,0.0,0.0,-1.984,-1.9634,0.0,0.0,0.0,-3.031,-3.7943,-4.1776,-3.9353,0.0,0.0,0.0,0.0,0.0,0.0,0.0,-4.5303,-4.1944,-4.1414,-4.694,-5.2611,-5.4753,-5.0873,-5.0343,-4.9805,-4.8169,0.0,-5.2652,-5.9206,-6.0077,-5.9424,-5.781,-5.7278,-5.7229,-5.7691,-5.7665,-5.755,-5.7452,-5.7764,-5.7969,-5.7907,-5.7876,-5.7142,-5.485,-5.3383,-5.2818,-5.4082,-5.3624,-5.3327,-5.4125,-5.4988,-5.5553,-4.5931,0.0,0.0,0.0,0.0,-4.1005,-4.1249,-4.1699,-4.1686,-4.1648,-4.1655,-4.1147,0.0,0.0,0.0,0.0,0.0,0.0,-4.5464,-4.6695,-5.0266,-5.2372,-5.3242,-5.4959,-5.5833,-5.5996,-5.5088,-5.4671,-5.4481,-5.1026,-4.6014,-3.9787,0.0,0.0,0.0,0.0,-5.1367,-5.3721,-5.8457,-6.1452,-6.2408,-6.3567,-6.4239,-6.421,-6.2576,-6.1443,-6.0998,-5.7809,-5.4282,-5.0413,-4.6427,0.0,0.0,0.0,0.0,0.0,0.0,0.0,0.0,0.0,0.0,0.0,0.0,0.0,0.0,0.0,0.0,0.0,0.0,0.0,-3.4867,-3.3686,-3.2267,0.0,0.0,0.0,0.0,0.0,0.0,0.0,0.0,0.0,-4.6395,-4.9451,-4.9588,0.0,0.0,-4.8207,-4.9746,-4.9114,-4.9554,-5.2527,-5.3457,0.0,-5.4432,-5.3946,-5.3638,-5.3997,-5.4583,-5.4799,-5.4043,-5.3952,-5.3817,-5.316,-5.3493,-5.2365,-4.8366,-4.6402,-4.7227,-5.0057,-4.9403,-4.8421,-4.9346,-5.0461,-5.1348,0.0,0.0,0.0,0.0,-3.2675,0.0,0.0,0.0,-3.4926,-3.4894,0.0,-3.3235,0.0,0.0,0.0,0.0,-3.2807,-3.7474,0.0,0.0,-4.7923,-5.1107,-4.9805,-5.147,-5.2443,-5.2276,-4.9275,-4.7723,-4.7191,-3.9557,-3.4619,0.0,0.0,0.0,0.0,0.0,-4.6774,-5.0188,-5.5196,-5.9252,-6.2203,-6.2422,-6.2456,-6.238,-6.0822,-5.919,-5.7639,-5.434,-5.0283,-4.5244,-3.5908,0.0,0.0,0.0,0.0,0.0,0.0,0.0,0.0,0.0,0.0,0.0,0.0,0.0,0.0,0.0,0.0,0.0,0.0,0.0,0.0,-2.6889,0.0,0.0,0.0,0.0,0.0,0.0,0.0,0.0,0.0,-3.5041,-4.518,-4.7061,-4.7021,-4.6013,0.0,0.0,0.0,0.0,-5.0257,-4.6889,-4.7902,-4.8383,-4.6089,-4.6896,-4.8152,-4.9198,0.0,0.0,-4.8832,-4.7473,-4.621,-4.4336,-4.5558,-4.4004,-3.6521,-3.7953,-4.1868,-4.6574,-4.4815,-4.2599,-4.2567,-4.3273,-4.4011,0.0,0.0,0.0,0.0,0.0,0.0,0.0,0.0,0.0,-2.8124,-2.81,-2.7514,0.0,0.0,0.0,0.0,0.0,0.0,0.0,0.0,-3.8371,-4.1028,-4.1694,-4.4422,-4.5741,-4.571,-4.3543,-3.9665,0.0,0.0,0.0,0.0,0.0,0.0,0.0,0.0,-4.4989,-4.8403,-5.4393,-5.8069,-5.9166,-5.9197,-5.923,-5.923,-5.7597,-5.5394,-5.266,-4.8377,-4.3678,0.0,0.0,0.0,0.0,0.0,0.0,0.0,0.0,0.0,0.0,0.0,0.0,0.0,0.0,0.0,0.0,0.0,0.0,0.0,0.0,0.0,0.0,0.0,-2.38,0.0,0.0,0.0,0.0,0.0,0.0,0.0,0.0,0.0,-3.2277,-3.8798,-4.362,-4.5183,-4.627,-4.7008,-4.7271,0.0,0.0,0.0,0.0,0.0,0.0,0.0,-4.6311,-4.4844,-4.4764,-4.4609,-4.3891,-4.4056,-4.3668,-4.2065,0.0,0.0,-2.9411,-3.1758,-3.7004,-4.2399,-3.9566,-3.6767,-3.8553,-3.8331,-3.8525,0.0,0.0,0.0,0.0,0.0,0.0,0.0,0.0,0.0,-2.0764,-2.0797,0.0,0.0,0.0,0.0,0.0,0.0,0.0,0.0,0.0,0.0,0.0,-3.4878,-3.7583,0.0,0.0,0.0,0.0,0.0,0.0,0.0,0.0,0.0,0.0,0.0,0.0,-4.1686,-4.5098,-5.2151,-5.613,-5.6696,-5.7791,-5.8092,-5.7561,-5.6458,-5.4256,-5.0873,0.0,0.0,0.0,0.0,0.0,0.0,0.0,0.0,0.0,0.0,0.0,0.0,0.0,0.0,0.0,0.0,0.0,0.0,0.0,0.0,0.0,0.0,0.0,0.0,0.0,-2.1816,0.0,0.0,0.0,0.0,0.0,0.0,0.0,0.0,0.0,0.0,-3.1849,-3.9204,-4.1123,-4.2392,-4.3552,-4.4681,-4.655,-4.8001,0.0,0.0,0.0,0.0,0.0,0.0,0.0,0.0,0.0,0.0,0.0,0.0,0.0,-3.5464,-3.1823,-2.3505,-2.5709,-3.0394,-3.5344,0.0,0.0,0.0,0.0,0.0,0.0,0.0,0.0,0.0,0.0,0.0,0.0,0.0,0.0,0.0,-1.3123,0.0,0.0,-1.3333,0.0,0.0,0.0,0.0,0.0,0.0,0.0,0.0,0.0,0.0,0.0,0.0,0.0,0.0,0.0,0.0,0.0,0.0,0.0,0.0,0.0,0.0,-3.6713,-4.0157,-4.8429,-5.3357,-5.4979,-5.8126,-5.896,-5.7293,-5.7293,-5.5657,-5.2156,0.0,0.0,0.0,0.0,0.0,0.0,0.0,0.0,0.0,0.0,0.0,0.0,0.0,0.0,0.0,0.0,0.0,0.0,0.0,0.0,0.0,0.0,0.0,0.0,0.0,0.0,-1.7089,-1.7736,-1.8501,0.0,0.0,0.0,0.0,0.0,0.0,0.0,0.0,0.0,-3.3834,-3.6708,-3.9694,-4.1948,-4.3258,-4.5129,-4.8115,-4.8603,-4.7523,-4.4303,-4.4908,-4.4692,0.0,0.0,0.0,0.0,0.0,0.0,0.0,0.0,0.0,0.0,0.0,0.0,0.0,0.0,0.0,0.0,0.0,0.0,0.0,0.0,0.0,0.0,0.0,0.0,0.0,0.0,0.0,0.0,0.0,0.0,0.0,0.0,0.0,0.0,0.0,0.0,0.0,0.0,0.0,0.0,0.0,0.0,0.0,0.0,0.0,0.0,0.0,0.0,0.0,0.0,0.0,0.0,0.0,0.0,-3.5455,-4.0042,-4.8235,-5.2708,-5.3235,-5.6431,-5.6229,-5.237,-5.0909,-4.8635,-4.5346,0.0,0.0,0.0,0.0,0.0,0.0,0.0,0.0,0.0,0.0,0.0,0.0,0.0,0.0,0.0,0.0,0.0,0.0,0.0,0.0,0.0,0.0,0.0,0.0,0.0,0.0,0.0,-1.7878,-1.8028,-1.7267,0.0,0.0,0.0,0.0,0.0,0.0,0.0,0.0,0.0,0.0,-3.5141,-3.2493,-3.9532,-4.5866,-4.7982,-4.9762,-4.8995,-4.3502,-4.2917,-4.179,-3.7835,0.0,0.0,0.0,0.0,0.0,0.0,0.0,0.0,0.0,0.0,0.0,0.0,0.0,0.0,0.0,0.0,0.0,0.0,0.0,0.0,0.0,0.0,0.0,0.0,0.0,0.0,0.0,0.0,0.0,0.0,0.0,0.0,0.0,0.0,0.0,0.0,0.0,0.0,0.0,0.0,0.0,0.0,0.0,0.0,0.0,0.0,0.0,0.0,0.0,0.0,0.0,0.0,0.0,-3.3633,-3.8139,-4.6931,-5.1814,-5.2519,-5.6236,-5.6153,-5.1678,-4.922,-4.5762,0.0,0.0,0.0,0.0,0.0,0.0,0.0,0.0,0.0,0.0,0.0,0.0,0.0,0.0,0.0,0.0,0.0,0.0,0.0,0.0,0.0,0.0,0.0,0.0,0.0,0.0,0.0,0.0,-1.577,-1.6396,-1.6683,0.0,0.0,0.0,0.0,0.0,0.0,0.0,0.0,0.0,0.0,-2.9793,-2.8535,-3.4386,0.0,0.0,-4.6811,-4.6311,-4.1103,-4.0739,-3.9182,-3.3646,-3.1939,0.0,0.0,0.0,0.0,0.0,0.0,0.0,0.0,0.0,0.0,0.0,0.0,0.0,0.0,0.0,0.0,0.0,0.0,0.0,0.0,0.0,0.0,0.0,0.0,0.0,0.0,0.0,0.0,0.0,0.0,0.0,0.0,0.0,0.0,0.0,0.0,0.0,0.0,0.0,0.0,0.0,0.0,0.0,0.0,0.0,0.0,0.0,0.0,0.0,0.0,0.0,0.0,-3.1511,-3.5167,-4.4857,-5.0662,-5.216,-5.6909,-5.7543,-5.3638,-5.0453,-4.5498,0.0,0.0,0.0,0.0,0.0,0.0,0.0,0.0,0.0,0.0,0.0,0.0,0.0,0.0,0.0,0.0,0.0,0.0,0.0,0.0,0.0,0.0,0.0,0.0,0.0,0.0,0.0,0.0,0.0,0.0,0.0,0.0,0.0,0.0,0.0,0.0,0.0,0.0,0.0,0.0,0.0,-2.4046,-2.8326,-2.8518,-3.0831,0.0,-4.0637,-4.0557,-3.7109,-3.7892,-3.6435,-2.9026,0.0,0.0,0.0,0.0,0.0,0.0,0.0,0.0,0.0,0.0,0.0,0.0,0.0,0.0,0.0,0.0,0.0,0.0,0.0,0.0,0.0,0.0,0.0,0.0,0.0,0.0,0.0,0.0,0.0,0.0,0.0,0.0,0.0,0.0,0.0,0.0,0.0,0.0,0.0,0.0,0.0,0.0,0.0,0.0,0.0,0.0,0.0,0.0,0.0,0.0,0.0,0.0,0.0,0.0,-3.495,-4.4748,-4.9856,-5.0088,-5.4676,-5.3716,-4.6465,-4.4018,0.0,0.0,0.0,0.0,0.0,0.0,0.0,0.0,0.0,0.0,0.0,0.0,0.0,0.0,0.0,0.0,0.0,0.0,0.0,0.0,0.0,0.0,0.0,0.0,0.0,0.0,0.0,-1.0166,0.0,0.0,0.0,0.0,0.0,0.0,0.0,0.0,0.0,0.0,0.0,0.0,0.0,0.0,-2.1469,-2.0914,-2.6204,-3.0746,0.0,0.0,-3.5635,-3.019,-3.0785,-3.0187,0.0,0.0,0.0,0.0,0.0,0.0,0.0,0.0,0.0,0.0,0.0,0.0,0.0,0.0,0.0,0.0,0.0,0.0,0.0,0.0,0.0,0.0,0.0,0.0,0.0,0.0,0.0,0.0,0.0,0.0,0.0,0.0,0.0,0.0,0.0,0.0,0.0,0.0,0.0,0.0,0.0,0.0,0.0,0.0,0.0,0.0,0.0,0.0,0.0,0.0,0.0,0.0,0.0,0.0,-2.979,-3.4105,-4.1825,-4.7122,-4.9793,-5.2228,-5.1075,-4.6125,-4.2102,-3.734,0.0,0.0,0.0,0.0,0.0,0.0,0.0,0.0,0.0,0.0,0.0,0.0,0.0,0.0,0.0,0.0,0.0,0.0,0.0,0.0,0.0,0.0,0.0,0.0,0.0,0.0,0.0,0.0,0.0,0.0,0.0,0.0,0.0,0.0,0.0,0.0,0.0,0.0,0.0,0.0,0.0,0.0,-1.7939,-2.2119,0.0,0.0,0.0,-3.043,-2.706,0.0,0.0,0.0,0.0,0.0,0.0,0.0,0.0,0.0,0.0,0.0,0.0,0.0,0.0,0.0,0.0,0.0,0.0,0.0,0.0,0.0,0.0,0.0,0.0,0.0,0.0,0.0,0.0,0.0,0.0,0.0,0.0,0.0,0.0,0.0,0.0,0.0,0.0,0.0,0.0,0.0,0.0,0.0,0.0,0.0,0.0,0.0,0.0,0.0,0.0,0.0,0.0,0.0,0.0,0.0,0.0,0.0,-3.2557,-3.7836,-4.3587,-4.954,-4.9368,-4.8889,-4.8367,-4.223,-3.6561,0.0,0.0,0.0,0.0,0.0,0.0,0.0,0.0,0.0,0.0,0.0,0.0,0.0,0.0,0.0,0.0,0.0,0.0,0.0,0.0,0.0,0.0,0.0,0.0,0.0,0.0,0.0,0.0,0.0,0.0,0.0,0.0,0.0,0.0,0.0,0.0,0.0,0.0,0.0,0.0,0.0,-1.4968,-1.7014,-1.7367,-1.8314,0.0,0.0,-2.6251,-2.5273,-2.3532,0.0,0.0,0.0,0.0,0.0,0.0,0.0,0.0,0.0,0.0,0.0,0.0,0.0,0.0,0.0,0.0,0.0,0.0,0.0,0.0,0.0,0.0,0.0,0.0,0.0,0.0,0.0,0.0,0.0,0.0,0.0,0.0,0.0,0.0,0.0,0.0,0.0,0.0,0.0,0.0,0.0,0.0,0.0,0.0,0.0,0.0,0.0,0.0,0.0,0.0,0.0,0.0,0.0,0.0,0.0,0.0,-3.0055,-3.6572,-4.1698,-4.4947,-4.5004,-4.4695,-4.398,-3.9231,-3.4443,0.0,0.0,0.0,0.0,0.0,0.0,0.0,0.0,0.0,0.0,0.0,0.0,0.0,0.0,0.0,0.0,0.0,0.0,0.0,0.0,0.0,0.0,0.0,0.0,0.0,0.0,0.0,0.0,0.0,0.0,0.0,0.0,0.0,0.0,0.0,0.0,0.0,0.0,0.0,0.0,0.0,-1.3307,-1.3784,-1.4221,0.0,0.0,0.0,0.0,-1.899,-1.8577,0.0,0.0,0.0,0.0,0.0,0.0,0.0,0.0,0.0,0.0,0.0,0.0,0.0,0.0,0.0,0.0,0.0,0.0,0.0,0.0,0.0,0.0,0.0,0.0,0.0,0.0,0.0,0.0,0.0,0.0,0.0,0.0,0.0,0.0,0.0,0.0,0.0,0.0,0.0,0.0,0.0,0.0,0.0,0.0,0.0,0.0,0.0,0.0,0.0,0.0,0.0,0.0,0.0,0.0,0.0,0.0,-2.8487,-3.2311,-3.7062,-4.2598,-4.1153,-4.07,-4.1403,-3.7034,-3.2513,0.0,0.0,0.0,0.0,0.0,0.0,0.0,0.0,0.0,0.0,0.0,0.0,0.0,0.0,0.0,0.0,0.0,0.0,0.0,0.0,0.0,0.0,0.0,0.0,0.0,0.0,0.0,0.0,0.0,0.0,0.0,0.0,0.0,0.0,0.0,0.0,0.0,0.0,0.0,0.0,-1.1388,-1.1588,-1.2727,0.0,0.0,0.0,0.0,0.0,0.0,-1.5854,-1.5199,0.0,0.0,0.0,0.0,0.0,0.0,0.0,0.0,0.0,0.0,0.0,0.0,0.0,0.0,0.0,0.0,0.0,0.0,0.0,0.0,0.0,0.0,0.0,0.0,0.0,0.0,0.0,0.0,0.0,0.0,0.0,0.0,0.0,0.0,0.0,0.0,0.0,0.0,0.0,0.0,0.0,0.0,0.0,0.0,0.0,0.0,0.0,0.0,0.0,0.0,0.0,0.0,0.0,0.0,0.0,-2.6826,-2.7634,-3.209,-4.0262,-3.7524,-3.7083,-3.9183,-3.4887,-3.0441,-2.6339,0.0,0.0,0.0,0.0,0.0,0.0,0.0,0.0,0.0,0.0,0.0,0.0,0.0,0.0,0.0,0.0,0.0,0.0,0.0,0.0,0.0,0.0,0.0,0.0,0.0,0.0,0.0,0.0,0.0,0.0,0.0,0.0,0.0,0.0,0.0,0.0,0.0,0.0,0.0,-1.0088,-0.994,0.0,0.0,0.0,0.0,0.0,0.0,0.0,0.0,-1.3049,0.0,0.0,0.0,0.0,0.0,0.0,0.0,0.0,0.0,0.0,0.0,0.0,0.0,0.0,0.0,0.0,0.0,0.0,0.0,0.0,0.0,0.0,0.0,0.0,0.0,0.0,0.0,0.0,0.0,0.0,0.0,0.0,0.0,0.0,0.0,0.0,0.0,0.0,0.0,0.0,0.0,0.0,0.0,0.0,0.0,0.0,0.0,0.0,0.0,0.0,0.0,0.0,0.0,0.0,0.0,0.0,-2.5633,-2.96,-3.43,-3.3942,-3.4393,-3.5992,-3.199,-2.7813,-2.3666,0.0,0.0,0.0,0.0,0.0,0.0,0.0,0.0,0.0,0.0,0.0,0.0,0.0,0.0,0.0,0.0,0.0,0.0,0.0,0.0,0.0,0.0,0.0,0.0,0.0,0.0,0.0,0.0,0.0,0.0,0.0,0.0,0.0,0.0,0.0,0.0,0.0,0.0,-0.8467,-0.8436,0.0,0.0,0.0,0.0,0.0,0.0,0.0,0.0,-1.2834,0.0,0.0,0.0,0.0,0.0,0.0,0.0,0.0,0.0,0.0,0.0,0.0,0.0,0.0,0.0,0.0,0.0,0.0,0.0,0.0,0.0,0.0,0.0,0.0,0.0,0.0,0.0,0.0,0.0,0.0,0.0,0.0,0.0,0.0,0.0,0.0,0.0,0.0,0.0,0.0,0.0,0.0,0.0,0.0,0.0,0.0,0.0,0.0,0.0,0.0,0.0,0.0,0.0,0.0,0.0,0.0,0.0,0.0,-2.6932,-3.2251,-3.1792,-3.226,-3.3863,-2.8795,-2.4648,0.0,0.0,0.0,0.0,0.0,0.0,0.0,0.0,0.0,0.0,0.0,0.0,0.0,0.0,0.0,0.0,0.0,0.0,0.0,0.0,0.0,0.0,0.0,0.0,0.0,0.0,0.0,0.0,0.0,0.0,0.0,0.0,0.0,0.0,0.0,0.0,0.0,0.0,0.0,0.0,0.0,0.0,0.0,0.0,0.0,0.0,0.0,0.0,0.0,0.0,0.0,0.0,0.0,0.0,0.0,0.0,0.0,0.0,0.0,0.0,0.0,0.0,0.0,0.0,0.0,0.0,0.0,0.0,0.0,0.0,0.0,0.0,0.0,0.0,0.0,0.0,0.0,0.0,0.0,0.0,0.0,0.0,0.0,0.0,0.0,0.0,0.0,0.0,0.0,0.0,0.0,0.0,0.0,0.0,0.0,0.0,0.0,0.0,0.0,0.0,0.0,0.0,0.0,0.0,0.0,0.0,0.0,0.0,-2.4757,-3.0281,-3.0206,-3.0699,-3.2015,-2.5932,-2.1889,0.0,0.0,0.0,0.0,0.0,0.0,0.0,0.0,0.0,0.0,0.0,0.0,0.0,0.0,0.0,0.0,0.0,0.0,0.0,0.0,0.0,0.0,0.0,0.0,0.0,0.0,0.0,0.0,0.0,0.0,0.0,0.0,0.0,0.0,0.0,0.0,0.0,0.0,0.0,0.0,0.0,0.0,0.0,0.0,0.0,0.0,0.0,0.0,-0.9097,0.0,0.0,0.0,0.0,0.0,0.0,0.0,0.0,0.0,0.0,0.0,0.0,0.0,0.0,0.0,0.0,0.0,0.0,0.0,0.0,0.0,0.0,0.0,0.0,0.0,0.0,0.0,0.0,0.0,0.0,0.0,0.0,0.0,0.0,0.0,0.0,0.0,0.0,0.0,0.0,0.0,0.0,0.0,0.0,0.0,0.0,0.0,0.0,0.0,0.0,0.0,0.0,0.0,0.0,0.0,0.0,0.0,0.0,0.0,-2.3854,-2.596,-2.8882,-3.0009,-2.8938,-2.3735,-2.0286,0.0,0.0,0.0,0.0,0.0,0.0,0.0,0.0,0.0,0.0,0.0,0.0,0.0,0.0,0.0,0.0,0.0,0.0,0.0,0.0,0.0,0.0,0.0,0.0,0.0,0.0,0.0,0.0,0.0,0.0,0.0,0.0,0.0,0.0,0.0,0.0,0.0,0.0,0.0,0.0,0.0,0.0,0.0,0.0,0.0,0.0,0.0,0.0,0.0,0.0,0.0,0.0,0.0,0.0,0.0,0.0,0.0,0.0,0.0,0.0,0.0,0.0,0.0,0.0,0.0,0.0,0.0,0.0,0.0,0.0,0.0,0.0,0.0,0.0,0.0,0.0,0.0,0.0,0.0,0.0,0.0,0.0,0.0,0.0,0.0,0.0,0.0,0.0,0.0,0.0,0.0,0.0,0.0,0.0,0.0,0.0,0.0,0.0,0.0,0.0,0.0,0.0,0.0,0.0,0.0,0.0,0.0,0.0,-2.0728,-2.3883,-2.5285,-2.5602,-2.4771,-2.1175,-1.9063,0.0,0.0,0.0,0.0,0.0,0.0,0.0,0.0,0.0,0.0,0.0,0.0,0.0,0.0,0.0,0.0,0.0,0.0,0.0,0.0,0.0,0.0,0.0,0.0,0.0,0.0,0.0,0.0,0.0,0.0,0.0,0.0,0.0,0.0,0.0,0.0,0.0,0.0,0.0,0.0,0.0,0.0,0.0,0.0,0.0,0.0,0.0,0.0,0.0,0.0,0.0,0.0,0.0,0.0,0.0,0.0,0.0,0.0,0.0,0.0,0.0,0.0,0.0,0.0,0.0,0.0,0.0,0.0,0.0,0.0,0.0,0.0,0.0,0.0,0.0,0.0,0.0,0.0,0.0,0.0,0.0,0.0,0.0,0.0,0.0,0.0,0.0,0.0,0.0,0.0,0.0,0.0,0.0,0.0,0.0,0.0,0.0,0.0,0.0,0.0,0.0,0.0,0.0,0.0,0.0,0.0,0.0,0.0,0.0,-2.1692,-2.1378,-2.0952,-2.0588,-1.8799,-1.7767,0.0,0.0,0.0,0.0,0.0,0.0,0.0,0.0,0.0,0.0,0.0,0.0,0.0,0.0,0.0,0.0,0.0,0.0,0.0,0.0,0.0,0.0,0.0,0.0,0.0,0.0,0.0,0.0,0.0,0.0,0.0,0.0,0.0,0.0,0.0,0.0,0.0,0.0,0.0,0.0,0.0,0.0,0.0,0.0,0.0,0.0,0.0,0.0,0.0,0.0,0.0,0.0,0.0,0.0,0.0,0.0,0.0,0.0,0.0,0.0,0.0,0.0,0.0,0.0,0.0,0.0,0.0,0.0,0.0,0.0,0.0,0.0,0.0,0.0,0.0,0.0,0.0,0.0,0.0,0.0,0.0,0.0,0.0,0.0,0.0,0.0,0.0,0.0,0.0,0.0,0.0,0.0,0.0,0.0,0.0,0.0,0.0,0.0,0.0,0.0,0.0,0.0,0.0,0.0,0.0,0.0,0.0,0.0,0.0,-1.9039,-1.7623,-1.6974,-1.7041,-1.6772,-1.6207,0.0,0.0,0.0,0.0,0.0,0.0,0.0,0.0,0.0,0.0,0.0,0.0,0.0,0.0,0.0,0.0,0.0,0.0,0.0,0.0,0.0,0.0,0.0,0.0,0.0,0.0,0.0,0.0,0.0,0.0,0.0,0.0,0.0,0.0,0.0,0.0,0.0,0.0,0.0,0.0,0.0,0.0,0.0,0.0,0.0,0.0,0.0,0.0,0.0,0.0,0.0,0.0,0.0,0.0,0.0,0.0,0.0,0.0,0.0,0.0,0.0,0.0,0.0,0.0,0.0,0.0,0.0,0.0,0.0,0.0,0.0,0.0,0.0,0.0,0.0,0.0,0.0,0.0,0.0,0.0,0.0,0.0,0.0,0.0,0.0,0.0,0.0,0.0,0.0,0.0,0.0,0.0,0.0,0.0,0.0,0.0,0.0,0.0,0.0,0.0,0.0,0.0,0.0,0.0,0.0,0.0,0.0,0.0,0.0,-1.6263,-1.5631,-1.5318,-1.5374,-1.5343,-1.5123,-1.4769,0.0,0.0,0.0,0.0,0.0,0.0,0.0,0.0,0.0,0.0,0.0,0.0,0.0,0.0,0.0,0.0,0.0,0.0,0.0,0.0,0.0,0.0,0.0,0.0,0.0,0.0,0.0,0.0,0.0,0.0,0.0,0.0,0.0,0.0,0.0,0.0,0.0,0.0,0.0,0.0,0.0,0.0,0.0,0.0,0.0,0.0,0.0,0.0,0.0,0.0,0.0,0.0,0.0,0.0,0.0,0.0,0.0,0.0,0.0,0.0,0.0,0.0,0.0,0.0,0.0,0.0,0.0,0.0,0.0,0.0,0.0,0.0,0.0,0.0,0.0,0.0,0.0,0.0,0.0,0.0,0.0,0.0,0.0,0.0,0.0,0.0,0.0,0.0,0.0,0.0,0.0,0.0,0.0,0.0,0.0,0.0,0.0,0.0,0.0,0.0,0.0,0.0,0.0,0.0,0.0,0.0,0.0,0.0,-1.475,-1.465,-1.459,-1.4633,-1.4663,-1.4482,0.0,0.0,0.0,0.0,0.0,0.0,0.0,0.0,0.0,0.0,0.0,0.0,0.0,0.0,0.0,0.0,0.0,0.0,0.0,0.0,0.0,0.0,0.0,0.0,0.0,0.0,0.0,0.0,0.0,0.0,0.0,0.0,0.0,0.0,0.0,0.0,0.0,0.0,0.0,0.0,0.0,0.0,0.0,0.0,0.0,0.0,0.0,0.0,0.0,0.0,0.0,0.0,0.0,0.0,0.0,0.0,0.0,0.0,0.0,0.0,0.0,0.0,0.0,0.0,0.0,0.0,0.0,0.0,0.0,0.0,0.0,0.0,0.0,0.0,0.0,0.0,0.0,0.0,0.0,0.0,0.0,0.0,0.0,0.0,0.0,0.0,0.0,0.0,0.0,0.0,0.0,0.0,0.0,0.0,0.0,0.0,0.0,0.0,0.0,0.0,0.0,0.0,0.0,0.0,0.0,0.0,0.0,0.0,-1.3451,-1.4694,-1.465,-1.4636,-1.4739,-1.4856,-1.4332,0.0,0.0,0.0,0.0,0.0,0.0,0.0,0.0,0.0,0.0,0.0,0.0,0.0,0.0,0.0,0.0,0.0,0.0,0.0,0.0,0.0,0.0,0.0,0.0,0.0,0.0,0.0,0.0,0.0,0.0,0.0,0.0,0.0,0.0,0.0,0.0,0.0,0.0,0.0,0.0,0.0,0.0,0.0,0.0,0.0,0.0,0.0,0.0,0.0,0.0,0.0,0.0,0.0,0.0,0.0,0.0,0.0,0.0,0.0,0.0,0.0,0.0,0.0,0.0,0.0,0.0,0.0,0.0,0.0,0.0,0.0,0.0,0.0,0.0,0.0,0.0,0.0,0.0,0.0,0.0,0.0,0.0,0.0,0.0,0.0,0.0,0.0,0.0,0.0,0.0,0.0,0.0,0.0,0.0,0.0,0.0,0.0,0.0,0.0,0.0,0.0,0.0,0.0,0.0,0.0,0.0,0.0,0.0,0.0,-1.3394,0.0,-1.4737,-1.4751,-1.4051,-1.3375,0.0,0.0,0.0,0.0,0.0,0.0,0.0,0.0,0.0,0.0,0.0,0.0,0.0,0.0,0.0,0.0,0.0,0.0,0.0,0.0,0.0,0.0,0.0,0.0,0.0,0.0,0.0,0.0,0.0,0.0,0.0,0.0,0.0,0.0,0.0,0.0,0.0,0.0,0.0,0.0,0.0,0.0,0.0,0.0,0.0,0.0,0.0,0.0,0.0,0.0,0.0,0.0,0.0,0.0,0.0,0.0,0.0,0.0,0.0,0.0,0.0,0.0,0.0,0.0,0.0,0.0,0.0,0.0,0.0,0.0,0.0,0.0,0.0,0.0,0.0,0.0,0.0,0.0,0.0,0.0,0.0,0.0,0.0,0.0,0.0,0.0,0.0,0.0,0.0,0.0,0.0,0.0,0.0,0.0,0.0,0.0,0.0,0.0,0.0,0.0,0.0,0.0,0.0,0.0,0.0,0.0,0.0,0.0,0.0,-1.214,-1.3421,-1.4318,-1.4797,-1.4148,-1.3258,0.0,0.0,0.0,0.0,0.0,0.0,0.0,0.0,0.0,0.0,0.0,0.0,0.0,0.0,0.0,0.0,0.0,0.0,0.0,0.0,0.0,0.0,0.0,0.0,0.0,0.0,0.0,0.0,0.0,0.0,0.0,0.0,0.0,0.0,0.0,0.0,0.0,0.0,0.0,0.0,0.0,0.0,0.0,0.0,0.0,0.0,0.0,0.0,0.0,0.0,0.0,0.0,0.0,0.0,0.0,0.0,0.0,0.0,0.0,0.0,0.0,0.0,0.0,0.0,0.0,0.0,0.0,0.0,0.0,0.0,0.0,0.0,0.0,0.0,0.0,0.0,0.0,0.0,0.0,0.0,0.0,0.0,0.0,0.0,0.0,0.0,0.0,0.0,0.0,0.0,0.0,0.0,0.0,0.0,0.0,0.0,0.0,0.0,0.0,0.0,0.0,0.0,0.0,0.0,0.0,0.0,0.0,0.0,0.0,-1.1125,-1.226,-1.3456,-1.4885,-1.5014,-1.3853,0.0,0.0,0.0,0.0,0.0,0.0,0.0,0.0,0.0,0.0,0.0,0.0,0.0,0.0,0.0,0.0,0.0,0.0,0.0,0.0,0.0,0.0,0.0,0.0,0.0,0.0,0.0,0.0,0.0,0.0,0.0,0.0,0.0,0.0,0.0,0.0,0.0,0.0,0.0,0.0,0.0,0.0,0.0,0.0,0.0,0.0,0.0,0.0,0.0,0.0,0.0,0.0,0.0,0.0,0.0,0.0,0.0,0.0,0.0,0.0,0.0,0.0,0.0,0.0,0.0,0.0,0.0,0.0,0.0,0.0,0.0,0.0,0.0,0.0,0.0,0.0,0.0,0.0,0.0,0.0,0.0,0.0,0.0,0.0,0.0,0.0,0.0,0.0,0.0,0.0,0.0,0.0,0.0,0.0,0.0,0.0,0.0,0.0,0.0,0.0,0.0,0.0,0.0,0.0,0.0,0.0,0.0,0.0,0.0,0.0,-1.225,-1.3113,-1.4558,-1.3828,-1.2601,-1.1046,0.0,0.0,0.0,0.0,0.0,0.0,0.0,0.0,0.0,0.0,0.0,0.0,0.0,0.0,0.0,0.0,0.0,0.0,0.0,0.0,0.0,0.0,0.0,0.0,0.0,0.0,0.0,0.0,0.0,0.0,0.0,0.0,0.0,0.0,0.0,0.0,0.0,0.0,0.0,0.0,0.0,0.0,0.0,0.0,0.0,0.0,0.0,0.0,0.0,0.0,0.0,0.0,0.0,0.0,0.0,0.0,0.0,0.0,0.0,0.0,0.0,0.0,0.0,0.0,0.0,0.0,0.0,0.0,0.0,0.0,0.0,0.0,0.0,0.0,0.0,0.0,0.0,0.0,0.0,0.0,0.0,0.0,0.0,0.0,0.0,0.0,0.0,0.0,0.0,0.0,0.0,0.0,0.0,0.0,0.0,0.0,0.0,0.0,0.0,0.0,0.0,0.0,0.0,0.0,0.0,0.0,0.0,0.0,0.0,0.0,-1.2651,-1.4163,-1.3601,-1.2482,0.0,0.0,0.0,0.0,0.0,0.0,0.0,0.0,0.0,0.0,0.0,0.0,0.0,0.0,0.0,0.0,0.0,0.0,0.0,0.0,0.0,0.0,0.0,0.0,0.0,0.0,0.0,0.0,0.0,0.0,0.0,0.0,0.0,0.0,0.0,0.0,0.0,0.0,0.0,0.0,0.0,0.0,0.0,0.0,0.0,0.0,0.0,0.0,0.0,0.0,0.0,0.0,0.0,0.0,0.0,0.0,0.0,0.0,0.0,0.0,0.0,0.0,0.0,0.0,0.0,0.0,0.0,0.0,0.0,0.0,0.0,0.0,0.0,0.0,0.0,0.0,0.0,0.0,0.0,0.0,0.0,0.0,0.0,0.0,0.0,0.0,0.0,0.0,0.0,0.0,0.0,0.0,0.0,0.0,0.0,0.0,0.0,0.0,0.0,0.0,0.0,0.0,0.0,0.0,0.0,0.0,0.0,0.0,0.0,0.0,0.0,-1.2229,-1.3543,-1.3939,0.0,-1.1088,0.0,0.0,0.0,0.0,0.0,0.0,0.0,0.0,0.0,0.0,0.0,0.0,0.0,0.0,0.0,0.0,0.0,0.0,0.0,0.0,0.0,0.0,0.0,0.0,0.0,0.0,0.0,0.0,0.0,0.0,0.0,0.0,0.0,0.0,0.0,0.0,0.0,0.0,0.0,0.0,0.0,0.0,0.0,0.0,0.0,0.0,0.0,0.0,0.0,0.0,0.0,0.0,0.0,0.0,0.0,0.0,0.0,0.0,0.0,0.0,0.0,0.0,0.0,0.0,0.0,0.0,0.0,0.0,0.0,0.0,0.0,0.0,0.0,0.0,0.0,0.0,0.0,0.0,0.0,0.0,0.0,0.0,0.0,0.0,0.0,0.0,0.0,0.0,0.0,0.0,0.0,0.0,0.0,0.0,0.0,0.0,0.0,0.0,0.0,0.0,0.0,0.0,0.0,0.0,0.0,0.0,0.0,0.0,0.0,0.0,0.0,0.0,-1.3553,-1.3347,-1.2774,0.0,0.0,0.0,0.0,0.0,0.0,0.0,0.0,0.0,0.0,0.0,0.0,0.0,0.0,0.0,0.0,0.0,0.0,0.0,0.0,0.0,0.0,0.0,0.0,0.0,0.0,0.0,0.0,0.0,0.0,0.0,0.0,0.0,0.0,0.0,0.0,0.0,0.0,0.0,0.0,0.0,0.0,0.0,0.0,0.0,0.0,0.0,0.0,0.0,0.0,0.0,0.0,0.0,0.0,0.0,0.0,0.0,0.0,0.0,0.0,0.0,0.0,0.0,0.0,0.0,0.0,0.0,0.0,0.0,0.0,0.0,0.0,0.0,0.0,0.0,0.0,0.0,0.0,0.0,0.0,0.0,0.0,0.0,0.0,0.0,0.0,0.0,0.0,0.0,0.0,0.0,0.0,0.0,0.0,0.0,0.0,0.0,0.0,0.0,0.0,0.0,0.0,0.0,0.0,0.0,0.0,0.0,0.0,0.0,0.0,-1.2657,-1.236,-1.2375,-1.2233,-1.1716,0.0,0.0,0.0,0.0,0.0,0.0,0.0,0.0,0.0,0.0,0.0,0.0,0.0,0.0,0.0,0.0,0.0,0.0,0.0,0.0,0.0,0.0,0.0,0.0,0.0,0.0,0.0,0.0,0.0,0.0,0.0,0.0,0.0,0.0,0.0,0.0,0.0,0.0,0.0,0.0,0.0,0.0,0.0,0.0,0.0,0.0,0.0,0.0,0.0,0.0,0.0,0.0,0.0,0.0,0.0,0.0,0.0,0.0,0.0,0.0,0.0,0.0,0.0,0.0,0.0,0.0,0.0,0.0,0.0,0.0,0.0,0.0,0.0,0.0,0.0,0.0,0.0,0.0,0.0,0.0,0.0,0.0,0.0,0.0,0.0,0.0,0.0,0.0,0.0,0.0,0.0,0.0,0.0,0.0,0.0,0.0,0.0,0.0,0.0,0.0,0.0,0.0,0.0,0.0,0.0,0.0,0.0,0.0,0.0,0.0,0.0,0.0,0.0,0.0,-0.9697,0.0,0.0,0.0,0.0,0.0,0.0,0.0,0.0,0.0,0.0,0.0,0.0,0.0,0.0,0.0,0.0,0.0,0.0,0.0,0.0,0.0,0.0,0.0,0.0,0.0,0.0,0.0,0.0,0.0,0.0,0.0,0.0,0.0,0.0,0.0,0.0,0.0,0.0,0.0,0.0,0.0,0.0,0.0,0.0,0.0,0.0,0.0,0.0,0.0,0.0,0.0,0.0,0.0,0.0,0.0,0.0,0.0,0.0,0.0,0.0,0.0,0.0,0.0,0.0,0.0,0.0,0.0,0.0,0.0,0.0,0.0,0.0,0.0,0.0,0.0,0.0,0.0,0.0,0.0,0.0,0.0,0.0,0.0,0.0,0.0,0.0,0.0,0.0,0.0,0.0,0.0,0.0,0.0,0.0,0.0,0.0,0.0,0.0,0.0,0.0,0.0,0.0,0.0,0.0,0.0,0.0,0.0,0.0,0.0,0.0,0.0,0.0,0.0,0.0,0.0,0.0,0.0,0.0,0.0,0.0,0.0,0.0,0.0,0.0,0.0,0.0,0.0,0.0,0.0,0.0,0.0,0.0,0.0,0.0,0.0,0.0,0.0,0.0,0.0,0.0,0.0,0.0,0.0,0.0,0.0,0.0,0.0,0.0,0.0,0.0,0.0,0.0,0.0,0.0,0.0,0.0,0.0,0.0,0.0,0.0,0.0,0.0,0.0,0.0,0.0,0.0,0.0,0.0,0.0,0.0,0.0,0.0,0.0,0.0,0.0,0.0,0.0,0.0,0.0,0.0,0.0,0.0,0.0,0.0,0.0,0.0,0.0,0.0,0.0,0.0,0.0,0.0,0.0,0.0,0.0,0.0,0.0,0.0,0.0,0.0,0.0,0.0,0.0,0.0,0.0,0.0,0.0,0.0,0.0,0.0,0.0,0.0,0.0,0.0,0.0,0.0,0.0,0.0,0.0,0.0,0.0,0.0,0.0,0.0,0.0,0.0,0.0,0.0,0.0,0.0,0.0,0.0,0.0,0.0,0.0,0.0,0.0,0.0,0.0,0.0,0.0,0.0,0.0,0.0,0.0,0.0,0.0,0.0,0.0,0.0,0.0,0.0,0.0,0.0,0.0,0.0,0.0,0.0,0.0,0.0,0.0,0.0,0.0,0.0,0.0,0.0,0.0,0.0,0.0,0.0,0.0,0.0,0.0,0.0,0.0,0.0,0.0,0.0,0.0,0.0,0.0,0.0,0.0,0.0,0.0,0.0,0.0,0.0,0.0,0.0,0.0,0.0,0.0,0.0,0.0,0.0,0.0,0.0,0.0,0.0,0.0,0.0,0.0,0.0,0.0,0.0,0.0,0.0,0.0,0.0,0.0,0.0,0.0,0.0,0.0,0.0,0.0,0.0,0.0,0.0,0.0,0.0,0.0,0.0,0.0,0.0,0.0,0.0,0.0,0.0,0.0,0.0,0.0,0.0,0.0,0.0,0.0,0.0,0.0,0.0,0.0,0.0,0.0,0.0,0.0,0.0,0.0,0.0,0.0,0.0,0.0,0.0,0.0,0.0,0.0,0.0,0.0,0.0,0.0,0.0,0.0,0.0,0.0,0.0,0.0,0.0,0.0,0.0,0.0,0.0,0.0,0.0,0.0,0.0,0.0,0.0,0.0,0.0,0.0,0.0,0.0,0.0,0.0,0.0,0.0,0.0,0.0,0.0,0.0,0.0,0.0,0.0,0.0,0.0,0.0,0.0,0.0,0.0,0.0,0.0,0.0,0.0,0.0,0.0,0.0,0.0,0.0,0.0,0.0,0.0,0.0,0.0,0.0,0.0,0.0,0.0,0.0,0.0,0.0,0.0,0.0,0.0,0.0,0.0,0.0,0.0,0.0,0.0,0.0,0.0,0.0,0.0,0.0,0.0,0.0,0.0,0.0,0.0,0.0,0.0,0.0,0.0,0.0,0.0,0.0,0.0,0.0,0.0,0.0,0.0,0.0,0.0,0.0,0.0,0.0,0.0,0.0,0.0,0.0,0.0,0.0,0.0,0.0,0.0,0.0,0.0,0.0,0.0,0.0,0.0,0.0,0.0,0.0,0.0,0.0,0.0,0.0,0.0,0.0,0.0,0.0,0.0,0.0,0.0,0.0,0.0,0.0,0.0,0.0,0.0,0.0,0.0,0.0,0.0,0.0,0.0,0.0,0.0,0.0,0.0,0.0,0.0,0.0,0.0,0.0,0.0,0.0,0.0,0.0,0.0,0.0,0.0,0.0,0.0,0.0,0.0,0.0,0.0,0.0,0.0,0.0,0.0,0.0,0.0,0.0,0.0,0.0,0.0,0.0,0.0,0.0,0.0,0.0,0.0,0.0,0.0,0.0,0.0,0.0,0.0,0.0,0.0,0.0,0.0,0.0,0.0,0.0,0.0,0.0,0.0,0.0,0.0,0.0,0.0,0.0,0.0,0.0,0.0,0.0,0.0,0.0,0.0,0.0,0.0,0.0,0.0,0.0,0.0,0.0,0.0,0.0,0.0,0.0,0.0,0.0,0.0,0.0,0.0,0.0,0.0,0.0,0.0,0.0,0.0,0.0,0.0,0.0,0.0,0.0,0.0,0.0,0.0,0.0,0.0,0.0,0.0,0.0,0.0,0.0,0.0,0.0,0.0,0.0,0.0,0.0,0.0,0.0,0.0,0.0,0.0,0.0,0.0,0.0,0.0,0.0,0.0,0.0,0.0,0.0,0.0,0.0,0.0,0.0,0.0,0.0,0.0,0.0,0.0,0.0,0.0,0.0,0.0,0.0,0.0,0.0,0.0,0.0,0.0,0.0,0.0,0.0,0.0,0.0,0.0,0.0,0.0,0.0,0.0,0.0,0.0,0.0,0.0,0.0,0.0,0.0,0.0,0.0,0.0,0.0,0.0,0.0,0.0,0.0,0.0,0.0,0.0,0.0,0.0,0.0,0.0,0.0,0.0,0.0,0.0,0.0,0.0,0.0,0.0,0.0,0.0,0.0,0.0,0.0,0.0,0.0,0.0,0.0,0.0,0.0,0.0,0.0,0.0,0.0,0.0,0.0,0.0,0.0,0.0,0.0,0.0,0.0,0.0,0.0,0.0,0.0,0.0,0.0,0.0,0.0,0.0,0.0,0.0,0.0,0.0,0.0,0.0,0.0,0.0,0.0,0.0,0.0,0.0,0.0,0.0,0.0,0.0,0.0,0.0,0.0,0.0,0.0,0.0,0.0,0.0,0.0,0.0,0.0,0.0,0.0,0.0,0.0,0.0,0.0,0.0,0.0,0.0,0.0,0.0,0.0,0.0,0.0,0.0,0.0,0.0,0.0,0.0,0.0,0.0,0.0,0.0,0.0,0.0,0.0,0.0,0.0,0.0,0.0,0.0,0.0,0.0,0.0,0.0,0.0,0.0,0.0,0.0,0.0,0.0,0.0,0.0,0.0,0.0,0.0,0.0,0.0,0.0,0.0,0.0,0.0,0.0,0.0,0.0,0.0,0.0,0.0,0.0,0.0,0.0,0.0,0.0,0.0,0.0,0.0,0.0,0.0,0.0,0.0,0.0,0.0,0.0,0.0,0.0,0.0,0.0,0.0,0.0,0.0,0.0,0.0,0.0,0.0,0.0,0.0,0.0,0.0,0.0,0.0,0.0,0.0,0.0,0.0,0.0,0.0,0.0,0.0,0.0,0.0,0.0,0.0,0.0,0.0,0.0,0.0,0.0,0.0,0.0,0.0,0.0,0.0,0.0,0.0,0.0,0.0,0.0,0.0,0.0,0.0,0.0,0.0,0.0,0.0,0.0,0.0,0.0,0.0,0.0,0.0,0.0,0.0,0.0,0.0,0.0,0.0,0.0,0.0,0.0,0.0,0.0,0.0,0.0,0.0,0.0,0.0,0.0,0.0,0.0,0.0,0.0,0.0,0.0,0.0,0.0,0.0,0.0,0.0,0.0,0.0,0.0,0.0,0.0,0.0,0.0,0.0,0.0,0.0,0.0,0.0,0.0,0.0,0.0,0.0,0.0,0.0,0.0,0.0,0.0,0.0,0.0,0.0,0.0,0.0,0.0,0.0,0.0,0.0,0.0,0.0,0.0,0.0,0.0,0.0,0.0,0.0,0.0,0.0,0.0,0.0,0.0,0.0,0.0,0.0,0.0,0.0,0.0,0.0,0.0,0.0,0.0,0.0,0.0,0.0,0.0,0.0,0.0,0.0,0.0,0.0,0.0,0.0,0.0,0.0,0.0,0.0,0.0,0.0,0.0,0.0,0.0,0.0,0.0,0.0,0.0,0.0,0.0,0.0,0.0,0.0,0.0,0.0,0.0,0.0,0.0,0.0,0.0,0.0,0.0,0.0,0.0]}],[{"header":{"parameterUnit":"kt","parameterCategory":2,"dx":1,"dy":1,"la1":29.587661999999998,"la2":31.0,"lo1":-88.76705300000003,"lo2":-86.6583820000003,"nx":115,"ny":88,"refTime":"2022-10-12T18:00:00:Z","depth":0,"parameterNumber":2,"parameterNumberName":"V-component_of_WINDS"},"data":[3.0879,3.0879,3.0879,3.0879,3.0879,3.0879,3.0879,3.0879,3.0879,3.0879,3.0879,3.0879,3.0879,3.0879,3.0879,3.0879,3.0879,3.0879,3.0879,3.0879,3.0879,3.0879,3.0879,3.0879,3.0879,3.0879,3.0879,3.0879,3.0879,3.0879,3.0879,3.0775,3.0775,3.0037,2.9933,2.8881,2.793,2.6978,2.6139,2.5813,2.338,2.1055,1.8938,1.752,1.6335,1.5775,1.5217,1.4848,1.4968,1.5257,1.5534,1.5503,1.5528,1.5625,1.5811,1.639,1.5521,1.4566,1.4179,1.407,1.3961,1.3665,1.3665,1.3471,1.318,1.2609,1.2609,1.2512,1.2415,1.2415,1.2415,1.2415,1.2415,1.2415,1.2415,1.2415,1.2415,1.2415,1.2415,1.2415,1.2415,1.2997,1.3671,1.3477,1.3089,1.3094,1.3191,1.2997,1.2512,1.2512,1.2609,1.2512,1.2609,1.2415,1.2415,1.2415,1.2318,1.2415,1.2415,1.2415,1.2415,1.2415,1.2415,1.2415,1.2373,1.2076,1.165,1.1202,1.0917,1.0312,1.0573,1.0624,1.0446,1.0273,0.9922,3.0879,3.0879,3.0879,3.0879,3.0879,3.0879,3.0879,3.0879,3.0879,3.0879,3.0879,3.0879,3.0879,3.0879,3.0879,3.0879,3.0879,3.0879,3.0879,3.0879,3.0879,3.0879,3.0879,3.0879,3.0879,3.0879,3.0879,3.0879,3.0464,2.9933,2.9829,3.036,2.9308,2.7721,2.6758,2.5594,2.433,2.3582,2.3265,2.2825,2.0811,1.8496,1.655,1.5418,1.4803,1.4572,1.4414,1.4262,1.438,1.4793,1.5241,1.5289,1.5238,1.5238,1.5238,1.4948,1.4173,1.3694,1.3408,1.2911,1.2614,1.2415,1.2512,1.2609,1.2609,1.2512,1.2512,1.2415,1.2415,1.2415,1.2415,1.2415,1.2415,1.2415,1.2415,1.2415,1.2415,1.2415,1.2415,1.2415,1.2415,1.2415,1.2706,1.2706,1.2609,1.2512,1.2512,1.2512,1.2415,1.2415,1.2415,1.2415,1.2415,1.2415,1.2318,1.2215,1.2021,1.2021,1.1832,1.2221,1.2318,1.1929,1.1735,1.2123,1.2031,1.1522,1.1126,1.0704,0.9715,0.8937,0.9155,0.9402,0.9316,0.9402,0.9138,3.0879,3.0879,3.0879,3.0879,3.0879,3.0879,3.0879,3.0879,3.0879,3.0879,3.0879,3.0879,3.0879,3.0879,3.0879,3.0879,3.0879,3.0879,3.0879,3.0879,3.0879,3.0879,3.0879,3.0879,3.0775,3.089,3.0787,2.984,2.8683,2.8045,2.6873,2.6244,2.5479,2.4522,2.4206,2.3459,2.2198,2.0508,2.0614,1.9233,1.6864,1.5788,1.4423,1.4173,1.4068,1.4226,1.4068,1.4204,1.4304,1.4589,1.4695,1.4682,1.4173,1.4463,1.4457,1.3876,1.3591,1.3208,1.2911,1.2712,1.2512,1.2415,1.2415,1.2415,1.2415,1.2415,1.2415,1.2415,1.2415,1.2415,1.2415,1.2415,1.2415,1.2415,1.2415,1.2415,1.2415,1.2415,1.2415,1.2415,1.2415,1.2415,1.2415,1.2415,1.2415,1.2415,1.2415,1.2415,1.2415,1.2415,1.2415,1.2415,1.2415,1.2415,1.1827,1.1535,1.153,1.1244,1.0956,1.0956,1.0859,1.0859,1.1054,1.1545,1.1675,1.093,1.0433,1.0121,0.9246,0.8151,0.8109,0.8184,0.844,0.8618,0.7928,3.0879,3.0879,3.0879,3.0879,3.0879,3.0879,3.0879,3.0879,3.0879,3.0879,3.0879,3.0879,3.0879,3.0879,3.0879,3.0879,3.0879,3.0879,3.0879,3.0879,3.0879,3.0879,3.0879,3.0152,2.9725,2.984,2.9089,2.7616,2.6234,2.4646,2.3274,2.3168,2.2109,2.1554,2.1334,2.0181,1.9229,1.7741,1.746,1.6242,1.4749,1.3946,1.3635,1.3707,1.386,1.4149,1.4366,1.4403,1.4303,1.4466,1.4165,1.3414,1.2512,1.3197,1.3191,1.2706,1.2906,1.2809,1.2614,1.2512,1.2415,1.2415,1.2415,1.2415,1.2415,1.2415,1.2415,1.2415,1.2415,1.2415,1.2415,1.2415,1.2415,1.2415,1.2415,1.2415,1.2415,1.2415,1.2415,1.2415,1.2415,1.2415,1.2415,1.2415,1.2415,1.2415,1.2415,1.2318,1.2318,1.1735,1.1637,1.1346,1.1637,1.1637,1.0952,1.0562,1.0562,1.0372,0.9499,0.9202,0.9202,0.9105,0.9202,1.0279,1.0716,0.9655,0.8911,0.8885,0.8514,0.7649,0.732,0.7059,0.732,0.7229,0.654,3.0879,3.0879,3.0879,3.0879,3.0879,3.0879,3.0879,3.0879,3.0879,3.0879,3.0879,3.0879,3.0879,3.0879,3.0879,3.0879,3.0879,3.089,3.089,3.0787,3.0464,2.9933,2.9517,2.8892,2.7512,2.6339,2.5383,2.4637,2.3142,2.188,2.1244,2.2296,2.0188,1.8916,1.8268,1.7105,1.6222,1.5424,1.4964,1.4593,1.3897,1.3777,1.3943,1.3866,1.413,1.4392,1.4619,1.4585,1.4197,1.4403,1.4179,1.3494,1.2803,1.2706,1.2706,1.2517,1.2614,1.2517,1.2512,1.2415,1.2415,1.2415,1.2415,1.2415,1.2415,1.2415,1.2415,1.2415,1.2415,1.2415,1.2415,1.2415,1.2415,1.2415,1.2415,1.2415,1.2415,1.2415,1.2415,1.2415,1.2415,1.2221,1.2221,1.2415,1.2415,1.2221,1.2123,1.2026,1.1637,1.0664,1.0275,0.9881,1.0182,1.0385,0.9893,0.9694,0.969,0.891,0.7741,0.7353,0.7937,0.7741,0.735,0.7937,0.8613,0.7762,0.7352,0.7043,0.6693,0.6456,0.6456,0.6108,0.576,0.5583,0.5062,3.0879,3.0879,3.0879,3.0879,3.0879,3.0879,3.0879,3.0879,3.0879,3.0879,3.0879,3.0879,3.0879,3.0775,3.0671,3.0671,3.0671,3.036,2.984,2.9204,2.8787,2.8045,2.6663,2.5297,2.4646,2.4101,2.3036,2.1464,2.0196,1.9137,1.7968,1.7968,1.6789,1.5943,1.5602,1.4934,1.4042,1.3775,1.36,1.3516,1.3377,1.3355,1.3409,1.3393,1.3513,1.3746,1.3815,1.4171,1.3888,1.3791,1.3694,1.31,1.2706,1.2415,1.2415,1.2415,1.2415,1.2415,1.2415,1.2415,1.2415,1.2415,1.2415,1.2415,1.2415,1.2415,1.2415,1.2415,1.2415,1.2415,1.2415,1.2415,1.2415,1.2415,1.2415,1.2415,1.2415,1.2415,1.2415,1.2415,1.2221,1.1929,1.2026,1.2318,1.2318,1.1346,1.0956,1.0859,1.0177,0.9397,0.9007,0.8714,0.8921,0.912,0.8925,0.8725,0.8334,0.7549,0.6573,0.6573,0.6671,0.6766,0.6766,0.6769,0.6769,0.656,0.653,0.5883,0.5501,0.5762,0.5849,0.4799,0.4012,0.3838,0.3664,3.0879,3.0879,3.0879,3.0879,3.0879,3.0879,3.0879,3.0879,3.0879,3.0879,3.0879,3.0256,2.9736,2.9829,2.9308,2.8881,2.887,2.8672,2.7721,2.6988,2.6254,2.4876,2.36,2.2542,2.1676,2.1129,2.0181,1.8817,1.7439,1.6056,1.4883,1.4565,1.4662,1.4446,1.4182,1.3876,1.3722,1.3447,1.3236,1.3184,1.3146,1.3122,1.32,1.3308,1.3545,1.3631,1.3625,1.3694,1.3591,1.33,1.3105,1.2911,1.2415,1.2415,1.2415,1.2415,1.2415,1.2415,1.2415,1.2415,1.2415,1.2415,1.2415,1.2415,1.2415,1.2415,1.2415,1.2415,1.2415,1.2415,1.2415,1.2415,1.2415,1.2415,1.2415,1.2415,1.2318,1.2221,1.173,1.1632,1.1049,1.0854,1.0664,1.0859,1.0664,0.9783,0.93,0.9007,0.8617,0.823,0.7937,0.7842,0.7845,0.7653,0.7555,0.7751,0.7066,0.6576,0.638,0.6377,0.6475,0.6475,0.6279,0.6279,0.6475,0.6202,0.5756,0.5443,0.5155,0.5324,0.4276,0.3052,0.218,0.2179,0.2005,3.0879,3.0879,3.0879,3.0879,3.0879,3.0683,3.0671,3.0671,3.0671,3.0568,3.0568,2.837,2.7637,2.7313,2.5508,2.4972,2.5087,2.4972,2.4339,2.382,2.3503,2.2639,2.1464,1.9991,1.8916,1.7747,1.6789,1.6158,1.4549,1.4128,1.4128,1.402,1.3978,1.3924,1.3781,1.35,1.3289,1.3188,1.3014,1.2971,1.2985,1.3058,1.3069,1.323,1.3397,1.3488,1.3488,1.3391,1.3203,1.3008,1.2809,1.2614,1.2415,1.2415,1.2415,1.2415,1.2415,1.2415,1.2415,1.2415,1.2415,1.2415,1.2415,1.2415,1.2415,1.2415,1.2415,1.2415,1.2415,1.2415,1.2415,1.2415,1.2415,1.2221,1.2221,1.2026,1.1924,1.1632,1.1146,1.066,1.0076,0.9783,0.9592,0.9202,0.9105,0.8519,0.8226,0.7937,0.7549,0.7157,0.7157,0.7063,0.6867,0.6478,0.6478,0.6772,0.638,0.638,0.6279,0.6181,0.6181,0.6279,0.5887,0.5689,0.5985,0.5756,0.4946,0.4628,0.4552,0.3139,0.1831,0.0697,-0.0522,-0.0348,-0.0435,3.0879,3.0879,3.0879,3.0879,3.0683,2.932,2.7826,2.6558,2.6443,2.6454,2.6349,2.5833,2.5307,2.5096,2.4454,2.4137,2.4032,2.3706,2.308,2.1063,2.0744,1.9457,1.7968,1.6594,1.6265,1.5405,1.4554,1.4231,1.3994,1.401,1.3988,1.394,1.3866,1.3632,1.3416,1.3204,1.2988,1.2929,1.2808,1.2764,1.2928,1.2879,1.2911,1.3105,1.31,1.2992,1.2997,1.2809,1.2712,1.2712,1.2614,1.2512,1.2415,1.2415,1.2415,1.2415,1.2415,1.2415,1.2415,1.2415,1.2415,1.2415,1.2415,1.2415,1.2415,1.2415,1.2415,1.2415,1.2415,1.2415,1.2415,1.2415,1.2123,1.1346,1.1248,1.0762,1.0562,1.0275,0.9885,0.9487,0.9097,0.8808,0.8519,0.8132,0.7741,0.7546,0.735,0.6864,0.6475,0.6475,0.6475,0.6475,0.6279,0.5887,0.5689,0.5985,0.6181,0.6181,0.6181,0.6181,0.6083,0.5297,0.5199,0.5001,0.4876,0.4506,0.3943,0.3379,0.2982,0.1831,-0.0174,-0.1829,-0.3046,-0.3568,-0.3918,3.0726,3.0879,3.0879,3.0037,2.8452,2.6988,2.5623,2.4243,2.4137,2.4137,2.4032,2.3177,2.2974,2.2542,2.2118,2.117,2.1162,2.0957,2.0105,1.8196,1.7768,1.617,1.5315,1.4883,1.4452,1.4128,1.401,1.3994,1.3903,1.377,1.3871,1.3775,1.349,1.3326,1.3099,1.2882,1.275,1.2713,1.2618,1.2614,1.2814,1.262,1.2614,1.2911,1.2614,1.2512,1.2512,1.2609,1.2512,1.2512,1.2512,1.2415,1.2415,1.2415,1.2415,1.2415,1.2415,1.2415,1.2415,1.2415,1.2415,1.2415,1.2415,1.2415,1.2415,1.2415,1.2415,1.2415,1.2415,1.2415,1.2221,1.2123,1.1637,1.0859,1.027,0.9787,0.9397,0.9105,0.8617,0.832,0.793,0.7546,0.7448,0.706,0.6962,0.6766,0.598,0.5493,0.5101,0.5297,0.5099,0.5099,0.4805,0.4707,0.5199,0.5789,0.6181,0.4609,0.4215,0.4707,0.4707,0.4117,0.3624,0.2542,0.2908,0.3069,0.1108,-0.0357,0.0352,0.0087,-0.2264,-0.4181,-0.4526,-0.5048,-0.5833,3.0421,3.0843,3.0763,2.8139,2.4454,2.4023,2.3811,2.3186,2.3398,2.3292,2.2868,2.1489,2.0638,1.9998,1.8403,1.7774,1.7446,1.6594,1.5955,1.5638,1.553,1.4776,1.4236,1.4112,1.4101,1.401,1.3956,1.3839,1.3674,1.3563,1.3458,1.3331,1.3204,1.3056,1.2756,1.253,1.2431,1.2425,1.2436,1.2512,1.2517,1.2512,1.2415,1.2614,1.2512,1.2415,1.2415,1.2415,1.2415,1.2415,1.2415,1.2415,1.2415,1.2415,1.2415,1.2415,1.2415,1.2415,1.2415,1.2415,1.2415,1.2415,1.2415,1.2415,1.2415,1.2415,1.2415,1.2415,1.2415,1.2415,1.1832,1.1253,1.0766,1.0177,0.9495,0.9007,0.8519,0.8129,0.7542,0.7151,0.6668,0.6279,0.6279,0.6279,0.6181,0.5689,0.4609,0.4019,0.3628,0.343,0.2842,0.2646,0.2058,0.2254,0.3234,0.4707,0.4707,0.2548,0.1568,0.196,0.2058,0.1469,0.0782,0.0195,-0.0289,-0.0942,-0.2572,-0.4031,-0.3353,-0.2869,-0.4961,-0.5836,-0.5746,-0.592,-0.6267,2.9284,2.809,2.8448,2.5938,2.202,2.1807,2.0858,1.9487,1.9487,1.9166,1.8724,1.8189,1.7553,1.7023,1.6062,1.5853,1.5745,1.532,1.4997,1.4673,1.4457,1.4128,1.4015,1.3988,1.3908,1.3797,1.3759,1.3553,1.3336,1.3331,1.3252,1.3104,1.2908,1.276,1.2515,1.2446,1.242,1.2415,1.2415,1.2415,1.2415,1.2415,1.2415,1.2415,1.2415,1.2415,1.2415,1.2415,1.2415,1.2415,1.2415,1.2415,1.2415,1.2415,1.2415,1.2415,1.2415,1.2415,1.2415,1.2415,1.2415,1.2415,1.2415,1.2221,1.2415,1.2415,1.2123,1.2221,1.2221,1.1832,1.008,0.9491,0.9003,0.832,0.7735,0.7246,0.6855,0.6464,0.6076,0.5782,0.6179,0.6083,0.5985,0.5985,0.5789,0.5199,0.3824,0.2646,0.2058,0.1274,0.0784,0.0294,-0.0196,0.0392,0.098,0.1764,0.2156,0.0196,-0.0392,-0.0294,-0.1077,-0.2153,-0.2834,-0.2806,-0.3513,-0.4907,-0.5435,-0.5321,-0.5522,-0.5651,-0.6522,-0.7313,-0.7226,-0.6962,-0.7139,2.7202,2.5594,2.5064,2.2756,1.9302,1.9435,1.8639,1.7479,1.7264,1.7043,1.6929,1.6821,1.6606,1.6176,1.5853,1.5638,1.5745,1.4997,1.4673,1.4565,1.4214,1.3956,1.3892,1.3839,1.3664,1.3484,1.3431,1.332,1.3109,1.3088,1.3056,1.2813,1.2577,1.2441,1.2415,1.2425,1.2415,1.2415,1.2415,1.2415,1.2415,1.2415,1.2415,1.2415,1.2415,1.2415,1.2415,1.2415,1.2415,1.2415,1.2415,1.2415,1.2415,1.2415,1.2415,1.2415,1.2415,1.2415,1.2415,1.2415,1.2415,1.2318,1.1438,1.0562,0.958,0.9483,1.0067,1.1146,1.0952,0.9982,0.8516,0.7536,0.6657,0.607,0.5484,0.4897,0.4409,0.4214,0.3822,0.3624,0.4313,0.5003,0.5199,0.5199,0.4903,0.4413,0.2744,0.1176,0.0098,-0.0785,-0.0981,-0.1374,-0.1767,-0.1373,-0.1177,-0.0883,-0.049,-0.1372,-0.2155,-0.2744,-0.343,-0.4699,-0.5144,-0.5454,-0.5931,-0.6321,-0.6619,-0.6668,-0.6788,-0.7045,-0.7656,-0.8354,-0.8354,-0.818,-0.8094,2.4449,2.3029,2.0987,1.8961,1.7074,1.7227,1.7352,1.7372,1.7372,1.7264,1.7264,1.7157,1.7049,1.6726,1.5967,1.5745,1.6277,1.477,1.4452,1.4344,1.4204,1.3866,1.3653,1.3548,1.3431,1.3231,1.3194,1.3067,1.2898,1.284,1.2614,1.2446,1.2446,1.2425,1.2415,1.2415,1.2415,1.2415,1.2415,1.2415,1.2415,1.2415,1.2415,1.2415,1.2415,1.2415,1.2415,1.2415,1.2415,1.2415,1.2415,1.2415,1.2415,1.2415,1.2415,1.2415,1.2415,1.1632,1.085,1.0753,1.1632,1.1341,0.9872,0.763,0.5379,0.45,0.6255,0.879,0.724,0.666,0.6263,0.5186,0.3621,0.3231,0.3427,0.2841,0.2449,0.2155,0.2058,0.1666,0.1862,0.2352,0.2647,0.2157,0.1667,0.1373,-0.0196,-0.049,-0.157,-0.1963,-0.2258,-0.2553,-0.2946,-0.3045,-0.2847,-0.2945,-0.2649,-0.3138,-0.4214,-0.5097,-0.5679,-0.6224,-0.676,-0.7032,-0.7064,-0.7417,-0.7674,-0.7613,-0.766,-0.818,-0.8354,-0.8354,-0.8354,-0.8354,-0.8354,2.1258,1.7972,1.7484,1.7155,1.693,1.7009,1.7061,1.7352,1.7372,1.7372,1.7264,1.6935,1.6505,1.5859,1.5428,1.5105,1.5213,1.4344,1.4128,1.4058,1.386,1.3743,1.3505,1.3352,1.3183,1.2855,1.2956,1.2834,1.2681,1.2607,1.2499,1.242,1.2415,1.2415,1.2415,1.2415,1.2415,1.2415,1.2415,1.2415,1.2415,1.2415,1.2415,1.2415,1.2415,1.2415,1.2415,1.2415,1.2415,1.2318,1.2215,1.2026,1.2415,1.2415,1.2415,1.2415,1.1827,1.0456,0.8209,0.7822,0.8313,0.8313,0.7335,0.4502,0.098,-0.0098,0.1077,0.1761,0.1764,0.3037,0.3134,0.2644,0.1372,0.1273,0.1371,0.0979,0.0686,0.0882,0.0882,0.0,-0.049,-0.0098,-0.0098,-0.0785,-0.1275,-0.1668,-0.2061,-0.2356,-0.2553,-0.2749,-0.2848,-0.2848,-0.3241,-0.3534,-0.3632,-0.3925,-0.4515,-0.5003,-0.6274,-0.7145,-0.7212,-0.765,-0.7933,-0.8055,-0.8155,-0.8235,-0.8079,-0.8215,-0.8354,-0.8354,-0.8354,-0.8354,-0.8354,-0.8354,-0.8354,1.8099,1.5895,1.6119,1.6271,1.6574,1.6831,1.7029,1.7081,1.7205,1.7372,1.7264,1.6935,1.6499,1.5961,1.5105,1.4889,1.4889,1.4344,1.408,1.4052,1.3844,1.3463,1.3294,1.3125,1.284,1.2667,1.2593,1.252,1.2473,1.2425,1.2415,1.2415,1.2415,1.2415,1.2415,1.2415,1.2415,1.2415,1.2415,1.2415,1.2415,1.2415,1.2415,1.2415,1.2415,1.2415,1.2221,1.1832,1.1443,1.2118,1.0266,1.0461,1.1924,1.2318,1.2318,1.2118,1.085,0.8014,0.4891,0.5481,0.6068,0.6065,0.4599,0.2252,-0.0294,-0.157,-0.2455,-0.3045,-0.1373,-0.0588,-0.0392,-0.049,-0.049,-0.049,-0.0883,-0.1177,-0.1275,-0.0686,-0.0588,-0.1864,-0.2846,-0.2257,-0.1963,-0.2258,-0.2257,-0.2455,-0.2651,-0.275,-0.2946,-0.3045,-0.3045,-0.3143,-0.3534,-0.4123,-0.4513,-0.5101,-0.5787,-0.6472,-0.7741,-0.8198,-0.8447,-0.8424,-0.8466,-0.867,-0.8613,-0.8471,-0.8405,-0.8354,-0.8354,-0.8354,-0.8354,-0.8354,-0.8354,-0.8354,-0.8354,1.5528,1.5651,1.5915,1.6047,1.6165,1.6607,1.6831,1.691,1.7074,1.7218,1.7072,1.7131,1.6828,1.6176,1.5207,1.5105,1.498,1.4403,1.3962,1.4028,1.3677,1.3231,1.294,1.2756,1.2604,1.2499,1.2446,1.2415,1.2415,1.2415,1.2415,1.2415,1.2415,1.2415,1.2415,1.2415,1.2415,1.2415,1.2415,1.2415,1.2415,1.2026,1.1929,1.1827,1.1535,1.1142,1.0757,0.9783,0.9588,1.0753,0.8024,0.8118,1.0164,1.104,1.104,0.9872,0.7822,0.4895,0.3719,0.3623,0.3819,0.2839,0.1959,0.0979,-0.0686,-0.2061,-0.2946,-0.3045,-0.2945,-0.2651,-0.2455,-0.2848,-0.2946,-0.2749,-0.2453,-0.2651,-0.2848,-0.1865,-0.2061,-0.3043,-0.3043,-0.3043,-0.3045,-0.3045,-0.3045,-0.3045,-0.3045,-0.3045,-0.3045,-0.3045,-0.3045,-0.3436,-0.3828,-0.5101,-0.5787,-0.6568,-0.7157,-0.7741,-0.8505,-0.9059,-0.8959,-0.8832,-0.8933,-0.8762,-0.8643,-0.8501,-0.8401,-0.8354,-0.8354,-0.8354,-0.8354,-0.8354,-0.844,-0.8354,-0.8444,1.5528,1.5528,1.5593,1.5855,1.6073,1.6211,1.6383,1.6607,1.6897,1.6706,1.6428,1.6593,1.6253,1.5841,1.5405,1.5088,1.477,1.4132,1.3717,1.3683,1.322,1.2998,1.2714,1.2598,1.2473,1.2415,1.2415,1.2415,1.2415,1.2415,1.2415,1.2415,1.2415,1.2415,1.2415,1.2415,1.2415,1.2415,1.2415,1.2415,1.2026,1.0952,0.9982,0.9885,0.8313,0.7731,0.7927,0.7145,0.7341,0.7341,0.6556,0.509,0.3037,0.0,0.0,0.2352,0.1765,0.1177,0.0686,0.0588,0.0294,-0.0098,-0.1177,-0.1767,-0.2356,-0.2553,-0.3045,-0.3045,-0.3045,-0.3045,-0.3045,-0.3045,-0.3045,-0.3045,-0.3045,-0.3045,-0.3045,-0.3045,-0.3045,-0.3045,-0.3045,-0.3045,-0.3045,-0.3045,-0.3045,-0.3045,-0.3634,-0.3634,-0.3828,-0.373,-0.3828,-0.4025,-0.4905,-0.6277,-0.7154,-0.7937,-0.823,-0.8613,-0.8973,-0.9278,-0.9155,-0.902,-0.8846,-0.8659,-0.8544,-0.8465,-0.8413,-0.8354,-0.8354,-0.8354,-0.8354,-0.8527,-0.8874,-0.8874,-0.8791,1.5528,1.5528,1.5528,1.5626,1.5869,1.6014,1.6165,1.6323,1.6388,1.6208,1.5941,1.5826,1.5369,1.4942,1.4837,1.4522,1.4079,1.3546,1.3342,1.3215,1.2993,1.2818,1.2567,1.2483,1.2425,1.2415,1.2415,1.2415,1.2415,1.2415,1.2415,1.2415,1.2415,1.2415,1.2415,1.2415,1.2415,1.2123,1.1443,1.0859,1.0757,0.8902,0.793,0.7637,0.6755,0.6269,0.607,0.5481,0.519,0.5582,0.431,0.2254,0.0,0.0,0.0,0.0,0.0,-0.0196,-0.108,-0.1571,-0.1964,-0.216,-0.2455,-0.2848,-0.3045,-0.3045,-0.3045,-0.3045,-0.3045,-0.3045,-0.3045,-0.3045,-0.3045,-0.3045,-0.3045,-0.3045,-0.3045,-0.3045,-0.3045,-0.3045,-0.3045,-0.3045,-0.3045,-0.3045,-0.3045,-0.3536,-0.4123,-0.4515,-0.4809,-0.4907,-0.5103,-0.5591,-0.6665,-0.7741,-0.8422,-0.8714,-0.8913,-0.9082,-0.9326,-0.9179,-0.904,-0.8866,-0.8699,-0.8649,-0.8481,-0.8397,-0.844,-0.8705,-0.8531,-0.8444,-0.8787,-0.9134,-0.9307,-0.9398,-0.9225,1.5528,1.5528,1.5528,1.5528,1.5574,1.5888,1.5994,1.5854,1.5698,1.5609,1.5322,1.4956,1.4491,1.4068,1.3835,1.3636,1.3365,1.3194,1.3077,1.294,1.2808,1.2708,1.2473,1.2425,1.242,1.2415,1.2415,1.2415,1.2415,1.2415,1.2415,1.2415,1.2415,1.2415,1.2415,1.2415,1.2318,1.1443,1.0372,0.9296,0.8711,0.7341,0.6364,0.5582,0.4799,0.4603,0.4408,0.3527,0.3332,0.4605,0.1766,0.0,0.0,0.0,0.0,0.0,0.0,-0.1276,-0.1964,-0.2356,-0.2356,-0.2455,-0.275,-0.3045,-0.3045,-0.3045,-0.3045,-0.3045,-0.3045,-0.3045,-0.3045,-0.3045,-0.3045,-0.3045,-0.3045,-0.3045,-0.3045,-0.3045,-0.3045,-0.3045,-0.3045,-0.3045,-0.3045,-0.3045,-0.3634,-0.4417,-0.5005,-0.5397,-0.6277,-0.6763,-0.6665,-0.735,-0.823,-0.8812,-0.9296,-0.9296,-0.9167,-0.9225,-0.9235,-0.9088,-0.8889,-0.8715,-0.8762,-0.8912,-0.882,-0.8787,-0.8878,-0.9051,-0.9138,-0.9402,-0.9571,-0.974,-0.974,-0.9744,-0.9658,1.5528,1.5528,1.5528,1.5528,1.5541,1.558,1.5425,1.5074,1.5307,1.4827,1.4061,1.416,1.386,1.3404,1.3285,1.3312,1.3151,1.3025,1.2908,1.2708,1.2572,1.2478,1.2441,1.2415,1.2415,1.2415,1.2415,1.2415,1.2415,1.2415,1.2415,1.2415,1.2415,1.2318,1.2318,1.2318,1.1438,0.9881,0.9003,0.8125,0.6755,0.607,0.4897,0.3624,0.0,0.0,0.0,0.0,0.0,0.0883,0.0393,0.0,0.0,0.0,0.0,0.0,-0.1571,-0.2356,-0.275,-0.2848,-0.2946,-0.2946,-0.3045,-0.3045,-0.3045,-0.3045,-0.3045,-0.3045,-0.3045,-0.3045,-0.3045,-0.3045,-0.3045,-0.3045,-0.3045,-0.3045,-0.3045,-0.3045,-0.3045,-0.3045,-0.3045,-0.3045,-0.3045,-0.4025,-0.4613,-0.5299,-0.5789,-0.6573,-0.8034,-0.8812,-0.8519,-0.891,-0.891,-0.9202,-0.9288,-0.9284,-0.9194,-0.9227,-0.9143,-0.8953,-0.8739,-0.8798,-0.8967,-0.919,-0.9393,-0.948,-0.9566,-0.9571,-0.9922,-1.0533,-1.0533,-1.0355,-1.0177,-1.009,-1.0182,1.5528,1.5528,1.5528,1.5438,1.5147,1.5147,1.4857,1.4397,1.431,1.3873,1.3507,1.3178,1.3039,1.2845,1.2845,1.285,1.2714,1.2619,1.2583,1.2556,1.2586,1.2415,1.2415,1.2415,1.2415,1.2415,1.2415,1.2415,1.2415,1.2415,1.2415,1.2415,1.2415,1.1929,1.0952,1.0757,0.9686,0.8024,0.6657,0.5679,0.4505,0.3527,0.2254,0.1373,0.0,0.0,0.0,0.0,0.0,0.0,0.0,0.0,0.0,0.0,0.0,-0.0884,-0.2356,-0.3045,-0.3045,-0.3045,-0.3045,-0.3045,-0.3045,-0.3045,-0.3045,-0.3045,-0.3045,-0.3045,-0.3045,-0.3045,-0.3045,-0.3045,-0.3045,-0.3045,-0.3045,-0.3045,-0.3045,-0.3045,-0.3045,-0.3045,-0.3241,-0.3339,-0.4219,-0.598,-0.6861,-0.7154,-0.7643,-0.7839,-0.9296,-0.9296,-0.9296,-0.9296,-0.9296,-0.9288,-0.928,-0.9306,-0.9215,-0.9116,-0.9008,-0.8889,-0.8986,-0.9165,-0.9255,-0.9373,-0.9566,-0.9826,-1.0177,-1.0177,-1.0355,-1.0792,-1.1052,-1.0879,-1.0792,-1.0874,-1.0869,1.5528,1.5528,1.5438,1.5147,1.476,1.4663,1.4373,1.3779,1.3397,1.3225,1.3019,1.262,1.2533,1.2436,1.2554,1.2415,1.2452,1.2446,1.2415,1.2415,1.2415,1.2415,1.2415,1.2415,1.2415,1.2415,1.2415,1.2415,1.2415,1.2415,1.2415,1.2318,1.1832,1.0952,0.9491,0.9003,0.7634,0.5679,0.4114,0.3234,0.2352,0.1079,0.0,0.0,0.0,0.0,0.0,0.0,0.0,0.0,0.0,0.0,0.0,0.0,0.0,-0.1375,-0.2455,-0.3045,-0.3045,-0.3045,-0.3045,-0.3045,-0.3045,-0.3045,-0.3045,-0.3045,-0.3045,-0.3045,-0.3045,-0.3045,-0.3045,-0.3045,-0.3045,-0.3045,-0.3045,-0.3045,-0.3045,-0.3045,-0.3045,-0.3338,-0.3926,-0.4513,-0.4807,-0.764,-0.8422,-0.9105,-0.9202,-0.93,-0.9296,-0.9296,-0.9296,-0.9296,-0.9288,-0.9264,-0.9221,-0.9211,-0.9104,-0.8997,-0.9013,-0.8904,-0.943,-0.9777,-0.9905,-0.995,-0.9999,-1.0268,-1.0706,-1.0792,-1.13,-1.1306,-1.1398,-1.1824,-1.1996,-1.1651,-1.1732,1.5528,1.5528,1.5051,1.4857,1.4663,1.427,1.3779,1.3397,1.3208,1.2911,1.2614,1.2512,1.2415,1.2415,1.2415,1.2415,1.2415,1.2415,1.2415,1.2415,1.2415,1.2415,1.2415,1.2415,1.2415,1.2415,1.2415,1.2415,1.2415,1.2318,1.2318,1.1832,1.0368,0.9495,0.8418,0.7243,0.5484,0.3722,0.294,0.2059,0.0785,0.0,0.0,0.0,0.0,0.0,0.0,0.0,0.0,0.0,0.0,0.0,0.0,0.0,0.0,-0.1571,-0.2553,-0.3045,-0.3045,-0.3045,-0.3045,-0.3045,-0.3045,-0.3045,-0.3045,-0.3045,-0.3045,-0.3045,-0.3045,-0.3045,-0.3045,-0.3045,-0.3045,-0.3045,-0.3045,-0.3045,-0.3045,-0.3045,-0.3045,-0.3241,-0.6663,-0.8223,-0.8812,-0.9105,-0.9296,-0.9296,-0.9296,-0.9296,-0.9296,-0.9296,-0.9296,-0.9296,-0.9276,-0.9245,-0.9219,-0.9096,-0.8965,-0.895,-0.8945,-0.9253,-0.9768,-1.0254,-1.0553,-1.096,-1.1214,-1.1478,-1.1916,-1.2341,-1.2508,-1.2766,-1.319,-1.3454,-1.354,-1.3362,-1.3362,1.5341,1.5051,1.4863,1.4469,1.3888,1.3585,1.33,1.2809,1.2809,1.2614,1.2512,1.2415,1.2415,1.2415,1.2415,1.2415,1.2415,1.2415,1.2415,1.2415,1.2415,1.2415,1.2415,1.2415,1.2415,1.2415,1.2415,1.2415,1.2221,1.1146,1.0664,1.027,0.8512,0.695,0.5973,0.4701,0.343,0.0,0.1275,0.0981,0.0,0.0,0.0,0.0,0.0,0.0,0.0,0.0,0.0,0.0,0.0,0.0,0.0,0.0,0.0,-0.2356,-0.2848,-0.3045,-0.3045,-0.3045,-0.3045,-0.3045,-0.3045,-0.3045,-0.3045,-0.3045,-0.3045,-0.3045,-0.3045,-0.3045,-0.3045,-0.3045,-0.3045,-0.3143,-0.3045,-0.3632,-0.4907,-0.3926,-0.4317,-0.6372,-0.8129,-0.9296,-0.93,-0.93,-0.9296,-0.9288,-0.9264,-0.9268,-0.9264,-0.9296,-0.9296,-0.9296,-0.9284,-0.9211,-0.9154,-0.8885,-0.8644,-0.8789,-0.8915,-0.9496,-1.0047,-1.0644,-1.1392,-1.2422,-1.2594,-1.311,-1.4564,-1.5584,-1.5242,-1.4985,-1.5242,-1.5413,-1.542,-1.5327,-1.5413,1.5147,1.4766,1.4476,1.3888,1.3208,1.3008,1.2809,1.2512,1.2512,1.2512,1.2415,1.2415,1.2415,1.2415,1.2415,1.2415,1.2415,1.2415,1.2415,1.2415,1.2415,1.2415,1.2415,1.2415,1.2415,1.2318,1.1832,1.1632,1.1443,0.9491,0.8512,0.8418,0.6461,0.4603,0.3233,0.2646,0.1472,0.0,0.0,0.0,0.0,0.0,0.0,0.0,0.0,0.0,0.0,0.0,0.0,0.0,0.0,0.0,0.0,0.0,-0.1276,-0.2651,-0.3045,-0.3045,-0.3045,-0.3045,-0.3045,-0.3045,-0.3045,-0.3045,-0.3045,-0.3045,-0.3045,-0.3045,-0.3045,-0.3045,-0.3045,-0.3045,-0.3045,-0.3143,-0.3732,-0.4613,-0.5593,-0.5395,-0.5784,-0.8617,-0.9105,-0.9296,-0.9296,-0.9292,-0.9354,-0.9262,-0.9227,-0.9227,-0.9151,-0.9147,-0.9044,-0.9048,-0.9159,-0.9102,-0.8966,-0.8679,-0.8653,-0.8983,-0.9966,-1.0792,-1.1732,-1.2335,-1.319,-1.4049,-1.4307,-1.4992,-1.6608,-1.7884,-1.7969,-1.7553,-1.7544,-1.7289,-1.7289,-1.7289,-1.7374,1.476,1.4669,1.3694,1.33,1.3111,1.2712,1.2512,1.2415,1.2415,1.2415,1.2415,1.2415,1.2415,1.2415,1.2415,1.2415,1.2415,1.2415,1.2415,1.2415,1.2415,1.2415,1.2415,1.2415,1.2318,1.1929,1.0372,0.9588,0.9393,0.7438,0.6366,0.6168,0.4408,0.3136,0.2646,0.1079,0.0,0.0,0.0,0.0,0.0,0.0,0.0,0.0,0.0,0.0,0.0,0.0,0.0,0.0,0.0,0.0,0.0,-0.0982,-0.1866,-0.2946,-0.3045,-0.3045,-0.3045,-0.3045,-0.3045,-0.3045,-0.3045,-0.3045,-0.3045,-0.3045,-0.3045,-0.3045,-0.3045,-0.3045,-0.3045,-0.3045,-0.3241,-0.3339,-0.4907,-0.5887,-0.6374,-0.7839,-0.8393,-0.9078,-0.9288,-0.9296,-0.9296,-0.9272,-0.9227,-0.9052,-0.9062,-0.9046,-0.8897,-0.8778,-0.8667,-0.8659,-0.8699,-0.8811,-0.9404,-0.9215,-0.9851,-1.0695,-1.2555,-1.3693,-1.48,-1.5149,-1.5755,-1.5925,-1.6182,-1.7042,-1.8062,-1.8911,-1.9334,-1.9418,-1.9334,-1.9156,-1.9071,-1.9071,-1.9325,1.4379,1.3791,1.3402,1.3008,1.2712,1.2512,1.2415,1.2415,1.2415,1.2415,1.2415,1.2415,1.2415,1.2415,1.2415,1.2415,1.2415,1.2415,1.2415,1.2415,1.2415,1.2415,1.2415,1.2415,1.1832,1.0372,0.8317,0.7344,0.7243,0.5386,0.4312,0.3918,0.2157,0.0,0.1079,0.0,0.0,0.0,0.0,0.0,0.0,0.0,0.0,0.0,0.0,0.0,0.0,0.0,0.0,0.0,0.0,0.0,0.0,-0.0982,-0.2062,-0.2848,-0.3045,-0.3045,-0.3045,-0.3045,-0.3045,-0.3045,-0.3045,-0.3045,-0.3045,-0.3045,-0.3045,-0.3045,-0.3045,-0.3045,-0.3045,-0.3143,-0.3732,-0.4907,-0.6366,-0.735,-0.8132,-0.891,-0.9225,-0.923,-0.917,-0.9195,-0.9266,-0.9255,-0.9016,-0.903,-0.8978,-0.8946,-0.8584,-0.8616,-0.8533,-0.8529,-0.8596,-0.905,-0.9505,-1.0327,-1.1026,-1.2987,-1.522,-1.6584,-1.7188,-1.7366,-1.7374,-1.7544,-1.7969,-1.8741,-1.9681,-2.0357,-2.061,-2.0862,-2.0947,-2.0778,-2.0525,-2.061,-2.061,1.3888,1.3208,1.3008,1.2712,1.2512,1.2415,1.2415,1.2415,1.2415,1.2415,1.2415,1.2415,1.2415,1.2415,1.2415,1.2415,1.2415,1.2415,1.2415,1.2415,1.2415,1.2415,1.2415,1.2415,1.1341,0.9198,0.6559,0.5288,0.4897,0.3135,0.2156,0.1961,0.0687,0.0,0.0,0.0,0.0,0.0,0.0,0.0,0.0,0.0,0.0,0.0,0.0,0.0,0.0,0.0,0.0,0.0,0.0,0.0,0.0,-0.0982,-0.2062,-0.2946,-0.3045,-0.3045,-0.3045,-0.3045,-0.3045,-0.3045,-0.3045,-0.3045,-0.3045,-0.3045,-0.3045,-0.3045,-0.3045,-0.3045,-0.3241,-0.3634,-0.4974,-0.6853,-0.7706,-0.8446,-0.887,-0.91,-0.9293,-0.9619,-0.9944,-0.9915,-0.9877,-0.8998,-0.9167,-0.9863,-1.0223,-1.0604,-1.0516,-1.0614,-0.9648,-0.9817,-0.9129,-0.9498,-1.1592,-1.3209,-1.4187,-1.5903,-1.7867,-1.9503,-1.9165,-1.8995,-1.8911,-1.908,-1.9681,-2.0367,-2.1303,-2.1724,-2.1556,-2.1724,-2.164,-2.1724,-2.1902,-2.1818,-2.1472,1.3208,1.3111,1.2712,1.2512,1.2415,1.2415,1.2415,1.2415,1.2415,1.2415,1.2415,1.2415,1.2415,1.2415,1.2415,1.2415,1.2415,1.2415,1.2415,1.2415,1.2415,1.2415,1.2415,1.2221,1.1049,0.891,0.5095,0.3234,0.3037,0.1275,0.0,0.0,0.0,0.0,0.0,0.0,0.0,0.0,0.0,0.0,0.0,0.0,0.0,0.0,0.0,0.0,0.0,0.0,0.0,0.0,0.0,0.0,0.0,-0.0982,-0.1964,-0.2946,-0.3038,-0.304,-0.3037,-0.313,-0.3025,-0.3025,-0.3134,-0.3025,-0.3022,-0.3123,-0.3124,-0.3124,-0.3134,-0.3241,-0.3536,-0.4988,-0.6847,-0.8503,-0.867,-0.8809,-0.8997,-0.9013,-0.9571,-1.0952,-1.2059,-1.2031,-1.1068,-0.991,-0.9924,-1.1566,-1.225,-1.2809,-1.4293,-1.3937,-1.3171,-1.3079,-1.233,-1.2077,-1.395,-1.6073,-1.7358,-1.8563,-2.0272,-2.1209,-2.062,-2.0451,-2.0282,-2.0367,-2.0957,-2.1051,-2.1902,-2.1986,-2.1986,-2.2154,-2.1986,-2.1902,-2.1986,-2.1986,-2.1986,1.3008,1.2712,1.2512,1.2415,1.2415,1.2415,1.2415,1.2415,1.2415,1.2415,1.2415,1.2415,1.2415,1.2415,1.2415,1.2415,1.2415,1.2415,1.2415,1.2415,1.2415,1.2415,1.2221,1.0956,0.9296,0.7048,0.4409,0.2353,0.1079,0.0294,0.0,0.0,0.0,0.0,0.0,0.0,0.0,0.0,0.0,0.0,0.0,0.0,0.0,0.0,0.0,0.0,0.0,0.0,0.0,0.0,0.0,0.0,0.0,-0.0982,-0.1964,-0.2938,-0.2781,-0.274,-0.2929,-0.3024,-0.2929,-0.2929,-0.2929,-0.2929,-0.3024,-0.2929,-0.2928,-0.2947,-0.3087,-0.3828,-0.5177,-0.6896,-0.8264,-0.8736,-0.8978,-0.9384,-1.0436,-1.0322,-1.0501,-1.1494,-1.3525,-1.4241,-1.319,-1.1899,-1.1979,-1.3086,-1.393,-1.4949,-1.6823,-1.7689,-1.8639,-1.7034,-1.53,-1.5386,-1.6189,-1.8385,-2.0104,-2.0357,-2.1556,-2.1724,-2.1556,-2.164,-2.165,-2.1818,-2.1902,-2.1902,-2.1986,-2.1986,-2.2154,-2.2406,-2.2406,-2.2238,-2.207,-2.1986,-2.2154,1.2684,1.2401,1.2475,1.2415,1.2415,1.2415,1.2415,1.2415,1.2415,1.2415,1.2415,1.2415,1.2415,1.2415,1.2415,1.2415,1.2415,1.2415,1.2415,1.2415,1.1632,1.1346,1.1146,0.9198,0.7145,0.519,0.3722,0.2059,0.0,0.0,0.0,0.0,0.0,0.0,0.0,0.0,0.0,0.0,0.0,0.0,0.0,0.0,0.0,0.0,0.0,0.0,0.0,0.0,0.0,0.0,0.0,0.0,0.0,-0.066,-0.1422,-0.2393,-0.2521,-0.2667,-0.2868,-0.2947,-0.2943,-0.287,-0.2874,-0.2878,-0.2869,-0.2835,-0.2812,-0.2821,-0.2884,-0.4232,-0.6367,-0.8008,-0.8699,-0.8785,-0.8781,-0.9369,-1.0551,-1.0841,-1.1116,-1.2457,-1.4228,-1.587,-1.5171,-1.4564,-1.4471,-1.5569,-1.6321,-1.7256,-1.8706,-2.0422,-2.1209,-1.9963,-1.9009,-1.8524,-1.8478,-2.0704,-2.1986,-2.1986,-2.1986,-2.1986,-2.1986,-2.1986,-2.1986,-2.1976,-2.1986,-2.1986,-2.207,-2.2154,-2.2657,-2.2908,-2.2814,-2.2646,-2.2479,-2.2646,-2.2646,1.2169,1.2295,1.239,1.2454,1.2378,1.2362,1.2373,1.2342,1.2378,1.2394,1.248,1.2501,1.2399,1.2362,1.2336,1.2373,1.2373,1.2352,1.2347,1.2148,1.032,0.9366,0.9179,0.7133,0.5084,0.3515,0.2838,0.1765,0.0,0.0,0.0,0.0,0.0,0.0,0.0,0.0,0.0,0.0,0.0,0.0,0.0,0.0,0.0,0.0,0.0,0.0,0.0,0.0,0.0,0.0,0.0,0.0,0.0,0.0,-0.0535,-0.1378,-0.227,-0.2808,-0.2844,-0.2903,-0.2895,-0.2941,-0.2944,-0.2861,-0.2844,-0.277,-0.2721,-0.2708,-0.2728,-0.422,-0.7294,-0.8178,-0.8405,-0.8393,-0.8464,-0.9255,-1.0538,-1.0997,-1.1996,-1.3957,-1.4907,-1.5684,-1.7492,-1.7322,-1.7825,-1.8665,-1.9428,-1.9756,-2.0516,-2.1283,-2.1808,-2.165,-2.164,-2.1808,-2.1818,-2.1986,-2.1986,-2.1986,-2.1986,-2.1976,-2.1986,-2.1986,-2.1976,-2.1976,-2.1976,-2.207,-2.2144,-2.2563,-2.3148,-2.3159,-2.3148,-2.3148,-2.2981,-2.3243,-2.3159,1.1931,1.1936,1.1989,1.2015,1.2015,1.2021,1.2015,1.2036,1.22,1.2269,1.229,1.2347,1.2332,1.2047,1.2015,1.2015,1.2015,1.2021,1.2015,1.1736,1.0045,0.9204,0.8837,0.5621,0.3648,0.2983,0.1558,0.0,0.0,0.0,0.0,0.0,0.0,0.0,0.0,0.0,0.0,0.0,0.0,0.0,0.0,0.0,0.0,0.0,0.0,0.0,0.0,0.0,0.0,0.0,0.0,0.0,0.0,0.0,-0.0088,-0.0443,-0.1324,-0.2028,-0.2747,-0.2735,-0.2733,-0.2747,-0.2749,-0.2749,-0.2744,-0.2721,-0.2705,-0.279,-0.2703,-0.3658,-0.618,-0.7573,-0.8267,-0.8444,-0.9398,-1.0436,-1.1726,-1.2926,-1.4043,-1.5777,-1.5956,-1.6476,-1.7237,-1.8929,-2.0113,-2.0357,-2.0862,-2.1387,-2.164,-2.1724,-2.1986,-2.1986,-2.1986,-2.1986,-2.1986,-2.1986,-2.1986,-2.1986,-2.1986,-2.2154,-2.249,-2.2154,-2.1976,-2.2395,-2.206,-2.2144,-2.2814,-2.3304,-2.3793,-2.3482,-2.3315,-2.3315,-2.3399,-2.3327,-2.3327,1.1688,1.1698,1.188,1.183,1.183,1.183,1.183,1.1841,1.1984,1.2036,1.2157,1.2174,1.2089,1.1836,1.183,1.183,1.183,1.183,1.183,1.1647,0.8958,0.7757,0.7395,0.3652,0.179,0.1697,0.0572,0.0,0.0,0.0,0.0,0.0,0.0,0.0,0.0,0.0,0.0,0.0,0.0,0.0,0.0,0.0,0.0,0.0,0.0,0.0,0.0,0.0,0.0,0.0,0.0,0.0,0.0,0.0,-0.0175,-0.0524,-0.1046,-0.1743,-0.2703,-0.2767,-0.2764,-0.2702,-0.3139,-0.3139,-0.279,-0.3486,-0.3921,-0.3834,-0.3225,-0.3573,-0.5485,-0.7309,-0.8618,-0.9225,-0.9917,-1.1214,-1.3098,-1.4128,-1.5163,-1.6484,-1.6749,-1.6749,-1.7168,-1.9192,-2.0788,-2.1367,-2.1545,-2.1818,-2.1902,-2.1986,-2.1986,-2.1986,-2.1986,-2.1986,-2.1986,-2.1986,-2.1986,-2.1976,-2.2144,-2.2395,-2.2803,-2.2792,-2.297,-2.2814,-2.273,-2.2898,-2.3649,-2.4126,-2.4281,-2.4126,-2.3888,-2.3888,-2.3888,-2.3888,-2.3888,1.1371,1.1413,1.1608,1.1735,1.1714,1.1741,1.1746,1.1751,1.1793,1.1788,1.1756,1.1767,1.1762,1.1767,1.1725,1.1698,1.1698,1.1709,1.1597,1.0967,0.7512,0.5686,0.5228,0.1752,0.0,0.0,0.0,0.0,0.0,0.0,0.0,0.0,0.0,0.0,0.0,0.0,0.0,0.0,0.0,0.0,0.0,0.0,0.0,0.0,0.0,0.0,0.0,0.0,0.0,-0.0087,0.0,0.0,0.0,0.0,-0.0435,-0.1133,-0.1395,-0.1826,-0.2597,-0.2639,-0.2716,-0.2768,-0.3643,-0.3822,-0.3039,-0.4938,-0.6148,-0.5659,-0.4268,-0.427,-0.5746,-0.7285,-0.8918,-1.0335,-1.0955,-1.1813,-1.3957,-1.4643,-1.5249,-1.657,-1.6749,-1.6749,-1.6912,-1.8419,-2.0104,-2.1545,-2.1902,-2.1986,-2.1986,-2.1986,-2.1986,-2.1986,-2.1986,-2.1986,-2.1986,-2.1986,-2.1986,-2.1976,-2.2458,-2.2876,-2.3293,-2.3782,-2.4364,-2.3388,-2.3221,-2.3638,-2.4281,-2.4696,-2.4613,-2.4447,-2.453,-2.4613,-2.4696,-2.4613,-2.4496,1.0751,1.0777,1.0927,1.0942,1.0952,1.113,1.1214,1.1225,1.1482,1.1455,1.1313,1.1214,1.1297,1.1276,1.1015,1.0942,1.091,1.0832,1.0089,0.8683,0.646,0.4694,0.3268,0.1168,0.0,0.0,0.0,0.0,0.0,0.0,0.0,0.0,0.0,0.0,0.0,0.0,0.0,0.0,0.0,0.0,0.0,0.0,0.0,0.0,0.0,0.0,0.0,0.0,-0.0175,-0.0523,-0.0516,-0.0601,-0.1044,-0.0931,-0.0675,-0.0435,-0.1657,-0.2322,-0.2168,-0.2397,-0.2562,-0.2576,-0.3542,-0.4083,-0.4164,-0.7687,-0.9555,-0.8044,-0.7198,-0.7122,-0.7627,-0.8029,-0.9086,-1.1693,-1.2932,-1.3838,-1.455,-1.5599,-1.6391,-1.657,-1.6749,-1.6725,-1.6997,-1.8335,-2.001,-2.1525,-2.1986,-2.1986,-2.1986,-2.1986,-2.1986,-2.1986,-2.1986,-2.1955,-2.1986,-2.1986,-2.1986,-2.1986,-2.2468,-2.3054,-2.3638,-2.4209,-2.4376,-2.3971,-2.4055,-2.4364,-2.4613,-2.4672,-2.4661,-2.4684,-2.4637,-2.4649,-2.4626,-2.4614,-2.4543,1.0522,1.0467,1.0606,1.0701,1.0727,1.0957,1.1057,1.1062,1.1073,1.1005,1.091,1.1015,1.1057,1.1047,1.0926,1.0863,1.0773,0.9971,0.8966,0.7951,0.5391,0.362,0.2617,0.0882,0.0,0.0,0.0,0.0,0.0,0.0,0.0,0.0,0.0,0.0,0.0,0.0,0.0,0.0,0.0,0.0,0.0,0.0,0.0,0.0,0.0,0.0,0.0,0.0,-0.0166,-0.0658,-0.065,-0.0965,-0.1754,-0.1713,-0.1505,-0.1182,-0.2119,-0.2496,-0.2228,-0.238,-0.2868,-0.362,-0.4717,-0.5946,-0.7172,-1.0518,-1.1148,-0.8244,-0.7881,-0.7941,-0.81,-0.9467,-1.1021,-1.2808,-1.3975,-1.489,-1.5562,-1.6564,-1.7143,-1.7052,-1.6903,-1.6738,-1.6713,-1.7951,-1.9544,-2.1568,-2.1757,-2.1757,-2.1944,-2.1632,-2.1402,-2.159,-2.1475,-2.1517,-2.1913,-2.1986,-2.1986,-2.1986,-2.2646,-2.3232,-2.3566,-2.4304,-2.4459,-2.4376,-2.4447,-2.4696,-2.4696,-2.4461,-2.4438,-2.4508,-2.4661,-2.4576,-2.4528,-2.4502,-2.4215,1.0463,1.049,1.0596,1.0685,1.0674,1.091,1.1075,1.1027,1.0748,1.0653,1.0674,1.0874,1.0978,1.1005,1.0973,1.1064,1.0918,0.9068,0.8122,0.78,0.4338,0.2522,0.2267,0.0786,0.0,0.0,0.0,0.0,0.0,0.0,0.0,0.0,0.0,0.0,0.0,0.0,0.0,0.0,0.0,0.0,0.0,0.0,0.0,0.0,0.0,0.0,0.0,0.0,-0.0156,-0.0612,-0.0609,-0.1113,-0.2044,-0.2263,-0.2358,-0.247,-0.249,-0.2519,-0.2477,-0.2477,-0.3115,-0.4586,-0.6082,-0.8049,-1.0789,-1.2598,-1.2151,-0.8928,-0.826,-0.8076,-0.8997,-1.1453,-1.3147,-1.3846,-1.4548,-1.543,-1.6502,-1.738,-1.7761,-1.7681,-1.7213,-1.6958,-1.6539,-1.7539,-1.9235,-2.1096,-2.1463,-2.139,-2.1496,-2.11,-2.0898,-2.1097,-2.0909,-2.0954,-2.1507,-2.1851,-2.1882,-2.1913,-2.2554,-2.3148,-2.307,-2.3761,-2.4215,-2.4496,-2.4473,-2.4461,-2.4352,-2.3988,-2.3905,-2.4527,-2.4451,-2.4291,-2.4104,-2.4486,-2.4483,1.0145,1.0187,1.0528,1.059,1.0602,1.0664,1.0653,1.0562,1.0596,0.0,0.0,1.0541,1.0668,1.0753,1.0647,1.0668,1.058,0.8647,0.6996,0.568,0.3565,0.1801,0.0524,0.0175,0.0,0.0,0.0,0.0,0.0,0.0,0.0,0.0,0.0,0.0,0.0,0.0,0.0,0.0,0.0,0.0,0.0,0.0,0.0,0.0,0.0,0.0,0.0,0.0,-0.023,-0.0687,-0.0973,-0.1148,-0.1205,-0.1939,-0.2357,-0.2399,-0.2402,-0.2349,-0.2231,-0.2198,-0.2406,-0.2797,-0.5113,-0.7662,-1.0412,-1.2465,-1.3514,-1.3279,-1.1455,-1.1372,-1.3894,-1.349,-1.3532,-1.5048,-1.5901,-1.6444,-1.6771,-1.7407,-1.7969,-1.8261,-1.8145,-1.7385,-1.5576,-1.7428,-1.958,-2.0541,-2.0798,-2.0766,-2.0798,-2.0683,-2.0548,-2.0641,-2.0558,-2.06,-2.0912,-2.1413,-2.1714,-2.1519,-2.2154,-2.2472,-2.2257,-2.2643,-2.3265,-2.3872,-2.3863,-2.3708,-2.322,-2.3039,-2.3298,-2.4202,-2.41,-2.374,-2.3595,-2.4643,-2.5718,0.9633,0.9665,0.9862,0.994,0.0,1.0202,1.0166,0.9819,0.986,1.0044,1.0266,1.0469,1.0504,1.0605,1.0488,1.0499,1.044,0.7698,0.6071,0.539,0.2574,0.092,0.0254,0.0085,0.0,0.0,0.0,0.0085,0.0258,0.0085,0.0084,0.0333,0.0084,0.0,0.0,0.0,0.0,0.0,0.0,0.0,0.0,0.0,0.0,0.0,0.0,0.0,0.0,0.0,0.0,0.0,0.0,0.0,0.0,-0.1655,-0.2092,-0.2152,-0.2157,-0.2203,-0.2541,-0.2921,-0.2854,-0.2328,-0.5253,-0.7597,-0.8757,-1.0725,-1.2369,-1.3387,-1.282,-1.2916,-1.441,-1.4086,-1.4234,-1.5433,-1.6234,-1.6696,-1.6853,-1.7616,-1.8235,-1.8186,-1.8059,-1.7889,-1.7038,-1.8004,-1.9014,-2.037,-2.05,-2.0417,-2.0506,-2.0204,-1.9901,-1.9891,-1.9891,-2.02,-2.0986,-2.1359,-2.123,-2.1526,-2.2079,-2.2274,-2.1784,-2.2281,-2.2907,-2.3265,-2.3203,-2.3006,-2.2711,-2.2748,-2.2931,-2.3294,-2.3299,-2.3356,-2.4107,-2.547,-2.6774,0.918,0.9207,0.9363,0.9364,0.9348,0.9701,0.9569,0.9063,0.9226,0.9543,0.9973,1.017,1.0277,1.024,1.024,1.0341,1.0298,0.7081,0.5889,0.6159,0.2597,0.114,0.1471,0.0818,0.0495,0.0503,0.0165,0.0165,0.0504,0.0165,0.0162,0.0558,0.0243,0.0162,0.0158,0.0,0.0,0.0,0.0078,0.0079,0.0239,0.0078,0.0077,0.0076,0.0,0.0,0.0,0.0,-0.0142,-0.0475,-0.0681,0.0,-0.0786,0.0,0.0,0.0,0.0,0.0,0.0,0.0,0.0,0.0,-0.5811,-0.7654,-0.7507,-0.8976,-1.0531,-1.1889,-1.2835,-1.344,-1.3567,-1.4032,-1.456,-1.5355,-1.615,-1.6705,-1.689,-1.7813,-1.8442,-1.816,-1.7945,-1.8122,-1.8858,-1.8542,-1.8609,-1.9987,-2.0103,-2.004,-2.0421,-1.9918,-1.9381,-1.9297,-1.9433,-1.9973,-2.1293,-2.1071,-2.116,-2.1557,-2.2185,-2.231,-2.2003,-2.2337,-2.28,-2.3154,-2.278,-2.2588,-2.2912,-2.2912,-2.2805,-2.2817,-2.2817,-2.3369,-2.5341,-2.6862,-2.7864,0.928,0.9301,0.9606,0.9585,0.9301,0.9084,0.8887,0.8818,0.9057,0.9196,0.9249,0.9276,0.9409,0.9527,0.9458,0.9787,1.0204,0.8129,0.7441,0.7894,0.5537,0.4562,0.4729,0.3021,0.2209,0.2133,0.0655,0.0,0.0082,0.0,0.0163,0.0571,0.049,0.0486,0.0474,0.0522,0.051,0.0518,0.0155,0.032,0.0978,0.0319,0.0156,0.0458,0.015,0.0,0.0,0.0,0.0,-0.0132,-0.0528,-0.0593,-0.0197,-0.1419,-0.1964,0.0,-0.2403,0.0,0.0,0.0,0.0,0.0,0.0,0.0,0.0,-0.8461,-0.9156,-1.0445,-1.1787,-1.2859,-1.3597,-1.327,-1.3526,-1.4751,-1.5666,-1.6521,-1.7297,-1.7722,-1.8282,-1.8994,-1.8371,-1.8187,-1.9025,-1.9129,-1.9066,-1.939,-1.9391,-1.959,-2.0024,-2.0092,-1.9765,-1.9287,-1.9653,-2.0063,-2.0606,-2.1122,-2.149,-2.1613,-2.2027,-2.2322,-2.2636,-2.2782,-2.2941,-2.3269,-2.3181,-2.3116,-2.3631,-2.3429,-2.3116,-2.2837,-2.3112,-2.4287,-2.7088,-2.8987,-3.0212,0.875,0.8761,0.8935,0.8919,0.8734,0.8597,0.8502,0.8589,0.8813,0.8914,0.8924,0.9057,0.9251,0.9419,0.9419,0.9616,0.9715,0.7812,0.7349,0.7941,0.5862,0.4629,0.4228,0.3096,0.2055,0.108,0.0381,0.0076,0.0309,0.0076,0.015,0.0594,0.0376,0.0372,0.0573,0.0829,0.0688,0.0283,0.0512,0.0835,0.11,0.0624,0.0386,0.0611,0.0447,0.0219,0.0,0.0,0.0,0.0,-0.0198,-0.0262,0.0,-0.1232,-0.2018,0.0,0.0,0.0,0.0,0.0,0.0,0.0,0.0,0.0,0.0,0.0,-0.7541,-0.919,-1.0932,-1.2427,-1.3423,-1.3428,-1.3678,-1.4356,-1.4902,-1.536,-1.5896,-1.6742,-1.7328,-1.7685,-1.7723,-1.7693,-1.7727,-1.8577,-1.9213,-1.9203,-1.9155,-1.9532,-2.0513,-2.0893,-2.0649,-1.9834,-2.0019,-2.03,-2.0603,-2.1175,-2.161,-2.1671,-2.2599,-2.3665,-2.4165,-2.478,-2.522,-2.5305,-2.5447,-2.5716,-2.6281,-2.6578,-2.6013,-2.4473,-2.4768,-2.6496,-2.8057,-2.9907,-3.1279,0.8748,0.8731,0.8301,0.8042,0.7985,0.8042,0.8137,0.8206,0.8499,0.8575,0.8509,0.8775,0.8969,0.9036,0.8908,0.8986,0.9175,0.7732,0.7603,0.8325,0.6625,0.5542,0.487,0.3601,0.2286,0.1091,0.0357,0.0143,0.0364,0.0142,0.0208,0.0545,0.0203,0.0199,0.0573,0.0896,0.0719,0.0135,0.0901,0.1224,0.0982,0.0833,0.0757,0.0833,0.0739,0.0509,0.0217,0.0213,0.0207,0.0134,0.0198,0.0194,0.0,-0.0869,0.0,0.0,0.0,0.0,0.0,0.0,0.0,0.0,0.0,-0.5435,-0.6464,0.0,-0.646,0.0,-1.0481,-1.238,-1.3394,-1.3324,0.0,0.0,-1.433,-1.4466,-1.439,-1.5685,-1.6665,-1.6951,-1.6675,-1.6395,-1.6297,-1.7944,-1.9165,-1.9052,-1.9291,-1.996,-2.1294,-2.186,-2.1665,-2.043,-2.0446,-2.0641,-2.0672,-2.1106,-2.1682,-2.1981,-2.3508,-2.4921,-2.5532,-2.6348,-2.6845,-2.6752,-2.7081,-2.7767,-2.8622,-2.8874,-2.7904,-2.6333,-2.7432,-2.9158,-2.9158,-3.0404,-3.1634,0.9824,0.9697,0.812,0.7157,0.6818,0.7267,0.7503,0.7704,0.803,0.8036,0.772,0.8061,0.7965,0.7539,0.7335,0.0,0.8265,0.8493,0.9104,1.0242,0.9638,0.9388,0.938,0.5927,0.4249,0.4041,0.1345,0.0,0.0,0.0,0.0205,0.0543,0.0185,0.0175,0.0522,0.0596,0.0622,0.0525,0.1282,0.1331,0.0663,0.0959,0.1255,0.1623,0.1224,0.0913,0.0892,0.0889,0.0801,0.0571,0.0776,0.0624,0.0055,0.0,0.0,0.0,0.0,0.0,0.0,0.0,0.0,0.0,0.0,0.0,0.0,0.0,0.0,-0.7254,-1.0595,0.0,-1.3718,-1.2394,0.0,0.0,0.0,-1.433,-1.3271,-1.4962,-1.675,-1.8141,0.0,0.0,-1.5277,-1.7462,-1.8792,-1.8606,-1.9864,-2.1122,-2.1834,-2.2528,-2.2575,-2.0667,-2.0983,-2.1175,-2.0487,-2.0989,-2.1893,-2.2909,-2.4471,-2.5471,-2.5943,-2.6219,-2.6204,-2.6396,-2.6189,-2.7033,-2.99,-2.8126,-2.7082,-2.9358,-3.0469,-3.1102,-3.1004,-3.1219,-3.1471,0.9233,0.8917,0.6995,0.6264,0.6414,0.6565,0.6831,0.6969,0.7133,0.7133,0.7011,0.719,0.7145,0.703,0.6941,0.0,0.0,0.0,0.7181,0.8265,0.8041,0.7597,0.6849,0.5413,0.3685,0.1779,0.0527,0.0,0.0,0.0,0.0061,0.011,0.0,-0.0205,0.0105,0.0282,0.0298,0.0249,0.1256,0.1376,0.0632,0.1427,0.187,0.1725,0.1543,0.1308,0.0953,0.0924,0.0885,0.0596,0.0768,0.0589,0.0,0.0,0.0,0.0,0.0,0.0,0.0,0.0,0.0,0.0,0.0,-0.4694,-0.563,0.0,0.0,0.0,-0.9158,-1.1194,-1.2424,-1.2172,0.0,0.0,0.0,0.0,0.0,0.0,0.0,-1.4884,-1.4391,-1.4412,-1.5252,-1.6714,-1.7988,-1.8958,-1.9073,-1.9933,-2.2016,0.0,-1.962,-2.1039,-2.1422,-2.1555,-2.1327,-2.1772,-2.2112,-2.2073,-2.4181,-2.6151,-2.6638,-2.8017,-2.906,-2.9267,-2.933,-2.943,-2.9626,-2.7938,-2.713,-2.9211,-2.9495,-2.9484,-3.0002,-3.0481,-3.0793,0.7996,0.0,0.0,0.0,0.0,0.558,0.5751,0.6093,0.6183,0.6178,0.6132,0.6195,0.0,0.0,0.0,0.0,0.0,0.0,0.6036,0.6823,0.7064,0.6488,0.5185,0.4748,0.317,0.0611,0.018,0.0,0.0,-0.0167,-0.0251,-0.026,0.0,0.0,0.0,0.0,0.0112,0.0234,0.1084,0.1341,0.0953,0.1803,0.2173,0.1892,0.1912,0.1676,0.1264,0.1198,0.1007,0.0715,0.0709,0.0,0.0,0.0,0.0,0.0,0.0,0.0,0.0,0.0,0.0,0.0,0.0,0.0,0.0,0.0,0.0,0.0,0.0,0.0,-1.0743,-1.1435,-1.2024,0.0,0.0,0.0,0.0,0.0,0.0,0.0,0.0,0.0,-1.5806,-1.6366,-1.7378,0.0,0.0,-2.003,-2.2214,-1.9409,-1.8036,-2.0691,-2.1938,0.0,-2.2061,-2.2345,-2.2492,-2.2022,-2.4231,-2.6211,-2.6724,-2.816,-2.9221,-2.9315,-2.9575,-2.9026,-2.7156,-2.6387,-2.6856,-2.8177,-2.8022,-2.7675,-2.8275,-2.8695,-2.8978,0.0,0.0,0.0,0.0,0.3976,0.0,0.0,0.0,0.5181,0.5137,0.0,0.519,0.0,0.0,0.0,0.0,0.4976,0.5851,0.0,0.0,0.759,0.7353,0.5895,0.456,0.3265,0.2054,0.0645,0.0,0.0,-0.0518,-0.0604,0.0,0.0,0.0,0.0,0.0,0.0051,0.0547,0.0843,0.1228,0.1697,0.1975,0.2113,0.211,0.2124,0.2067,0.1887,0.172,0.1481,0.0987,0.0744,0.0,0.0,0.0,0.0,0.0,0.0,0.0,0.0,0.0,0.0,0.0,0.0,0.0,0.0,0.0,0.0,0.0,0.0,0.0,0.0,-0.982,0.0,0.0,0.0,0.0,0.0,0.0,0.0,0.0,0.0,-1.6573,-1.6948,-1.6665,-1.7114,-1.9177,0.0,0.0,0.0,0.0,-1.8978,-1.9542,-2.2592,-2.4123,-2.1984,-2.2055,-2.2774,-2.3929,0.0,0.0,-2.6307,-2.5709,-2.509,-2.4639,-2.5253,-2.4455,-2.1405,-2.3371,-2.5846,-2.7229,-2.6994,-2.6684,-2.6664,-2.6388,-2.6119,0.0,0.0,0.0,0.0,0.0,0.0,0.0,0.0,0.0,0.4203,0.4106,0.4173,0.0,0.0,0.0,0.0,0.0,0.0,0.0,0.0,0.4626,0.4448,0.3465,0.3155,0.2047,0.0249,-0.0523,-0.0865,0.0,0.0,0.0,0.0,0.0,0.0,0.0,0.0,0.0147,0.0581,0.1128,0.1457,0.1614,0.1873,0.2004,0.2004,0.2011,0.1995,0.1954,0.1689,0.1334,0.0,0.0,0.0,0.0,0.0,0.0,0.0,0.0,0.0,0.0,0.0,0.0,0.0,0.0,0.0,0.0,0.0,0.0,0.0,0.0,0.0,0.0,0.0,-1.1996,0.0,0.0,0.0,0.0,0.0,0.0,0.0,0.0,0.0,-1.6181,-1.7122,-1.8403,-2.0235,-2.0965,-2.1176,-2.0677,0.0,0.0,0.0,0.0,0.0,0.0,0.0,-2.3343,-2.2542,-2.3365,-2.4221,-2.4267,-2.4673,-2.4895,-2.4409,0.0,0.0,-1.9605,-2.1421,-2.4435,-2.7142,-2.5511,-2.4105,-2.5397,-2.4833,-2.4602,0.0,0.0,0.0,0.0,0.0,0.0,0.0,0.0,0.0,0.4201,0.4231,0.0,0.0,0.0,0.0,0.0,0.0,0.0,0.0,0.0,0.0,0.0,0.1866,0.1764,0.0,0.0,0.0,0.0,0.0,0.0,0.0,0.0,0.0,0.0,0.0,0.0,0.0136,0.0689,0.1195,0.1531,0.167,0.1892,0.1965,0.1947,0.1972,0.1954,0.1999,0.0,0.0,0.0,0.0,0.0,0.0,0.0,0.0,0.0,0.0,0.0,0.0,0.0,0.0,0.0,0.0,0.0,0.0,0.0,0.0,0.0,0.0,0.0,0.0,0.0,-1.2093,0.0,0.0,0.0,0.0,0.0,0.0,0.0,0.0,0.0,0.0,-1.7248,-1.9814,-2.0897,-2.1078,-2.1301,-2.1672,-2.2516,-2.3867,0.0,0.0,0.0,0.0,0.0,0.0,0.0,0.0,0.0,0.0,0.0,0.0,0.0,-2.2268,-2.0913,-1.8323,-1.9505,-2.1982,-2.5503,0.0,0.0,0.0,0.0,0.0,0.0,0.0,0.0,0.0,0.0,0.0,0.0,0.0,0.0,0.0,0.5219,0.0,0.0,0.5101,0.0,0.0,0.0,0.0,0.0,0.0,0.0,0.0,0.0,0.0,0.0,0.0,0.0,0.0,0.0,0.0,0.0,0.0,0.0,0.0,0.0,0.0,0.008,0.092,0.1215,0.1572,0.192,0.2093,0.2123,0.2001,0.2001,0.2065,0.222,0.0,0.0,0.0,0.0,0.0,0.0,0.0,0.0,0.0,0.0,0.0,0.0,0.0,0.0,0.0,0.0,0.0,0.0,0.0,0.0,0.0,0.0,0.0,0.0,0.0,0.0,-1.1257,-1.2133,-1.2895,0.0,0.0,0.0,0.0,0.0,0.0,0.0,0.0,0.0,-2.0937,-2.1461,-2.2745,-2.5205,-2.4849,-2.4694,-2.5718,-2.4698,-2.3889,-2.4305,-2.4067,-2.3826,0.0,0.0,0.0,0.0,0.0,0.0,0.0,0.0,0.0,0.0,0.0,0.0,0.0,0.0,0.0,0.0,0.0,0.0,0.0,0.0,0.0,0.0,0.0,0.0,0.0,0.0,0.0,0.0,0.0,0.0,0.0,0.0,0.0,0.0,0.0,0.0,0.0,0.0,0.0,0.0,0.0,0.0,0.0,0.0,0.0,0.0,0.0,0.0,0.0,0.0,0.0,0.0,0.0,0.0,0.058,0.0961,0.1368,0.1668,0.1801,0.2649,0.2885,0.2516,0.3448,0.3828,0.3519,0.0,0.0,0.0,0.0,0.0,0.0,0.0,0.0,0.0,0.0,0.0,0.0,0.0,0.0,0.0,0.0,0.0,0.0,0.0,0.0,0.0,0.0,0.0,0.0,0.0,0.0,0.0,-1.4542,-1.5194,-1.4329,0.0,0.0,0.0,0.0,0.0,0.0,0.0,0.0,0.0,0.0,-2.2985,-2.2699,-2.598,-2.7969,-2.6597,-2.73,-2.7509,-2.6009,-2.422,-2.3045,-2.3128,0.0,0.0,0.0,0.0,0.0,0.0,0.0,0.0,0.0,0.0,0.0,0.0,0.0,0.0,0.0,0.0,0.0,0.0,0.0,0.0,0.0,0.0,0.0,0.0,0.0,0.0,0.0,0.0,0.0,0.0,0.0,0.0,0.0,0.0,0.0,0.0,0.0,0.0,0.0,0.0,0.0,0.0,0.0,0.0,0.0,0.0,0.0,0.0,0.0,0.0,0.0,0.0,0.0,0.055,0.1124,0.1741,0.2206,0.258,0.344,0.4111,0.4351,0.4956,0.5163,0.0,0.0,0.0,0.0,0.0,0.0,0.0,0.0,0.0,0.0,0.0,0.0,0.0,0.0,0.0,0.0,0.0,0.0,0.0,0.0,0.0,0.0,0.0,0.0,0.0,0.0,0.0,0.0,-1.386,-1.4926,-1.5287,0.0,0.0,0.0,0.0,0.0,0.0,0.0,0.0,0.0,0.0,-2.2349,-2.3159,-2.5271,0.0,0.0,-2.7574,-2.7076,-2.5997,-2.4782,-2.3543,-2.2217,-2.1696,0.0,0.0,0.0,0.0,0.0,0.0,0.0,0.0,0.0,0.0,0.0,0.0,0.0,0.0,0.0,0.0,0.0,0.0,0.0,0.0,0.0,0.0,0.0,0.0,0.0,0.0,0.0,0.0,0.0,0.0,0.0,0.0,0.0,0.0,0.0,0.0,0.0,0.0,0.0,0.0,0.0,0.0,0.0,0.0,0.0,0.0,0.0,0.0,0.0,0.0,0.0,0.0,0.0206,0.1382,0.2253,0.3154,0.4048,0.4666,0.5668,0.7062,0.653,0.6344,0.0,0.0,0.0,0.0,0.0,0.0,0.0,0.0,0.0,0.0,0.0,0.0,0.0,0.0,0.0,0.0,0.0,0.0,0.0,0.0,0.0,0.0,0.0,0.0,0.0,0.0,0.0,0.0,0.0,0.0,0.0,0.0,0.0,0.0,0.0,0.0,0.0,0.0,0.0,0.0,0.0,-2.0949,-2.5393,-2.33,-2.318,0.0,-2.5951,-2.383,-2.462,-2.5498,-2.4807,-2.1088,0.0,0.0,0.0,0.0,0.0,0.0,0.0,0.0,0.0,0.0,0.0,0.0,0.0,0.0,0.0,0.0,0.0,0.0,0.0,0.0,0.0,0.0,0.0,0.0,0.0,0.0,0.0,0.0,0.0,0.0,0.0,0.0,0.0,0.0,0.0,0.0,0.0,0.0,0.0,0.0,0.0,0.0,0.0,0.0,0.0,0.0,0.0,0.0,0.0,0.0,0.0,0.0,0.0,0.0,0.1946,0.3374,0.4691,0.5762,0.732,0.8388,0.8874,0.9658,0.0,0.0,0.0,0.0,0.0,0.0,0.0,0.0,0.0,0.0,0.0,0.0,0.0,0.0,0.0,0.0,0.0,0.0,0.0,0.0,0.0,0.0,0.0,0.0,0.0,0.0,0.0,-1.0973,0.0,0.0,0.0,0.0,0.0,0.0,0.0,0.0,0.0,0.0,0.0,0.0,0.0,0.0,-2.0064,-1.9546,-2.2282,-2.4953,0.0,0.0,-2.4093,-2.327,-2.4052,-2.3584,0.0,0.0,0.0,0.0,0.0,0.0,0.0,0.0,0.0,0.0,0.0,0.0,0.0,0.0,0.0,0.0,0.0,0.0,0.0,0.0,0.0,0.0,0.0,0.0,0.0,0.0,0.0,0.0,0.0,0.0,0.0,0.0,0.0,0.0,0.0,0.0,0.0,0.0,0.0,0.0,0.0,0.0,0.0,0.0,0.0,0.0,0.0,0.0,0.0,0.0,0.0,0.0,0.0,0.0,0.4353,0.4755,0.6018,0.7305,0.8612,1.027,1.1674,1.2683,1.2922,1.2358,0.0,0.0,0.0,0.0,0.0,0.0,0.0,0.0,0.0,0.0,0.0,0.0,0.0,0.0,0.0,0.0,0.0,0.0,0.0,0.0,0.0,0.0,0.0,0.0,0.0,0.0,0.0,0.0,0.0,0.0,0.0,0.0,0.0,0.0,0.0,0.0,0.0,0.0,0.0,0.0,0.0,0.0,-1.9967,-2.1036,0.0,0.0,0.0,-2.3828,-2.2857,0.0,0.0,0.0,0.0,0.0,0.0,0.0,0.0,0.0,0.0,0.0,0.0,0.0,0.0,0.0,0.0,0.0,0.0,0.0,0.0,0.0,0.0,0.0,0.0,0.0,0.0,0.0,0.0,0.0,0.0,0.0,0.0,0.0,0.0,0.0,0.0,0.0,0.0,0.0,0.0,0.0,0.0,0.0,0.0,0.0,0.0,0.0,0.0,0.0,0.0,0.0,0.0,0.0,0.0,0.0,0.0,0.0,0.8458,0.9259,1.0515,1.2065,1.3344,1.5005,1.7187,1.5947,1.4911,0.0,0.0,0.0,0.0,0.0,0.0,0.0,0.0,0.0,0.0,0.0,0.0,0.0,0.0,0.0,0.0,0.0,0.0,0.0,0.0,0.0,0.0,0.0,0.0,0.0,0.0,0.0,0.0,0.0,0.0,0.0,0.0,0.0,0.0,0.0,0.0,0.0,0.0,0.0,0.0,0.0,-1.8608,-2.2785,-2.0066,-1.9048,0.0,0.0,-2.3327,-2.2656,-2.0728,0.0,0.0,0.0,0.0,0.0,0.0,0.0,0.0,0.0,0.0,0.0,0.0,0.0,0.0,0.0,0.0,0.0,0.0,0.0,0.0,0.0,0.0,0.0,0.0,0.0,0.0,0.0,0.0,0.0,0.0,0.0,0.0,0.0,0.0,0.0,0.0,0.0,0.0,0.0,0.0,0.0,0.0,0.0,0.0,0.0,0.0,0.0,0.0,0.0,0.0,0.0,0.0,0.0,0.0,0.0,0.0,1.0202,1.14,1.3197,1.5696,1.5992,1.7157,1.9295,1.7827,1.6061,0.0,0.0,0.0,0.0,0.0,0.0,0.0,0.0,0.0,0.0,0.0,0.0,0.0,0.0,0.0,0.0,0.0,0.0,0.0,0.0,0.0,0.0,0.0,0.0,0.0,0.0,0.0,0.0,0.0,0.0,0.0,0.0,0.0,0.0,0.0,0.0,0.0,0.0,0.0,0.0,0.0,-1.8442,-2.0102,-2.0168,0.0,0.0,0.0,0.0,-2.0498,-1.9322,0.0,0.0,0.0,0.0,0.0,0.0,0.0,0.0,0.0,0.0,0.0,0.0,0.0,0.0,0.0,0.0,0.0,0.0,0.0,0.0,0.0,0.0,0.0,0.0,0.0,0.0,0.0,0.0,0.0,0.0,0.0,0.0,0.0,0.0,0.0,0.0,0.0,0.0,0.0,0.0,0.0,0.0,0.0,0.0,0.0,0.0,0.0,0.0,0.0,0.0,0.0,0.0,0.0,0.0,0.0,0.0,1.302,1.3757,1.5684,1.8854,1.8917,1.9961,2.2247,2.074,1.863,0.0,0.0,0.0,0.0,0.0,0.0,0.0,0.0,0.0,0.0,0.0,0.0,0.0,0.0,0.0,0.0,0.0,0.0,0.0,0.0,0.0,0.0,0.0,0.0,0.0,0.0,0.0,0.0,0.0,0.0,0.0,0.0,0.0,0.0,0.0,0.0,0.0,0.0,0.0,0.0,-1.8357,-1.8411,-2.0026,0.0,0.0,0.0,0.0,0.0,0.0,-1.8563,-1.7524,0.0,0.0,0.0,0.0,0.0,0.0,0.0,0.0,0.0,0.0,0.0,0.0,0.0,0.0,0.0,0.0,0.0,0.0,0.0,0.0,0.0,0.0,0.0,0.0,0.0,0.0,0.0,0.0,0.0,0.0,0.0,0.0,0.0,0.0,0.0,0.0,0.0,0.0,0.0,0.0,0.0,0.0,0.0,0.0,0.0,0.0,0.0,0.0,0.0,0.0,0.0,0.0,0.0,0.0,0.0,1.5723,1.5995,1.7834,2.1239,2.1338,2.2392,2.4484,2.2818,2.0726,1.8315,0.0,0.0,0.0,0.0,0.0,0.0,0.0,0.0,0.0,0.0,0.0,0.0,0.0,0.0,0.0,0.0,0.0,0.0,0.0,0.0,0.0,0.0,0.0,0.0,0.0,0.0,0.0,0.0,0.0,0.0,0.0,0.0,0.0,0.0,0.0,0.0,0.0,0.0,0.0,-1.8152,-1.845,0.0,0.0,0.0,0.0,0.0,0.0,0.0,0.0,-1.6929,0.0,0.0,0.0,0.0,0.0,0.0,0.0,0.0,0.0,0.0,0.0,0.0,0.0,0.0,0.0,0.0,0.0,0.0,0.0,0.0,0.0,0.0,0.0,0.0,0.0,0.0,0.0,0.0,0.0,0.0,0.0,0.0,0.0,0.0,0.0,0.0,0.0,0.0,0.0,0.0,0.0,0.0,0.0,0.0,0.0,0.0,0.0,0.0,0.0,0.0,0.0,0.0,0.0,0.0,0.0,0.0,1.7331,1.9039,2.1694,2.2042,2.2602,2.3486,2.1073,1.952,1.9037,0.0,0.0,0.0,0.0,0.0,0.0,0.0,0.0,0.0,0.0,0.0,0.0,0.0,0.0,0.0,0.0,0.0,0.0,0.0,0.0,0.0,0.0,0.0,0.0,0.0,0.0,0.0,0.0,0.0,0.0,0.0,0.0,0.0,0.0,0.0,0.0,0.0,0.0,-1.8002,-1.8143,0.0,0.0,0.0,0.0,0.0,0.0,0.0,0.0,-1.8543,0.0,0.0,0.0,0.0,0.0,0.0,0.0,0.0,0.0,0.0,0.0,0.0,0.0,0.0,0.0,0.0,0.0,0.0,0.0,0.0,0.0,0.0,0.0,0.0,0.0,0.0,0.0,0.0,0.0,0.0,0.0,0.0,0.0,0.0,0.0,0.0,0.0,0.0,0.0,0.0,0.0,0.0,0.0,0.0,0.0,0.0,0.0,0.0,0.0,0.0,0.0,0.0,0.0,0.0,0.0,0.0,0.0,0.0,1.9122,2.2845,2.2573,2.3224,2.4829,2.121,1.8956,0.0,0.0,0.0,0.0,0.0,0.0,0.0,0.0,0.0,0.0,0.0,0.0,0.0,0.0,0.0,0.0,0.0,0.0,0.0,0.0,0.0,0.0,0.0,0.0,0.0,0.0,0.0,0.0,0.0,0.0,0.0,0.0,0.0,0.0,0.0,0.0,0.0,0.0,0.0,0.0,0.0,0.0,0.0,0.0,0.0,0.0,0.0,0.0,0.0,0.0,0.0,0.0,0.0,0.0,0.0,0.0,0.0,0.0,0.0,0.0,0.0,0.0,0.0,0.0,0.0,0.0,0.0,0.0,0.0,0.0,0.0,0.0,0.0,0.0,0.0,0.0,0.0,0.0,0.0,0.0,0.0,0.0,0.0,0.0,0.0,0.0,0.0,0.0,0.0,0.0,0.0,0.0,0.0,0.0,0.0,0.0,0.0,0.0,0.0,0.0,0.0,0.0,0.0,0.0,0.0,0.0,0.0,0.0,1.9125,2.3026,2.3125,2.4039,2.6041,2.1424,1.8448,0.0,0.0,0.0,0.0,0.0,0.0,0.0,0.0,0.0,0.0,0.0,0.0,0.0,0.0,0.0,0.0,0.0,0.0,0.0,0.0,0.0,0.0,0.0,0.0,0.0,0.0,0.0,0.0,0.0,0.0,0.0,0.0,0.0,0.0,0.0,0.0,0.0,0.0,0.0,0.0,0.0,0.0,0.0,0.0,0.0,0.0,0.0,0.0,-1.951,0.0,0.0,0.0,0.0,0.0,0.0,0.0,0.0,0.0,0.0,0.0,0.0,0.0,0.0,0.0,0.0,0.0,0.0,0.0,0.0,0.0,0.0,0.0,0.0,0.0,0.0,0.0,0.0,0.0,0.0,0.0,0.0,0.0,0.0,0.0,0.0,0.0,0.0,0.0,0.0,0.0,0.0,0.0,0.0,0.0,0.0,0.0,0.0,0.0,0.0,0.0,0.0,0.0,0.0,0.0,0.0,0.0,0.0,0.0,1.9708,2.0789,2.3755,2.5013,2.4282,2.0496,1.7751,0.0,0.0,0.0,0.0,0.0,0.0,0.0,0.0,0.0,0.0,0.0,0.0,0.0,0.0,0.0,0.0,0.0,0.0,0.0,0.0,0.0,0.0,0.0,0.0,0.0,0.0,0.0,0.0,0.0,0.0,0.0,0.0,0.0,0.0,0.0,0.0,0.0,0.0,0.0,0.0,0.0,0.0,0.0,0.0,0.0,0.0,0.0,0.0,0.0,0.0,0.0,0.0,0.0,0.0,0.0,0.0,0.0,0.0,0.0,0.0,0.0,0.0,0.0,0.0,0.0,0.0,0.0,0.0,0.0,0.0,0.0,0.0,0.0,0.0,0.0,0.0,0.0,0.0,0.0,0.0,0.0,0.0,0.0,0.0,0.0,0.0,0.0,0.0,0.0,0.0,0.0,0.0,0.0,0.0,0.0,0.0,0.0,0.0,0.0,0.0,0.0,0.0,0.0,0.0,0.0,0.0,0.0,0.0,1.7821,1.9732,2.1311,2.2109,2.1964,1.915,1.724,0.0,0.0,0.0,0.0,0.0,0.0,0.0,0.0,0.0,0.0,0.0,0.0,0.0,0.0,0.0,0.0,0.0,0.0,0.0,0.0,0.0,0.0,0.0,0.0,0.0,0.0,0.0,0.0,0.0,0.0,0.0,0.0,0.0,0.0,0.0,0.0,0.0,0.0,0.0,0.0,0.0,0.0,0.0,0.0,0.0,0.0,0.0,0.0,0.0,0.0,0.0,0.0,0.0,0.0,0.0,0.0,0.0,0.0,0.0,0.0,0.0,0.0,0.0,0.0,0.0,0.0,0.0,0.0,0.0,0.0,0.0,0.0,0.0,0.0,0.0,0.0,0.0,0.0,0.0,0.0,0.0,0.0,0.0,0.0,0.0,0.0,0.0,0.0,0.0,0.0,0.0,0.0,0.0,0.0,0.0,0.0,0.0,0.0,0.0,0.0,0.0,0.0,0.0,0.0,0.0,0.0,0.0,0.0,0.0,1.8445,1.8461,1.866,1.8948,1.7416,1.6352,0.0,0.0,0.0,0.0,0.0,0.0,0.0,0.0,0.0,0.0,0.0,0.0,0.0,0.0,0.0,0.0,0.0,0.0,0.0,0.0,0.0,0.0,0.0,0.0,0.0,0.0,0.0,0.0,0.0,0.0,0.0,0.0,0.0,0.0,0.0,0.0,0.0,0.0,0.0,0.0,0.0,0.0,0.0,0.0,0.0,0.0,0.0,0.0,0.0,0.0,0.0,0.0,0.0,0.0,0.0,0.0,0.0,0.0,0.0,0.0,0.0,0.0,0.0,0.0,0.0,0.0,0.0,0.0,0.0,0.0,0.0,0.0,0.0,0.0,0.0,0.0,0.0,0.0,0.0,0.0,0.0,0.0,0.0,0.0,0.0,0.0,0.0,0.0,0.0,0.0,0.0,0.0,0.0,0.0,0.0,0.0,0.0,0.0,0.0,0.0,0.0,0.0,0.0,0.0,0.0,0.0,0.0,0.0,0.0,1.6697,1.5833,1.5418,1.5344,1.5302,1.4625,0.0,0.0,0.0,0.0,0.0,0.0,0.0,0.0,0.0,0.0,0.0,0.0,0.0,0.0,0.0,0.0,0.0,0.0,0.0,0.0,0.0,0.0,0.0,0.0,0.0,0.0,0.0,0.0,0.0,0.0,0.0,0.0,0.0,0.0,0.0,0.0,0.0,0.0,0.0,0.0,0.0,0.0,0.0,0.0,0.0,0.0,0.0,0.0,0.0,0.0,0.0,0.0,0.0,0.0,0.0,0.0,0.0,0.0,0.0,0.0,0.0,0.0,0.0,0.0,0.0,0.0,0.0,0.0,0.0,0.0,0.0,0.0,0.0,0.0,0.0,0.0,0.0,0.0,0.0,0.0,0.0,0.0,0.0,0.0,0.0,0.0,0.0,0.0,0.0,0.0,0.0,0.0,0.0,0.0,0.0,0.0,0.0,0.0,0.0,0.0,0.0,0.0,0.0,0.0,0.0,0.0,0.0,0.0,0.0,1.4676,1.4355,1.4191,1.4242,1.4276,1.401,1.3385,0.0,0.0,0.0,0.0,0.0,0.0,0.0,0.0,0.0,0.0,0.0,0.0,0.0,0.0,0.0,0.0,0.0,0.0,0.0,0.0,0.0,0.0,0.0,0.0,0.0,0.0,0.0,0.0,0.0,0.0,0.0,0.0,0.0,0.0,0.0,0.0,0.0,0.0,0.0,0.0,0.0,0.0,0.0,0.0,0.0,0.0,0.0,0.0,0.0,0.0,0.0,0.0,0.0,0.0,0.0,0.0,0.0,0.0,0.0,0.0,0.0,0.0,0.0,0.0,0.0,0.0,0.0,0.0,0.0,0.0,0.0,0.0,0.0,0.0,0.0,0.0,0.0,0.0,0.0,0.0,0.0,0.0,0.0,0.0,0.0,0.0,0.0,0.0,0.0,0.0,0.0,0.0,0.0,0.0,0.0,0.0,0.0,0.0,0.0,0.0,0.0,0.0,0.0,0.0,0.0,0.0,0.0,0.0,1.3575,1.3572,1.3635,1.3645,1.3613,1.3417,0.0,0.0,0.0,0.0,0.0,0.0,0.0,0.0,0.0,0.0,0.0,0.0,0.0,0.0,0.0,0.0,0.0,0.0,0.0,0.0,0.0,0.0,0.0,0.0,0.0,0.0,0.0,0.0,0.0,0.0,0.0,0.0,0.0,0.0,0.0,0.0,0.0,0.0,0.0,0.0,0.0,0.0,0.0,0.0,0.0,0.0,0.0,0.0,0.0,0.0,0.0,0.0,0.0,0.0,0.0,0.0,0.0,0.0,0.0,0.0,0.0,0.0,0.0,0.0,0.0,0.0,0.0,0.0,0.0,0.0,0.0,0.0,0.0,0.0,0.0,0.0,0.0,0.0,0.0,0.0,0.0,0.0,0.0,0.0,0.0,0.0,0.0,0.0,0.0,0.0,0.0,0.0,0.0,0.0,0.0,0.0,0.0,0.0,0.0,0.0,0.0,0.0,0.0,0.0,0.0,0.0,0.0,0.0,1.2407,1.3524,1.3572,1.353,1.3418,1.3289,1.2735,0.0,0.0,0.0,0.0,0.0,0.0,0.0,0.0,0.0,0.0,0.0,0.0,0.0,0.0,0.0,0.0,0.0,0.0,0.0,0.0,0.0,0.0,0.0,0.0,0.0,0.0,0.0,0.0,0.0,0.0,0.0,0.0,0.0,0.0,0.0,0.0,0.0,0.0,0.0,0.0,0.0,0.0,0.0,0.0,0.0,0.0,0.0,0.0,0.0,0.0,0.0,0.0,0.0,0.0,0.0,0.0,0.0,0.0,0.0,0.0,0.0,0.0,0.0,0.0,0.0,0.0,0.0,0.0,0.0,0.0,0.0,0.0,0.0,0.0,0.0,0.0,0.0,0.0,0.0,0.0,0.0,0.0,0.0,0.0,0.0,0.0,0.0,0.0,0.0,0.0,0.0,0.0,0.0,0.0,0.0,0.0,0.0,0.0,0.0,0.0,0.0,0.0,0.0,0.0,0.0,0.0,0.0,0.0,0.0,1.2301,0.0,1.3533,1.3517,1.2651,1.2096,0.0,0.0,0.0,0.0,0.0,0.0,0.0,0.0,0.0,0.0,0.0,0.0,0.0,0.0,0.0,0.0,0.0,0.0,0.0,0.0,0.0,0.0,0.0,0.0,0.0,0.0,0.0,0.0,0.0,0.0,0.0,0.0,0.0,0.0,0.0,0.0,0.0,0.0,0.0,0.0,0.0,0.0,0.0,0.0,0.0,0.0,0.0,0.0,0.0,0.0,0.0,0.0,0.0,0.0,0.0,0.0,0.0,0.0,0.0,0.0,0.0,0.0,0.0,0.0,0.0,0.0,0.0,0.0,0.0,0.0,0.0,0.0,0.0,0.0,0.0,0.0,0.0,0.0,0.0,0.0,0.0,0.0,0.0,0.0,0.0,0.0,0.0,0.0,0.0,0.0,0.0,0.0,0.0,0.0,0.0,0.0,0.0,0.0,0.0,0.0,0.0,0.0,0.0,0.0,0.0,0.0,0.0,0.0,0.0,1.1028,1.2271,1.3034,1.3411,1.26,1.1886,0.0,0.0,0.0,0.0,0.0,0.0,0.0,0.0,0.0,0.0,0.0,0.0,0.0,0.0,0.0,0.0,0.0,0.0,0.0,0.0,0.0,0.0,0.0,0.0,0.0,0.0,0.0,0.0,0.0,0.0,0.0,0.0,0.0,0.0,0.0,0.0,0.0,0.0,0.0,0.0,0.0,0.0,0.0,0.0,0.0,0.0,0.0,0.0,0.0,0.0,0.0,0.0,0.0,0.0,0.0,0.0,0.0,0.0,0.0,0.0,0.0,0.0,0.0,0.0,0.0,0.0,0.0,0.0,0.0,0.0,0.0,0.0,0.0,0.0,0.0,0.0,0.0,0.0,0.0,0.0,0.0,0.0,0.0,0.0,0.0,0.0,0.0,0.0,0.0,0.0,0.0,0.0,0.0,0.0,0.0,0.0,0.0,0.0,0.0,0.0,0.0,0.0,0.0,0.0,0.0,0.0,0.0,0.0,0.0,0.9713,1.0895,1.2063,1.3198,1.3052,1.2015,0.0,0.0,0.0,0.0,0.0,0.0,0.0,0.0,0.0,0.0,0.0,0.0,0.0,0.0,0.0,0.0,0.0,0.0,0.0,0.0,0.0,0.0,0.0,0.0,0.0,0.0,0.0,0.0,0.0,0.0,0.0,0.0,0.0,0.0,0.0,0.0,0.0,0.0,0.0,0.0,0.0,0.0,0.0,0.0,0.0,0.0,0.0,0.0,0.0,0.0,0.0,0.0,0.0,0.0,0.0,0.0,0.0,0.0,0.0,0.0,0.0,0.0,0.0,0.0,0.0,0.0,0.0,0.0,0.0,0.0,0.0,0.0,0.0,0.0,0.0,0.0,0.0,0.0,0.0,0.0,0.0,0.0,0.0,0.0,0.0,0.0,0.0,0.0,0.0,0.0,0.0,0.0,0.0,0.0,0.0,0.0,0.0,0.0,0.0,0.0,0.0,0.0,0.0,0.0,0.0,0.0,0.0,0.0,0.0,0.0,0.6479,0.8803,1.3166,1.2727,1.1649,1.0255,0.0,0.0,0.0,0.0,0.0,0.0,0.0,0.0,0.0,0.0,0.0,0.0,0.0,0.0,0.0,0.0,0.0,0.0,0.0,0.0,0.0,0.0,0.0,0.0,0.0,0.0,0.0,0.0,0.0,0.0,0.0,0.0,0.0,0.0,0.0,0.0,0.0,0.0,0.0,0.0,0.0,0.0,0.0,0.0,0.0,0.0,0.0,0.0,0.0,0.0,0.0,0.0,0.0,0.0,0.0,0.0,0.0,0.0,0.0,0.0,0.0,0.0,0.0,0.0,0.0,0.0,0.0,0.0,0.0,0.0,0.0,0.0,0.0,0.0,0.0,0.0,0.0,0.0,0.0,0.0,0.0,0.0,0.0,0.0,0.0,0.0,0.0,0.0,0.0,0.0,0.0,0.0,0.0,0.0,0.0,0.0,0.0,0.0,0.0,0.0,0.0,0.0,0.0,0.0,0.0,0.0,0.0,0.0,0.0,0.0,0.3538,0.7491,0.896,0.9363,0.0,0.0,0.0,0.0,0.0,0.0,0.0,0.0,0.0,0.0,0.0,0.0,0.0,0.0,0.0,0.0,0.0,0.0,0.0,0.0,0.0,0.0,0.0,0.0,0.0,0.0,0.0,0.0,0.0,0.0,0.0,0.0,0.0,0.0,0.0,0.0,0.0,0.0,0.0,0.0,0.0,0.0,0.0,0.0,0.0,0.0,0.0,0.0,0.0,0.0,0.0,0.0,0.0,0.0,0.0,0.0,0.0,0.0,0.0,0.0,0.0,0.0,0.0,0.0,0.0,0.0,0.0,0.0,0.0,0.0,0.0,0.0,0.0,0.0,0.0,0.0,0.0,0.0,0.0,0.0,0.0,0.0,0.0,0.0,0.0,0.0,0.0,0.0,0.0,0.0,0.0,0.0,0.0,0.0,0.0,0.0,0.0,0.0,0.0,0.0,0.0,0.0,0.0,0.0,0.0,0.0,0.0,0.0,0.0,0.0,0.0,-0.2544,-0.1155,0.325,0.0,0.5834,0.0,0.0,0.0,0.0,0.0,0.0,0.0,0.0,0.0,0.0,0.0,0.0,0.0,0.0,0.0,0.0,0.0,0.0,0.0,0.0,0.0,0.0,0.0,0.0,0.0,0.0,0.0,0.0,0.0,0.0,0.0,0.0,0.0,0.0,0.0,0.0,0.0,0.0,0.0,0.0,0.0,0.0,0.0,0.0,0.0,0.0,0.0,0.0,0.0,0.0,0.0,0.0,0.0,0.0,0.0,0.0,0.0,0.0,0.0,0.0,0.0,0.0,0.0,0.0,0.0,0.0,0.0,0.0,0.0,0.0,0.0,0.0,0.0,0.0,0.0,0.0,0.0,0.0,0.0,0.0,0.0,0.0,0.0,0.0,0.0,0.0,0.0,0.0,0.0,0.0,0.0,0.0,0.0,0.0,0.0,0.0,0.0,0.0,0.0,0.0,0.0,0.0,0.0,0.0,0.0,0.0,0.0,0.0,0.0,0.0,0.0,0.0,0.0089,0.067,0.0725,0.0,0.0,0.0,0.0,0.0,0.0,0.0,0.0,0.0,0.0,0.0,0.0,0.0,0.0,0.0,0.0,0.0,0.0,0.0,0.0,0.0,0.0,0.0,0.0,0.0,0.0,0.0,0.0,0.0,0.0,0.0,0.0,0.0,0.0,0.0,0.0,0.0,0.0,0.0,0.0,0.0,0.0,0.0,0.0,0.0,0.0,0.0,0.0,0.0,0.0,0.0,0.0,0.0,0.0,0.0,0.0,0.0,0.0,0.0,0.0,0.0,0.0,0.0,0.0,0.0,0.0,0.0,0.0,0.0,0.0,0.0,0.0,0.0,0.0,0.0,0.0,0.0,0.0,0.0,0.0,0.0,0.0,0.0,0.0,0.0,0.0,0.0,0.0,0.0,0.0,0.0,0.0,0.0,0.0,0.0,0.0,0.0,0.0,0.0,0.0,0.0,0.0,0.0,0.0,0.0,0.0,0.0,0.0,0.0,0.0,-1.0068,-0.6834,-0.4627,-0.3192,-0.2584,0.0,0.0,0.0,0.0,0.0,0.0,0.0,0.0,0.0,0.0,0.0,0.0,0.0,0.0,0.0,0.0,0.0,0.0,0.0,0.0,0.0,0.0,0.0,0.0,0.0,0.0,0.0,0.0,0.0,0.0,0.0,0.0,0.0,0.0,0.0,0.0,0.0,0.0,0.0,0.0,0.0,0.0,0.0,0.0,0.0,0.0,0.0,0.0,0.0,0.0,0.0,0.0,0.0,0.0,0.0,0.0,0.0,0.0,0.0,0.0,0.0,0.0,0.0,0.0,0.0,0.0,0.0,0.0,0.0,0.0,0.0,0.0,0.0,0.0,0.0,0.0,0.0,0.0,0.0,0.0,0.0,0.0,0.0,0.0,0.0,0.0,0.0,0.0,0.0,0.0,0.0,0.0,0.0,0.0,0.0,0.0,0.0,0.0,0.0,0.0,0.0,0.0,0.0,0.0,0.0,0.0,0.0,0.0,0.0,0.0,0.0,0.0,0.0,0.0,-0.5528,0.0,0.0,0.0,0.0,0.0,0.0,0.0,0.0,0.0,0.0,0.0,0.0,0.0,0.0,0.0,0.0,0.0,0.0,0.0,0.0,0.0,0.0,0.0,0.0,0.0,0.0,0.0,0.0,0.0,0.0,0.0,0.0,0.0,0.0,0.0,0.0,0.0,0.0,0.0,0.0,0.0,0.0,0.0,0.0,0.0,0.0,0.0,0.0,0.0,0.0,0.0,0.0,0.0,0.0,0.0,0.0,0.0,0.0,0.0,0.0,0.0,0.0,0.0,0.0,0.0,0.0,0.0,0.0,0.0,0.0,0.0,0.0,0.0,0.0,0.0,0.0,0.0,0.0,0.0,0.0,0.0,0.0,0.0,0.0,0.0,0.0,0.0,0.0,0.0,0.0,0.0,0.0,0.0,0.0,0.0,0.0,0.0,0.0,0.0,0.0,0.0,0.0,0.0,0.0,0.0,0.0,0.0,0.0,0.0,0.0,0.0,0.0,0.0,0.0,0.0,0.0,0.0,0.0,0.0,0.0,0.0,0.0,0.0,0.0,0.0,0.0,0.0,0.0,0.0,0.0,0.0,0.0,0.0,0.0,0.0,0.0,0.0,0.0,0.0,0.0,0.0,0.0,0.0,0.0,0.0,0.0,0.0,0.0,0.0,0.0,0.0,0.0,0.0,0.0,0.0,0.0,0.0,0.0,0.0,0.0,0.0,0.0,0.0,0.0,0.0,0.0,0.0,0.0,0.0,0.0,0.0,0.0,0.0,0.0,0.0,0.0,0.0,0.0,0.0,0.0,0.0,0.0,0.0,0.0,0.0,0.0,0.0,0.0,0.0,0.0,0.0,0.0,0.0,0.0,0.0,0.0,0.0,0.0,0.0,0.0,0.0,0.0,0.0,0.0,0.0,0.0,0.0,0.0,0.0,0.0,0.0,0.0,0.0,0.0,0.0,0.0,0.0,0.0,0.0,0.0,0.0,0.0,0.0,0.0,0.0,0.0,0.0,0.0,0.0,0.0,0.0,0.0,0.0,0.0,0.0,0.0,0.0,0.0,0.0,0.0,0.0,0.0,0.0,0.0,0.0,0.0,0.0,0.0,0.0,0.0,0.0,0.0,0.0,0.0,0.0,0.0,0.0,0.0,0.0,0.0,0.0,0.0,0.0,0.0,0.0,0.0,0.0,0.0,0.0,0.0,0.0,0.0,0.0,0.0,0.0,0.0,0.0,0.0,0.0,0.0,0.0,0.0,0.0,0.0,0.0,0.0,0.0,0.0,0.0,0.0,0.0,0.0,0.0,0.0,0.0,0.0,0.0,0.0,0.0,0.0,0.0,0.0,0.0,0.0,0.0,0.0,0.0,0.0,0.0,0.0,0.0,0.0,0.0,0.0,0.0,0.0,0.0,0.0,0.0,0.0,0.0,0.0,0.0,0.0,0.0,0.0,0.0,0.0,0.0,0.0,0.0,0.0,0.0,0.0,0.0,0.0,0.0,0.0,0.0,0.0,0.0,0.0,0.0,0.0,0.0,0.0,0.0,0.0,0.0,0.0,0.0,0.0,0.0,0.0,0.0,0.0,0.0,0.0,0.0,0.0,0.0,0.0,0.0,0.0,0.0,0.0,0.0,0.0,0.0,0.0,0.0,0.0,0.0,0.0,0.0,0.0,0.0,0.0,0.0,0.0,0.0,0.0,0.0,0.0,0.0,0.0,0.0,0.0,0.0,0.0,0.0,0.0,0.0,0.0,0.0,0.0,0.0,0.0,0.0,0.0,0.0,0.0,0.0,0.0,0.0,0.0,0.0,0.0,0.0,0.0,0.0,0.0,0.0,0.0,0.0,0.0,0.0,0.0,0.0,0.0,0.0,0.0,0.0,0.0,0.0,0.0,0.0,0.0,0.0,0.0,0.0,0.0,0.0,0.0,0.0,0.0,0.0,0.0,0.0,0.0,0.0,0.0,0.0,0.0,0.0,0.0,0.0,0.0,0.0,0.0,0.0,0.0,0.0,0.0,0.0,0.0,0.0,0.0,0.0,0.0,0.0,0.0,0.0,0.0,0.0,0.0,0.0,0.0,0.0,0.0,0.0,0.0,0.0,0.0,0.0,0.0,0.0,0.0,0.0,0.0,0.0,0.0,0.0,0.0,0.0,0.0,0.0,0.0,0.0,0.0,0.0,0.0,0.0,0.0,0.0,0.0,0.0,0.0,0.0,0.0,0.0,0.0,0.0,0.0,0.0,0.0,0.0,0.0,0.0,0.0,0.0,0.0,0.0,0.0,0.0,0.0,0.0,0.0,0.0,0.0,0.0,0.0,0.0,0.0,0.0,0.0,0.0,0.0,0.0,0.0,0.0,0.0,0.0,0.0,0.0,0.0,0.0,0.0,0.0,0.0,0.0,0.0,0.0,0.0,0.0,0.0,0.0,0.0,0.0,0.0,0.0,0.0,0.0,0.0,0.0,0.0,0.0,0.0,0.0,0.0,0.0,0.0,0.0,0.0,0.0,0.0,0.0,0.0,0.0,0.0,0.0,0.0,0.0,0.0,0.0,0.0,0.0,0.0,0.0,0.0,0.0,0.0,0.0,0.0,0.0,0.0,0.0,0.0,0.0,0.0,0.0,0.0,0.0,0.0,0.0,0.0,0.0,0.0,0.0,0.0,0.0,0.0,0.0,0.0,0.0,0.0,0.0,0.0,0.0,0.0,0.0,0.0,0.0,0.0,0.0,0.0,0.0,0.0,0.0,0.0,0.0,0.0,0.0,0.0,0.0,0.0,0.0,0.0,0.0,0.0,0.0,0.0,0.0,0.0,0.0,0.0,0.0,0.0,0.0,0.0,0.0,0.0,0.0,0.0,0.0,0.0,0.0,0.0,0.0,0.0,0.0,0.0,0.0,0.0,0.0,0.0,0.0,0.0,0.0,0.0,0.0,0.0,0.0,0.0,0.0,0.0,0.0,0.0,0.0,0.0,0.0,0.0,0.0,0.0,0.0,0.0,0.0,0.0,0.0,0.0,0.0,0.0,0.0,0.0,0.0,0.0,0.0,0.0,0.0,0.0,0.0,0.0,0.0,0.0,0.0,0.0,0.0,0.0,0.0,0.0,0.0,0.0,0.0,0.0,0.0,0.0,0.0,0.0,0.0,0.0,0.0,0.0,0.0,0.0,0.0,0.0,0.0,0.0,0.0,0.0,0.0,0.0,0.0,0.0,0.0,0.0,0.0,0.0,0.0,0.0,0.0,0.0,0.0,0.0,0.0,0.0,0.0,0.0,0.0,0.0,0.0,0.0,0.0,0.0,0.0,0.0,0.0,0.0,0.0,0.0,0.0,0.0,0.0,0.0,0.0,0.0,0.0,0.0,0.0,0.0,0.0,0.0,0.0,0.0,0.0,0.0,0.0,0.0,0.0,0.0,0.0,0.0,0.0,0.0,0.0,0.0,0.0,0.0,0.0,0.0,0.0,0.0,0.0,0.0,0.0,0.0,0.0,0.0,0.0,0.0,0.0,0.0,0.0,0.0,0.0,0.0,0.0,0.0,0.0,0.0,0.0,0.0,0.0,0.0,0.0,0.0,0.0,0.0,0.0,0.0,0.0,0.0,0.0,0.0,0.0,0.0,0.0,0.0,0.0,0.0,0.0,0.0,0.0,0.0,0.0,0.0,0.0,0.0,0.0,0.0,0.0,0.0,0.0,0.0,0.0,0.0,0.0,0.0,0.0,0.0,0.0,0.0,0.0,0.0,0.0,0.0,0.0,0.0,0.0,0.0,0.0,0.0,0.0,0.0,0.0,0.0,0.0,0.0,0.0,0.0,0.0,0.0,0.0,0.0,0.0,0.0,0.0,0.0,0.0,0.0,0.0,0.0,0.0,0.0,0.0,0.0,0.0,0.0,0.0,0.0,0.0,0.0,0.0,0.0,0.0,0.0,0.0,0.0,0.0,0.0,0.0,0.0,0.0,0.0,0.0,0.0,0.0,0.0,0.0,0.0,0.0,0.0,0.0,0.0,0.0,0.0,0.0,0.0,0.0,0.0,0.0,0.0,0.0,0.0,0.0,0.0,0.0,0.0,0.0,0.0,0.0,0.0,0.0,0.0,0.0,0.0,0.0,0.0,0.0,0.0,0.0,0.0,0.0,0.0,0.0,0.0,0.0,0.0,0.0,0.0,0.0,0.0,0.0,0.0,0.0,0.0,0.0,0.0,0.0,0.0,0.0,0.0,0.0,0.0,0.0,0.0,0.0,0.0,0.0,0.0,0.0,0.0,0.0,0.0,0.0,0.0,0.0,0.0,0.0,0.0,0.0,0.0,0.0,0.0,0.0,0.0,0.0,0.0,0.0,0.0,0.0,0.0,0.0,0.0,0.0,0.0,0.0,0.0]}]]]